[[{"header":{"parameterUnit":"m.s-1","parameterCategory":1,"la1":31.0,"la2":29.5877,"lo1":-88.7671,"lo2":-86.6584,"dy":0.0162,"dx":0.0185,"nx":115,"ny":88,"refTime":"2024-02-23T18:00:00:Z","depth":0,"parameterNumber":2,"parameterNumberName":"U-component_of_WINDS"},"data":[0.0,0.0,0.0,0.0,0.0,0.0,0.0,0.0,0.0,0.0,0.0,0.0,0.0,0.0,0.0,0.0,0.0,0.0,0.0,0.0,0.0,0.0,0.0,0.0,0.0,0.0,0.0,0.0,0.0,0.0,0.0,0.0,0.0,0.0,0.0,0.0,0.0,0.0,0.0,0.0,0.0,0.0,0.0,0.0,0.0,0.0,0.0,0.0,0.0,0.0,0.0,0.0,0.0,0.0,0.0,0.0,0.0,0.0,0.0,0.0,0.0,0.0,0.0,0.0,0.0,0.0,0.0,0.0,0.0,0.0,0.0,0.0,0.0,0.0,0.0,0.0,0.0,0.0,0.0,0.0,0.0,0.0,0.0,0.0,0.0,0.0,0.0,0.0,0.0,0.0,0.0,0.0,0.0,0.0,0.0,0.0,0.0,0.0,0.0,0.0,0.0,0.0,0.0,0.0,0.0,0.0,0.0,0.0,0.0,0.0,0.0,0.0,0.0,0.0,0.0,0.0,0.0,0.0,0.0,0.0,0.0,0.0,0.0,0.0,0.0,0.0,0.0,0.0,0.0,0.0,0.0,0.0,0.0,0.0,0.0,0.0,0.0,0.0,0.0,0.0,0.0,0.0,0.0,0.0,0.0,0.0,0.0,0.0,0.0,0.0,0.0,0.0,0.0,0.0,0.0,0.0,0.0,0.0,0.0,0.0,0.0,0.0,0.0,0.0,0.0,0.0,0.0,0.0,0.0,0.0,0.0,0.0,0.0,0.0,0.0,0.0,0.0,0.0,0.0,0.0,0.0,0.0,0.0,0.0,0.0,0.0,0.0,0.0,0.0,0.0,0.0,0.0,0.0,0.0,0.0,0.0,0.0,0.0,0.0,0.0,0.0,0.0,0.0,0.0,0.0,0.0,0.0,0.0,0.0,0.0,0.0,0.0,0.0,0.0,0.0,0.0,0.0,0.0,0.0,0.0,0.0,0.0,0.0,0.0,0.0,0.0,0.0,0.0,0.0,0.0,0.0,0.0,0.0,0.0,0.0,0.0,0.0,0.0,0.0,0.0,0.0,0.0,0.0,0.0,0.0,0.0,0.0,0.0,0.0,0.0,0.0,0.0,0.0,0.0,0.0,0.0,0.0,0.0,0.0,0.0,0.0,0.0,0.0,0.0,0.0,0.0,0.0,0.0,0.0,0.0,0.0,0.0,0.0,0.0,0.0,0.0,0.0,0.0,0.0,0.0,0.0,0.0,0.0,0.0,0.0,0.0,0.0,0.0,0.0,0.0,0.0,0.0,0.0,0.0,0.0,0.0,0.0,0.0,0.0,0.0,0.0,0.0,0.0,0.0,0.0,0.0,0.0,0.0,0.0,0.0,0.0,0.0,0.0,0.0,0.0,0.0,0.0,0.0,0.0,0.0,0.0,0.0,0.0,0.0,0.0,0.0,0.0,0.0,0.0,0.0,0.0,0.0,0.0,0.0,0.0,0.0,0.0,0.0,0.0,0.0,0.0,0.0,0.0,0.0,0.0,0.0,0.0,0.0,0.0,0.0,0.0,0.0,0.0,0.0,0.0,0.0,0.0,0.0,0.0,0.0,0.0,0.0,0.0,0.0,0.0,0.0,0.0,0.0,0.0,0.0,0.0,0.0,0.0,0.0,0.0,0.0,0.0,0.0,0.0,0.0,0.0,0.0,0.0,0.0,0.0,0.0,0.0,0.0,0.0,0.0,0.0,0.0,0.0,0.0,0.0,0.0,0.0,0.0,0.0,0.0,0.0,0.0,0.0,0.0,0.0,0.0,0.0,0.0,0.0,0.0,0.0,0.0,0.0,0.0,0.0,0.0,0.0,0.0,0.0,0.0,0.0,0.0,0.0,0.0,0.0,0.0,0.0,0.0,0.0,0.0,0.0,0.0,0.0,0.0,0.0,0.0,0.0,0.0,0.0,0.0,0.0,0.0,0.0,0.0,0.0,0.0,0.0,0.0,0.0,0.0,0.0,0.0,0.0,0.0,0.0,0.0,0.0,0.0,0.0,0.0,0.0,0.0,0.0,0.0,0.0,0.0,0.0,0.0,0.0,0.0,0.0,0.0,0.0,0.0,0.0,0.0,0.0,0.0,0.0,0.0,0.0,0.0,0.0,0.0,0.0,0.0,0.0,0.0,0.0,0.0,0.0,0.0,0.0,0.0,0.0,0.0,0.0,0.0,0.0,0.0,0.0,0.0,0.0,0.0,0.0,0.0,0.0,0.0,0.0,0.0,0.0,0.0,0.0,0.0,0.0,0.0,0.0,0.0,0.0,0.0,0.0,0.0,0.0,0.0,0.0,0.0,0.0,0.0,0.0,0.0,0.0,0.0,0.0,0.0,0.0,0.0,0.0,0.0,0.0,0.0,0.0,0.0,0.0,0.0,0.0,0.0,0.0,0.0,0.0,0.0,0.0,0.0,0.0,0.0,0.0,0.0,0.0,0.0,0.0,0.0,0.0,0.0,0.0,0.0,0.0,0.0,0.0,0.0,0.0,0.0,0.0,0.0,0.0,0.0,0.0,0.0,0.0,0.0,0.0,0.0,0.0,0.0,0.0,0.0,0.0,0.0,0.0,0.0,0.0,0.0,0.0,0.0,0.0,0.0,0.0,0.0,0.0,0.0,0.0,0.0,0.0,0.0,0.0,0.0,0.0,0.0,0.0,0.0,0.0,0.0,0.0,0.0,0.0,0.0,0.0,0.0,0.0,0.0,0.0,0.0,0.0,0.0,0.0,0.0,0.0,0.0,0.0,0.0,0.0,0.0,0.0,0.0,0.0,0.0,0.0,0.0,0.0,0.0,0.0,0.0,0.0,0.0,0.0,0.0,0.0,0.0,0.0,0.0,0.0,0.0,0.0,0.0,0.0,0.0,0.0,0.0,0.0,0.0,0.0,0.0,0.0,0.0,0.0,0.0,0.0,0.0,0.0,0.0,0.0,0.0,0.0,0.0,0.0,0.0,0.0,0.0,0.0,0.0,0.0,0.0,0.0,0.0,0.0,0.0,0.0,0.0,0.0,0.0,0.0,0.0,0.0,0.0,0.0,0.0,0.0,0.0,0.0,0.0,0.0,0.0,0.0,0.0,0.0,0.0,0.0,0.0,0.0,0.0,0.0,0.0,0.0,0.0,0.0,0.0,0.0,0.0,0.0,0.0,0.0,0.0,0.0,0.0,0.0,0.0,0.0,0.0,0.0,0.0,0.0,0.0,0.0,0.0,0.0,0.0,0.0,0.0,0.0,0.0,0.0,0.0,0.0,0.0,0.0,0.0,0.0,0.0,0.0,0.0,0.0,0.0,0.0,0.0,0.0,0.0,0.0,0.0,0.0,0.0,0.0,0.0,0.0,0.0,0.0,0.0,0.0,0.0,0.0,0.0,0.0,0.0,0.0,0.0,0.0,0.0,0.0,0.0,0.0,0.0,0.0,0.0,0.0,0.0,0.0,0.0,0.0,0.0,0.0,0.0,0.0,0.0,0.0,0.0,0.0,0.0,0.0,0.0,0.0,0.0,0.0,0.0,0.0,0.0,0.0,0.0,0.0,0.0,0.0,0.0,0.0,0.0,0.0,0.0,0.0,0.0,0.0,0.0,0.0,0.0,0.0,0.0,0.0,0.0,0.0,0.0,0.0,0.0,0.0,0.0,0.0,0.0,0.0,0.0,0.0,0.0,0.0,0.0,0.0,0.0,0.0,0.0,0.0,0.0,0.0,0.0,0.0,0.0,0.0,0.0,0.0,0.0,0.0,0.0,0.0,0.0,0.0,0.0,0.0,0.0,0.0,0.0,0.0,0.0,0.0,0.0,0.0,0.0,0.0,0.0,0.0,0.0,0.0,0.0,0.0,0.0,0.0,0.0,0.0,0.0,0.0,0.0,0.0,0.0,0.0,0.0,0.0,0.0,0.0,0.0,0.0,0.0,0.0,0.0,0.0,0.0,0.0,0.0,0.0,0.0,0.0,0.0,0.0,0.0,0.0,0.0,0.0,0.0,0.0,0.0,0.0,0.0,0.0,0.0,0.0,0.0,0.0,0.0,0.0,0.0,0.0,0.0,0.0,0.0,0.0,0.0,0.0,0.0,0.0,0.0,0.0,0.0,0.0,0.0,0.0,0.0,0.0,0.0,0.0,0.0,0.0,0.0,0.0,0.0,0.0,0.0,0.0,0.0,0.0,0.0,0.0,0.0,0.0,0.0,0.0,0.0,0.0,0.0,0.0,0.0,0.0,0.0,0.0,0.0,0.0,0.0,0.0,0.0,-0.7859,0.0,0.0,0.0,0.0,0.0,0.0,0.0,0.0,0.0,0.0,0.0,0.0,0.0,0.0,0.0,0.0,0.0,0.0,0.0,0.0,0.0,0.0,0.0,0.0,0.0,0.0,0.0,0.0,0.0,0.0,0.0,0.0,0.0,0.0,0.0,0.0,0.0,0.0,0.0,0.0,0.0,0.0,0.0,0.0,0.0,0.0,0.0,0.0,0.0,0.0,0.0,0.0,0.0,0.0,0.0,0.0,0.0,0.0,0.0,0.0,0.0,0.0,0.0,0.0,0.0,0.0,0.0,0.0,0.0,0.0,0.0,0.0,0.0,0.0,0.0,0.0,0.0,0.0,0.0,0.0,0.0,0.0,0.0,0.0,0.0,0.0,0.0,0.0,0.0,0.0,0.0,0.0,0.0,0.0,0.0,0.0,0.0,0.0,0.0,0.0,0.0,0.0,0.0,0.0,0.0,0.0,0.0,0.0,0.0,0.0,-0.975,-0.9447,-0.8895,-0.8304,-0.7723,0.0,0.0,0.0,0.0,0.0,0.0,0.0,0.0,0.0,0.0,0.0,0.0,0.0,0.0,0.0,0.0,0.0,0.0,0.0,0.0,0.0,0.0,0.0,0.0,0.0,0.0,0.0,0.0,0.0,0.0,0.0,0.0,0.0,0.0,0.0,0.0,0.0,0.0,0.0,0.0,0.0,0.0,0.0,0.0,0.0,0.0,0.0,0.0,0.0,0.0,0.0,0.0,0.0,0.0,0.0,0.0,0.0,0.0,0.0,0.0,0.0,0.0,0.0,0.0,0.0,0.0,0.0,0.0,0.0,0.0,0.0,0.0,0.0,0.0,0.0,0.0,0.0,0.0,0.0,0.0,0.0,0.0,0.0,0.0,0.0,0.0,0.0,0.0,0.0,0.0,0.0,0.0,0.0,0.0,0.0,0.0,0.0,0.0,0.0,0.0,0.0,0.0,0.0,0.0,0.0,0.0,0.0,0.0,0.0,0.0,0.0,0.0,-0.8647,-0.8014,-0.7371,0.0,0.0,0.0,0.0,0.0,0.0,0.0,0.0,0.0,0.0,0.0,0.0,0.0,0.0,0.0,0.0,0.0,0.0,0.0,0.0,0.0,0.0,0.0,0.0,0.0,0.0,0.0,0.0,0.0,0.0,0.0,0.0,0.0,0.0,0.0,0.0,0.0,0.0,0.0,0.0,0.0,0.0,0.0,0.0,0.0,0.0,0.0,0.0,0.0,0.0,0.0,0.0,0.0,0.0,0.0,0.0,0.0,0.0,0.0,0.0,0.0,0.0,0.0,0.0,0.0,0.0,0.0,0.0,0.0,0.0,0.0,0.0,0.0,0.0,0.0,0.0,0.0,0.0,0.0,0.0,0.0,0.0,0.0,0.0,0.0,0.0,0.0,0.0,0.0,0.0,0.0,0.0,0.0,0.0,0.0,0.0,0.0,0.0,0.0,0.0,0.0,0.0,0.0,0.0,0.0,0.0,0.0,0.0,0.0,0.0,-0.9226,-0.9041,-0.8379,0.0,-0.6673,0.0,0.0,0.0,0.0,0.0,0.0,0.0,0.0,0.0,0.0,0.0,0.0,0.0,0.0,0.0,0.0,0.0,0.0,0.0,0.0,0.0,0.0,0.0,0.0,0.0,0.0,0.0,0.0,0.0,0.0,0.0,0.0,0.0,0.0,0.0,0.0,0.0,0.0,0.0,0.0,0.0,0.0,0.0,0.0,0.0,0.0,0.0,0.0,0.0,0.0,0.0,0.0,0.0,0.0,0.0,0.0,0.0,0.0,0.0,0.0,0.0,0.0,0.0,0.0,0.0,0.0,0.0,0.0,0.0,0.0,0.0,0.0,0.0,0.0,0.0,0.0,0.0,0.0,0.0,0.0,0.0,0.0,0.0,0.0,0.0,0.0,0.0,0.0,0.0,0.0,0.0,0.0,0.0,0.0,0.0,0.0,0.0,0.0,0.0,0.0,0.0,0.0,0.0,0.0,0.0,0.0,0.0,0.0,0.0,0.0,-0.8258,-0.806,-0.7248,-0.656,0.0,0.0,0.0,0.0,0.0,0.0,0.0,0.0,0.0,0.0,0.0,0.0,0.0,0.0,0.0,0.0,0.0,0.0,0.0,0.0,0.0,0.0,0.0,0.0,0.0,0.0,0.0,0.0,0.0,0.0,0.0,0.0,0.0,0.0,0.0,0.0,0.0,0.0,0.0,0.0,0.0,0.0,0.0,0.0,0.0,0.0,0.0,0.0,0.0,0.0,0.0,0.0,0.0,0.0,0.0,0.0,0.0,0.0,0.0,0.0,0.0,0.0,0.0,0.0,0.0,0.0,0.0,0.0,0.0,0.0,0.0,0.0,0.0,0.0,0.0,0.0,0.0,0.0,0.0,0.0,0.0,0.0,0.0,0.0,0.0,0.0,0.0,0.0,0.0,0.0,0.0,0.0,0.0,0.0,0.0,0.0,0.0,0.0,0.0,0.0,0.0,0.0,0.0,0.0,0.0,0.0,0.0,0.0,0.0,0.0,-0.7758,-0.7467,-0.7131,-0.6348,-0.5819,-0.5621,0.0,0.0,0.0,0.0,0.0,0.0,0.0,0.0,0.0,0.0,0.0,0.0,0.0,0.0,0.0,0.0,0.0,0.0,0.0,0.0,0.0,0.0,0.0,0.0,0.0,0.0,0.0,0.0,0.0,0.0,0.0,0.0,0.0,0.0,0.0,0.0,0.0,0.0,0.0,0.0,0.0,0.0,0.0,0.0,0.0,0.0,0.0,0.0,0.0,0.0,0.0,0.0,0.0,0.0,0.0,0.0,0.0,0.0,0.0,0.0,0.0,0.0,0.0,0.0,0.0,0.0,0.0,0.0,0.0,0.0,0.0,0.0,0.0,0.0,0.0,0.0,0.0,0.0,0.0,0.0,0.0,0.0,0.0,0.0,0.0,0.0,0.0,0.0,0.0,0.0,0.0,0.0,0.0,0.0,0.0,0.0,0.0,0.0,0.0,0.0,0.0,0.0,0.0,0.0,0.0,0.0,0.0,0.0,-0.7802,-0.7538,-0.7123,-0.6559,-0.6019,-0.5629,0.0,0.0,0.0,0.0,0.0,0.0,0.0,0.0,0.0,0.0,0.0,0.0,0.0,0.0,0.0,0.0,0.0,0.0,0.0,0.0,0.0,0.0,0.0,0.0,0.0,0.0,0.0,0.0,0.0,0.0,0.0,0.0,0.0,0.0,0.0,0.0,0.0,0.0,0.0,0.0,0.0,0.0,0.0,0.0,0.0,0.0,0.0,0.0,0.0,0.0,0.0,0.0,0.0,0.0,0.0,0.0,0.0,0.0,0.0,0.0,0.0,0.0,0.0,0.0,0.0,0.0,0.0,0.0,0.0,0.0,0.0,0.0,0.0,0.0,0.0,0.0,0.0,0.0,0.0,0.0,0.0,0.0,0.0,0.0,0.0,0.0,0.0,0.0,0.0,0.0,0.0,0.0,0.0,0.0,0.0,0.0,0.0,0.0,0.0,0.0,0.0,0.0,0.0,0.0,0.0,0.0,0.0,0.0,0.0,-0.7322,-0.6796,-0.634,-0.5995,-0.5671,-0.5457,0.0,0.0,0.0,0.0,0.0,0.0,0.0,0.0,0.0,0.0,0.0,0.0,0.0,0.0,0.0,0.0,0.0,0.0,0.0,0.0,0.0,0.0,0.0,0.0,0.0,0.0,0.0,0.0,0.0,0.0,0.0,0.0,0.0,0.0,0.0,0.0,0.0,0.0,0.0,0.0,0.0,0.0,0.0,0.0,0.0,0.0,0.0,0.0,0.0,0.0,0.0,0.0,0.0,0.0,0.0,0.0,0.0,0.0,0.0,0.0,0.0,0.0,0.0,0.0,0.0,0.0,0.0,0.0,0.0,0.0,0.0,0.0,0.0,0.0,0.0,0.0,0.0,0.0,0.0,0.0,0.0,0.0,0.0,0.0,0.0,0.0,0.0,0.0,0.0,0.0,0.0,0.0,0.0,0.0,0.0,0.0,0.0,0.0,0.0,0.0,0.0,0.0,0.0,0.0,0.0,0.0,0.0,0.0,0.0,-0.6958,0.0,-0.5989,-0.5739,-0.5497,-0.5339,0.0,0.0,0.0,0.0,0.0,0.0,0.0,0.0,0.0,0.0,0.0,0.0,0.0,0.0,0.0,0.0,0.0,0.0,0.0,0.0,0.0,0.0,0.0,0.0,0.0,0.0,0.0,0.0,0.0,0.0,0.0,0.0,0.0,0.0,0.0,0.0,0.0,0.0,0.0,0.0,0.0,0.0,0.0,0.0,0.0,0.0,0.0,0.0,0.0,0.0,0.0,0.0,0.0,0.0,0.0,0.0,0.0,0.0,0.0,0.0,0.0,0.0,0.0,0.0,0.0,0.0,0.0,0.0,0.0,0.0,0.0,0.0,0.0,0.0,0.0,0.0,0.0,0.0,0.0,0.0,0.0,0.0,0.0,0.0,0.0,0.0,0.0,0.0,0.0,0.0,0.0,0.0,0.0,0.0,0.0,0.0,0.0,0.0,0.0,0.0,0.0,0.0,0.0,0.0,0.0,0.0,0.0,0.0,-0.7171,-0.6718,-0.6448,-0.6143,-0.5821,-0.5485,-0.5314,0.0,0.0,0.0,0.0,0.0,0.0,0.0,0.0,0.0,0.0,0.0,0.0,0.0,0.0,0.0,0.0,0.0,0.0,0.0,0.0,0.0,0.0,0.0,0.0,0.0,0.0,0.0,0.0,0.0,0.0,0.0,0.0,0.0,0.0,0.0,0.0,0.0,0.0,0.0,0.0,0.0,0.0,0.0,0.0,0.0,0.0,0.0,0.0,0.0,0.0,0.0,0.0,0.0,0.0,0.0,0.0,0.0,0.0,0.0,0.0,0.0,0.0,0.0,0.0,0.0,0.0,0.0,0.0,0.0,0.0,0.0,0.0,0.0,0.0,0.0,0.0,0.0,0.0,0.0,0.0,0.0,0.0,0.0,0.0,0.0,0.0,0.0,0.0,0.0,0.0,0.0,0.0,0.0,0.0,0.0,0.0,0.0,0.0,0.0,0.0,0.0,0.0,0.0,0.0,0.0,0.0,0.0,0.0,0.0,-0.7044,-0.6696,-0.6399,-0.6145,-0.579,-0.5578,0.0,0.0,0.0,0.0,0.0,0.0,0.0,0.0,0.0,0.0,0.0,0.0,0.0,0.0,0.0,0.0,0.0,0.0,0.0,0.0,0.0,0.0,0.0,0.0,0.0,0.0,0.0,0.0,0.0,0.0,0.0,0.0,0.0,0.0,0.0,0.0,0.0,0.0,0.0,0.0,0.0,0.0,0.0,0.0,0.0,0.0,0.0,0.0,0.0,0.0,0.0,0.0,0.0,0.0,0.0,0.0,0.0,0.0,0.0,0.0,0.0,0.0,0.0,0.0,0.0,0.0,0.0,0.0,0.0,0.0,0.0,0.0,0.0,0.0,0.0,0.0,0.0,0.0,0.0,0.0,0.0,0.0,0.0,0.0,0.0,0.0,0.0,0.0,0.0,0.0,0.0,0.0,0.0,0.0,0.0,0.0,0.0,0.0,0.0,0.0,0.0,0.0,0.0,0.0,0.0,0.0,0.0,0.0,0.0,-0.7537,-0.7151,-0.6816,-0.6564,-0.6227,-0.5976,-0.5896,0.0,0.0,0.0,0.0,0.0,0.0,0.0,0.0,0.0,0.0,0.0,0.0,0.0,0.0,0.0,0.0,0.0,0.0,0.0,0.0,0.0,0.0,0.0,0.0,0.0,0.0,0.0,0.0,0.0,0.0,0.0,0.0,0.0,0.0,0.0,0.0,0.0,0.0,0.0,0.0,0.0,0.0,0.0,0.0,0.0,0.0,0.0,0.0,0.0,0.0,0.0,0.0,0.0,0.0,0.0,0.0,0.0,0.0,0.0,0.0,0.0,0.0,0.0,0.0,0.0,0.0,0.0,0.0,0.0,0.0,0.0,0.0,0.0,0.0,0.0,0.0,0.0,0.0,0.0,0.0,0.0,0.0,0.0,0.0,0.0,0.0,0.0,0.0,0.0,0.0,0.0,0.0,0.0,0.0,0.0,0.0,0.0,0.0,0.0,0.0,0.0,0.0,0.0,0.0,0.0,0.0,0.0,0.0,-0.8131,-0.776,-0.7395,-0.7074,-0.6774,-0.6515,0.0,0.0,0.0,0.0,0.0,0.0,0.0,0.0,0.0,0.0,0.0,0.0,0.0,0.0,0.0,0.0,0.0,0.0,0.0,0.0,0.0,0.0,0.0,0.0,0.0,0.0,0.0,0.0,0.0,0.0,0.0,0.0,0.0,0.0,0.0,0.0,0.0,0.0,0.0,0.0,0.0,0.0,0.0,0.0,0.0,0.0,0.0,0.0,0.0,0.0,0.0,0.0,0.0,0.0,0.0,0.0,0.0,0.0,0.0,0.0,0.0,0.0,0.0,0.0,0.0,0.0,0.0,0.0,0.0,0.0,0.0,0.0,0.0,0.0,0.0,0.0,0.0,0.0,0.0,0.0,0.0,0.0,0.0,0.0,0.0,0.0,0.0,0.0,0.0,0.0,0.0,0.0,0.0,0.0,0.0,0.0,0.0,0.0,0.0,0.0,0.0,0.0,0.0,0.0,0.0,0.0,0.0,0.0,0.0,-0.8517,-0.8343,-0.8056,-0.7677,-0.7177,-0.6833,0.0,0.0,0.0,0.0,0.0,0.0,0.0,0.0,0.0,0.0,0.0,0.0,0.0,0.0,0.0,0.0,0.0,0.0,0.0,0.0,0.0,0.0,0.0,0.0,0.0,0.0,0.0,0.0,0.0,0.0,0.0,0.0,0.0,0.0,0.0,0.0,0.0,0.0,0.0,0.0,0.0,0.0,0.0,0.0,0.0,0.0,0.0,0.0,0.0,0.0,0.0,0.0,0.0,0.0,0.0,0.0,0.0,0.0,0.0,0.0,0.0,0.0,0.0,0.0,0.0,0.0,0.0,0.0,0.0,0.0,0.0,0.0,0.0,0.0,0.0,0.0,0.0,0.0,0.0,0.0,0.0,0.0,0.0,0.0,0.0,0.0,0.0,0.0,0.0,0.0,0.0,0.0,0.0,0.0,0.0,0.0,0.0,0.0,0.0,0.0,0.0,0.0,0.0,0.0,0.0,0.0,0.0,0.0,-0.7925,-0.8389,-0.8521,-0.8428,-0.8063,-0.7682,-0.7294,0.0,0.0,0.0,0.0,0.0,0.0,0.0,0.0,0.0,0.0,0.0,0.0,0.0,0.0,0.0,0.0,0.0,0.0,0.0,0.0,0.0,0.0,0.0,0.0,0.0,0.0,0.0,0.0,0.0,0.0,0.0,0.0,0.0,0.0,0.0,0.0,0.0,0.0,0.0,0.0,0.0,0.0,0.0,0.0,0.0,0.0,0.0,0.0,0.0,0.0,0.0,0.0,0.0,0.0,0.0,0.0,0.0,0.0,0.0,0.0,0.0,0.0,0.0,0.0,0.0,0.0,0.0,0.0,0.0,0.0,0.0,0.0,0.0,0.0,0.0,0.0,0.0,0.0,0.0,0.0,0.0,0.0,0.0,0.0,0.0,0.0,0.0,0.0,0.0,0.0,0.0,0.0,0.0,0.0,0.0,0.0,0.0,0.0,0.0,0.0,0.0,0.0,0.0,0.0,0.0,0.0,0.0,0.0,-0.7824,-0.7973,-0.8403,-0.8494,-0.8257,-0.8108,-0.7701,0.0,0.0,0.0,0.0,0.0,0.0,0.0,0.0,0.0,0.0,0.0,0.0,0.0,0.0,0.0,0.0,0.0,0.0,0.0,0.0,0.0,0.0,0.0,0.0,0.0,0.0,0.0,0.0,0.0,0.0,0.0,0.0,0.0,0.0,0.0,0.0,0.0,0.0,0.0,0.0,0.0,0.0,0.0,0.0,0.0,0.0,0.0,0.0,0.0,0.0,0.0,0.0,0.0,0.0,0.0,0.0,0.0,0.0,0.0,0.0,0.0,0.0,0.0,0.0,0.0,0.0,0.0,0.0,0.0,0.0,0.0,0.0,0.0,0.0,0.0,0.0,0.0,0.0,0.0,0.0,0.0,0.0,0.0,0.0,0.0,0.0,0.0,0.0,0.0,0.0,0.0,0.0,0.0,0.0,0.0,0.0,0.0,0.0,0.0,0.0,0.0,0.0,0.0,0.0,0.0,0.0,0.0,0.0,-0.7563,-0.7842,-0.7996,-0.7999,-0.7832,-0.7755,-0.742,0.0,0.0,0.0,0.0,0.0,0.0,0.0,0.0,0.0,0.0,0.0,0.0,0.0,0.0,0.0,0.0,0.0,0.0,0.0,0.0,0.0,0.0,0.0,0.0,0.0,0.0,0.0,0.0,0.0,0.0,0.0,0.0,0.0,0.0,0.0,0.0,0.0,0.0,0.0,0.0,0.0,0.0,0.0,0.0,0.0,0.0,0.0,0.0,0.3295,0.0,0.0,0.0,0.0,0.0,0.0,0.0,0.0,0.0,0.0,0.0,0.0,0.0,0.0,0.0,0.0,0.0,0.0,0.0,0.0,0.0,0.0,0.0,0.0,0.0,0.0,0.0,0.0,0.0,0.0,0.0,0.0,0.0,0.0,0.0,0.0,0.0,0.0,0.0,0.0,0.0,0.0,0.0,0.0,0.0,0.0,0.0,0.0,0.0,0.0,0.0,0.0,0.0,0.0,0.0,0.0,0.0,0.0,0.0,-0.7074,-0.7234,-0.737,-0.7352,-0.7188,-0.6997,-0.6761,0.0,0.0,0.0,0.0,0.0,0.0,0.0,0.0,0.0,0.0,0.0,0.0,0.0,0.0,0.0,0.0,0.0,0.0,0.0,0.0,0.0,0.0,0.0,0.0,0.0,0.0,0.0,0.0,0.0,0.0,0.0,0.0,0.0,0.0,0.0,0.0,0.0,0.0,0.0,0.0,0.0,0.0,0.0,0.0,0.0,0.0,0.0,0.0,0.0,0.0,0.0,0.0,0.0,0.0,0.0,0.0,0.0,0.0,0.0,0.0,0.0,0.0,0.0,0.0,0.0,0.0,0.0,0.0,0.0,0.0,0.0,0.0,0.0,0.0,0.0,0.0,0.0,0.0,0.0,0.0,0.0,0.0,0.0,0.0,0.0,0.0,0.0,0.0,0.0,0.0,0.0,0.0,0.0,0.0,0.0,0.0,0.0,0.0,0.0,0.0,0.0,0.0,0.0,0.0,0.0,0.0,0.0,-0.6409,-0.6522,-0.6502,-0.6683,-0.6707,-0.6495,-0.6199,-0.598,-0.5873,0.0,0.0,0.0,0.0,0.0,0.0,0.0,0.0,0.0,0.0,0.0,0.0,0.0,0.0,0.0,0.0,0.0,0.0,0.0,0.0,0.0,0.0,0.0,0.0,0.0,0.0,0.0,0.0,0.0,0.0,0.0,0.0,0.0,0.0,0.0,0.0,0.0,0.0,0.1481,0.2253,0.0,0.0,0.0,0.0,0.0,0.0,0.0,0.0,0.3713,0.0,0.0,0.0,0.0,0.0,0.0,0.0,0.0,0.0,0.0,0.0,0.0,0.0,0.0,0.0,0.0,0.0,0.0,0.0,0.0,0.0,0.0,0.0,0.0,0.0,0.0,0.0,0.0,0.0,0.0,0.0,0.0,0.0,0.0,0.0,0.0,0.0,0.0,0.0,0.0,0.0,0.0,0.0,0.0,0.0,0.0,0.0,0.0,0.0,0.0,0.0,0.0,0.0,0.0,0.0,0.0,-0.5795,-0.6057,-0.6132,-0.6028,-0.6213,-0.6229,-0.603,-0.5851,-0.5494,-0.4968,0.0,0.0,0.0,0.0,0.0,0.0,0.0,0.0,0.0,0.0,0.0,0.0,0.0,0.0,0.0,0.0,0.0,0.0,0.0,0.0,0.0,0.0,0.0,0.0,0.0,0.0,0.0,0.0,0.0,0.0,0.0,0.0,0.0,0.0,0.0,0.0,0.0,0.0,0.0,0.293,0.3322,0.0,0.0,0.0,0.0,0.0,0.0,0.0,0.0,0.3808,0.0,0.0,0.0,0.0,0.0,0.0,0.0,0.0,0.0,0.0,0.0,0.0,0.0,0.0,0.0,0.0,0.0,0.0,0.0,0.0,0.0,0.0,0.0,0.0,0.0,0.0,0.0,0.0,0.0,0.0,0.0,0.0,0.0,0.0,0.0,0.0,0.0,0.0,0.0,0.0,0.0,0.0,0.0,0.0,0.0,0.0,0.0,0.0,0.0,0.0,0.0,0.0,0.0,0.0,0.0,-0.5439,-0.5684,-0.5725,-0.5495,-0.5584,-0.5592,-0.548,-0.521,-0.4892,0.0,0.0,0.0,0.0,0.0,0.0,0.0,0.0,0.0,0.0,0.0,0.0,0.0,0.0,0.0,0.0,0.0,0.0,0.0,0.0,0.0,0.0,0.0,0.0,0.0,0.0,0.0,0.0,0.0,0.0,0.0,0.0,0.0,0.0,0.0,0.0,0.0,0.0,0.0,0.0,0.3378,0.363,0.3869,0.0,0.0,0.0,0.0,0.0,0.0,0.4014,0.4072,0.0,0.0,0.0,0.0,0.0,0.0,0.0,0.0,0.0,0.0,0.0,0.0,0.0,0.0,0.0,0.0,0.0,0.0,0.0,0.0,0.0,0.0,0.0,0.0,0.0,0.0,0.0,0.0,0.0,0.0,0.0,0.0,0.0,0.0,0.0,0.0,0.0,0.0,0.0,0.0,0.0,0.0,0.0,0.0,0.0,0.0,0.0,0.0,0.0,0.0,0.0,0.0,0.0,0.0,0.0,-0.5035,-0.5313,-0.5314,-0.5036,-0.504,-0.5042,-0.5005,-0.4678,-0.4395,0.0,0.0,0.0,0.0,0.0,0.0,0.0,0.0,0.0,0.0,0.0,0.0,0.0,0.0,0.0,0.0,0.0,0.0,0.0,0.0,0.0,0.0,0.0,0.0,0.0,0.0,0.0,0.0,0.0,0.0,0.0,0.0,0.0,0.0,0.0,0.0,0.0,0.0,0.0,0.0,0.0,0.3977,0.4122,0.421,0.0,0.0,0.0,0.0,0.4247,0.4283,0.0,0.0,0.0,0.0,0.0,0.0,0.0,0.0,0.0,0.0,0.0,0.0,0.0,0.0,0.0,0.0,0.0,0.0,0.0,0.0,0.0,0.0,0.0,0.0,0.0,0.0,0.0,0.0,0.0,0.0,0.0,0.0,0.0,0.0,0.0,0.0,0.0,0.0,0.0,0.0,0.0,0.0,0.0,0.0,0.0,0.0,0.0,0.0,0.0,0.0,0.0,0.0,0.0,0.0,0.0,0.0,-0.4758,-0.4892,-0.4907,-0.4768,-0.4882,-0.4865,-0.4745,-0.4586,-0.4358,0.0,0.0,0.0,0.0,0.0,0.0,0.0,0.0,0.0,0.0,0.0,0.0,0.0,0.0,0.0,0.0,0.0,0.0,0.0,0.0,0.0,0.0,0.0,0.0,0.0,0.0,0.0,0.0,0.0,0.0,0.0,0.0,0.0,0.0,0.0,0.0,0.0,0.0,0.0,0.0,0.0,0.446,0.461,0.4539,0.446,0.0,0.0,0.0,0.4464,0.4563,0.0,0.0,0.0,0.0,0.0,0.0,0.0,0.0,0.0,0.0,0.0,0.0,0.0,0.0,0.0,0.0,0.0,0.0,0.0,0.0,0.0,0.0,0.0,0.0,0.0,0.0,0.0,0.0,0.0,0.0,0.0,0.0,0.0,0.0,0.0,0.0,0.0,0.0,0.0,0.0,0.0,0.0,0.0,0.0,0.0,0.0,0.0,0.0,0.0,0.0,0.0,0.0,0.0,0.0,0.0,-0.4788,-0.4552,-0.477,-0.4828,-0.4708,-0.4755,-0.4758,-0.4691,-0.4379,-0.4151,0.0,0.0,0.0,0.0,0.0,0.0,0.0,0.0,0.0,0.0,0.0,0.0,0.0,0.0,0.0,0.0,0.0,0.0,0.0,0.0,0.0,0.0,0.0,0.0,0.0,0.0,0.0,0.0,0.0,0.0,0.0,0.0,0.0,0.0,0.0,0.0,0.0,0.0,0.0,0.0,0.0,0.0,0.4789,0.4762,0.0,0.0,0.0,0.4765,0.4875,0.0,0.0,0.0,0.0,0.0,0.0,0.0,0.0,0.0,0.0,0.0,0.0,0.0,0.0,0.0,0.0,0.0,0.0,0.0,0.0,0.0,0.0,0.0,0.0,0.0,0.0,0.0,0.0,0.0,0.0,0.0,0.0,0.0,0.0,0.0,0.0,0.0,0.0,0.0,0.0,0.0,0.0,0.0,0.0,0.0,0.0,0.0,0.0,0.0,0.0,0.0,0.0,0.0,0.0,0.0,0.0,0.0,-0.4374,-0.4645,-0.4726,-0.4579,-0.4593,-0.455,-0.4469,-0.4062,0.0,0.0,0.0,0.0,0.0,0.0,0.0,0.0,0.0,0.0,0.0,0.0,0.0,0.0,0.0,0.0,0.0,0.0,0.0,0.0,0.0,0.0,0.0,0.0,0.0,0.0,0.0,0.0,0.0,0.0,0.0,0.0,0.0,0.0,0.0,0.0,0.0,0.0,0.0,0.0,0.0,0.0,0.483,0.5066,0.5166,0.5242,0.0,0.0,0.5294,0.55,0.5543,0.5656,0.0,0.0,0.0,0.0,0.0,0.0,0.0,0.0,0.0,0.0,0.0,0.0,0.0,0.0,0.0,0.0,0.0,0.0,0.0,0.0,0.0,0.0,0.0,0.0,0.0,0.0,0.0,0.0,0.0,0.0,0.0,0.0,0.0,0.0,0.0,0.0,0.0,0.0,0.0,0.0,0.0,0.0,0.0,0.0,0.0,0.0,0.0,0.0,0.0,0.0,0.0,0.0,0.0,0.0,0.0,-0.4223,-0.4404,-0.4439,-0.4234,-0.4248,-0.4109,-0.386,-0.3583,-0.3384,0.0,0.0,0.0,0.0,0.0,0.0,0.0,0.0,0.0,0.0,0.0,0.0,0.0,0.0,0.0,0.0,0.0,0.0,0.0,0.0,0.0,0.0,0.0,0.0,0.0,0.0,0.0,0.0,0.0,0.0,0.0,0.0,0.0,0.0,0.0,0.0,0.0,0.0,0.0,0.0,0.0,0.5419,0.5616,0.5917,0.6172,0.0,0.0,0.6189,0.6392,0.631,0.6314,0.66,0.0,0.0,0.0,0.0,0.0,0.0,0.0,0.0,0.0,0.0,0.0,0.0,0.0,0.0,0.0,0.0,0.0,0.0,0.0,0.0,0.0,0.0,0.0,0.0,0.0,0.0,0.0,0.0,0.0,0.0,0.0,0.0,0.0,0.0,0.0,0.0,0.0,0.0,0.0,0.0,0.0,0.0,0.0,0.0,0.0,0.0,0.0,0.0,0.0,0.0,0.0,0.0,0.0,-0.4085,-0.4076,-0.4354,-0.4408,-0.4193,-0.4121,-0.3938,-0.3683,-0.3388,-0.3126,0.0,0.0,0.0,0.0,0.0,0.0,0.0,0.0,0.0,0.0,0.0,0.0,0.0,0.0,0.0,0.0,0.0,0.0,0.0,0.0,0.0,0.0,0.0,0.0,0.0,0.0,0.0,0.0,0.322,0.3339,0.3512,0.0,0.0,0.0,0.0,0.0,0.0,0.0,0.0,0.0,0.0,0.5687,0.5977,0.6398,0.0,0.0,0.6941,0.6984,0.7268,0.6987,0.6912,0.7409,0.7315,0.0,0.0,0.0,0.0,0.0,0.0,0.0,0.0,0.0,0.0,0.0,0.0,0.0,0.0,0.0,0.0,0.0,0.0,0.0,0.0,0.0,0.0,0.0,0.0,0.0,0.0,0.0,0.0,0.0,0.0,0.0,0.0,0.0,0.0,0.0,0.0,0.0,0.0,0.0,0.0,0.0,0.0,0.0,0.0,0.0,0.0,0.0,0.0,0.0,0.0,0.0,0.0,-0.3993,-0.3998,-0.4257,-0.4259,-0.3968,-0.3816,-0.3547,-0.3151,-0.2837,-0.2583,0.0,0.0,0.0,0.0,0.0,0.0,0.0,0.0,0.0,0.0,0.0,0.0,0.0,0.0,0.0,0.0,0.0,0.0,0.0,0.0,0.0,0.0,0.0,0.0,0.0,0.0,0.0,0.0,0.3453,0.3549,0.3643,0.0,0.0,0.0,0.0,0.0,0.0,0.0,0.0,0.0,0.0,0.615,0.6487,0.706,0.7575,0.7838,0.7822,0.7894,0.8201,0.7863,0.7727,0.8237,0.0,0.0,0.0,0.0,0.0,0.0,0.0,0.0,0.0,0.0,0.0,0.0,0.0,0.0,0.0,0.0,0.0,0.0,0.0,0.0,0.0,0.0,0.0,0.0,0.0,0.0,0.0,0.0,0.0,0.0,-0.6399,0.0,0.0,0.0,0.0,0.0,0.0,0.0,0.0,0.0,0.0,0.0,0.0,0.0,0.0,0.0,0.0,0.0,0.0,0.0,0.0,0.0,0.0,0.0,-0.4,-0.4123,-0.3947,-0.3444,-0.323,-0.2768,-0.2083,-0.1853,-0.1568,-0.1262,0.0,0.0,0.0,0.0,0.0,0.0,0.0,0.0,0.0,0.0,0.0,0.0,0.0,0.0,0.0,0.0,0.0,0.0,0.0,0.0,0.0,0.0,0.0,0.0,0.0,0.0,0.3746,0.3782,0.3778,0.0,0.0,0.0,0.0,0.0,0.0,0.0,0.0,0.0,0.0,0.6013,0.691,0.7226,0.8009,0.8672,0.908,0.9038,0.9032,0.9231,0.9023,0.8896,0.0,0.0,0.0,0.0,0.0,0.0,0.0,0.0,0.0,0.0,0.0,0.0,0.0,0.0,0.0,0.0,0.0,0.0,0.0,0.0,0.0,0.0,0.0,0.0,0.0,0.0,0.0,-0.6178,-0.6012,0.0,0.0,0.0,0.0,0.0,0.0,0.0,0.0,0.0,0.0,0.0,-0.4283,-0.4181,0.0,0.0,0.0,0.0,0.0,0.0,0.0,0.0,0.0,0.0,0.0,0.0,-0.3842,-0.3798,-0.3899,-0.368,-0.3149,-0.2858,-0.2392,-0.1748,-0.1536,-0.1281,-0.0946,0.0,0.0,0.0,0.0,0.0,0.0,0.0,0.0,0.0,0.0,0.0,0.0,0.0,0.0,0.0,0.0,0.0,0.0,0.0,0.0,0.0,0.0,0.0,0.0,0.0,0.3703,0.0,0.0,0.0,0.0,0.0,0.0,0.0,0.0,0.0,0.0,0.0,0.5325,0.5742,0.668,0.7407,0.7592,0.853,0.9278,0.0,0.0,0.0,0.0,0.0,0.0,0.0,0.0,0.0,0.0,0.0,0.0,0.0,0.0,0.9432,0.8644,0.8498,0.8498,0.8504,0.0,0.0,0.0,0.0,0.0,0.0,0.0,0.0,0.0,0.0,0.0,0.0,0.0,0.0,0.0,0.0,-0.5592,0.0,0.0,0.0,0.0,0.0,0.0,0.0,0.0,-0.4584,-0.4468,-0.4425,-0.4348,-0.4277,0.0,-0.424,-0.4109,0.0,0.0,0.0,0.0,0.0,0.0,0.0,0.0,-0.3572,-0.3524,-0.3477,-0.3173,-0.2642,-0.2289,-0.1826,-0.1218,-0.0967,-0.0763,-0.0584,-0.055,-0.0546,0.0,0.0,0.0,0.0,0.0,0.0,0.0,0.0,0.0,0.0,0.0,0.0,0.0,0.0,0.0,0.0,0.0,0.0,0.0,0.0,0.0,0.0,0.0,0.3812,0.0,0.0,0.0,0.0,0.0,0.0,0.0,0.0,0.0,0.5403,0.5762,0.6158,0.6499,0.7414,0.8133,0.8366,0.0,0.0,0.0,0.0,0.0,0.0,0.0,1.0171,1.0384,1.028,1.0294,1.0659,1.0905,1.1082,1.1182,0.0,0.0,0.9647,0.9433,0.9433,0.9419,0.9558,0.9724,0.993,1.0285,1.0619,0.0,0.0,0.0,0.0,0.0,0.0,0.0,0.0,-0.5507,-0.5366,0.0,-0.5241,0.0,0.0,0.0,0.0,0.0,0.0,0.0,0.0,-0.4681,-0.4729,-0.4908,-0.4896,-0.4828,-0.4711,-0.4694,-0.4446,-0.4006,-0.3993,0.0,0.0,0.0,0.0,0.0,0.0,-0.3161,-0.3152,-0.2915,-0.2475,-0.1906,-0.1573,-0.1071,-0.0421,-0.0154,-0.0084,-0.0196,-0.0204,-0.0267,-0.0372,-0.0262,0.0,0.0,0.0,0.0,0.0,0.0,0.0,0.0,0.0,0.0,0.0,0.0,0.0,0.0,0.0,0.0,0.0,0.0,0.0,0.0,0.3741,0.0,0.0,0.0,0.0,0.0,0.0,0.0,0.0,0.0,0.0,0.5921,0.6662,0.7254,0.7284,0.0,0.0,0.0,0.0,1.0863,1.1233,1.1362,1.1409,1.1409,1.1415,1.1409,1.1412,0.0,0.0,1.1855,1.1933,1.2015,1.2271,1.2305,1.1971,1.0894,1.0667,1.0646,1.0646,1.0673,1.0845,1.1299,1.1439,1.1615,-0.7708,0.0,0.0,0.0,0.0,-0.5933,-0.5717,-0.5444,-0.5543,-0.535,-0.4961,-0.5043,0.0,0.0,0.0,0.0,0.0,0.0,-0.4915,-0.5007,-0.4966,-0.4986,-0.5039,-0.5039,-0.4972,-0.4839,-0.4704,-0.4434,-0.4077,-0.3923,-0.368,-0.3309,0.0,0.0,0.0,0.0,-0.2638,-0.249,-0.2233,-0.1884,-0.1475,-0.1099,-0.0695,-0.0267,-0.0084,-0.0014,-0.0056,-0.0069,-0.0082,-0.012,-0.0078,0.0,0.0,0.0,0.0,0.0,0.0,0.0,0.0,0.0,0.0,0.0,0.0,0.0,0.0,0.0,0.0,0.0,0.0,0.0,0.3986,0.4054,0.4109,0.0,0.0,0.0,0.0,0.0,0.0,0.0,0.0,0.0,0.8081,0.819,0.8425,0.0,0.0,1.0059,1.0136,1.0703,1.1222,1.1472,0.0,0.0,0.0,1.1917,1.1984,1.1795,1.2109,1.2435,1.2516,1.2698,1.2859,1.2939,1.2946,1.2826,1.2532,1.2091,1.1841,1.1817,1.2007,1.2206,1.2368,1.2538,1.2739,-0.7335,-0.6983,-0.6523,-0.6103,-0.5751,-0.5784,-0.5608,-0.5299,-0.5449,-0.5288,-0.4912,-0.4987,-0.493,-0.4736,-0.4827,0.0,0.0,0.0,-0.509,-0.5314,-0.5303,-0.5325,-0.5359,-0.5299,-0.5124,-0.4854,-0.4575,-0.4182,-0.3709,-0.3442,-0.3048,-0.2538,0.0,0.0,-0.2227,-0.2059,-0.191,-0.1786,-0.1531,-0.1271,-0.0998,-0.0624,-0.0319,-0.0126,-0.0028,0.0,0.0,0.0,0.0,0.0,0.0,0.0,0.0,0.0,0.0,0.0,0.0,0.0,0.0,0.0,0.0,0.0,0.0,0.1341,0.0,0.0,0.0,0.0,0.3648,0.395,0.4274,0.424,0.0,0.0,0.0,0.0,0.0,0.0,0.0,0.7211,0.8103,0.8925,0.9604,0.979,0.9884,0.9967,1.0459,1.0826,1.0883,0.0,1.1679,1.2033,1.2181,1.2301,1.2397,1.2545,1.2599,1.245,1.2698,1.2985,1.3113,1.3267,1.3393,1.3527,1.3561,1.3561,1.3561,1.3253,1.2919,1.27,1.2825,1.2991,1.3092,1.3247,1.3387,-0.6721,-0.6566,-0.648,-0.6217,-0.5808,-0.5793,-0.5554,-0.5178,-0.5353,-0.5253,-0.4975,-0.5076,-0.5124,-0.5128,-0.5139,0.0,-0.5133,-0.516,-0.5322,-0.5624,-0.5616,-0.5677,-0.5799,-0.5586,-0.5241,-0.4762,-0.4356,-0.3778,-0.3054,-0.271,-0.2223,-0.1588,-0.1954,-0.201,-0.1703,-0.135,-0.1161,-0.1132,-0.0896,-0.068,-0.0452,-0.0152,0.0,0.0,0.0,0.0,0.0,0.0,0.0,0.0,0.0,0.0,0.0,0.0,0.0,0.0,0.0,0.0,0.0,0.0,0.0,0.0,0.0,0.0,0.0,0.0,0.0,0.0,0.4043,0.0,0.4511,0.4382,0.0,0.0,0.0,0.529,0.5997,0.664,0.7403,0.8366,0.0,0.0,0.0,0.0,1.143,1.0901,1.1131,1.1457,1.1629,1.1863,1.22,1.2684,1.277,1.2884,1.3066,1.318,1.3207,1.324,1.3273,1.336,1.3567,1.3626,1.3774,1.4001,1.4103,1.4089,1.4103,1.4015,1.3915,1.3367,1.3287,1.3347,1.358,1.3626,1.3706,-0.6713,-0.6207,-0.6198,-0.604,-0.5795,-0.5794,-0.574,-0.5627,-0.5679,-0.5617,-0.545,-0.5463,-0.5428,-0.5342,-0.5442,-0.5477,-0.5501,-0.5593,-0.5681,-0.5755,-0.5853,-0.585,-0.571,-0.5513,-0.5132,-0.4572,-0.4052,-0.3405,-0.2645,-0.2252,-0.1786,-0.1223,-0.1015,-0.0945,-0.0959,-0.0868,-0.0783,-0.0667,-0.0504,-0.0332,-0.0145,-0.0047,0.0,0.0,0.0,0.0,0.0,0.0,0.0,0.0,0.0,0.0,0.0,0.0115,0.0,0.0,0.0,0.0,0.0,0.0,0.0,0.0,0.0,0.2367,0.2749,0.0,0.3682,0.0,0.4361,0.4646,0.4796,0.4912,0.0,0.0,0.5626,0.6103,0.6634,0.7624,0.8507,0.908,0.9969,1.0758,1.1301,1.1629,1.1859,1.1908,1.2005,1.207,1.2125,1.2178,1.2349,1.2717,1.2784,1.2898,1.3166,1.338,1.3587,1.3841,1.3895,1.3901,1.3968,1.3981,1.4008,1.4075,1.4109,1.4109,1.4109,1.4109,1.4048,1.3915,1.3881,1.3915,1.3968,1.3975,1.4001,-0.6709,-0.636,-0.636,-0.6308,-0.6173,-0.5976,-0.5858,-0.5806,-0.5856,-0.582,-0.5681,-0.5681,-0.5654,-0.5579,-0.5647,-0.5722,-0.5771,-0.5864,-0.5939,-0.6028,-0.5975,-0.5844,-0.5632,-0.5274,-0.4749,-0.4077,-0.3445,-0.2741,-0.202,-0.1616,-0.1195,-0.0748,-0.0509,-0.0398,-0.0392,-0.0383,-0.0349,-0.0286,-0.0202,-0.0116,0.0,0.0,0.0,0.0,0.0,0.0,0.0,0.0,0.0,0.0,0.0,0.0028,0.0082,0.0211,0.0359,0.0,0.0,0.0,0.0,0.0,0.0,0.0,0.0,0.0,0.0,0.0,0.4158,0.0,0.4668,0.0,0.4881,0.5129,0.5414,0.5719,0.6395,0.7083,0.7772,0.8739,0.9528,1.0106,1.077,1.1349,1.1729,1.1949,1.2136,1.2266,1.2305,1.2305,1.2305,1.2305,1.2423,1.273,1.2784,1.2945,1.3313,1.3493,1.3706,1.4001,1.3975,1.3867,1.3888,1.3874,1.3867,1.3874,1.4001,1.4109,1.4109,1.4109,1.4109,1.4109,1.4109,1.4109,1.4109,1.4109,1.4109,-0.6715,-0.6722,-0.6722,-0.6722,-0.6647,-0.6262,-0.6022,-0.5925,-0.6018,-0.5981,-0.5861,-0.5879,-0.5879,-0.5879,-0.5879,-0.5935,-0.602,-0.6004,-0.6091,-0.6235,-0.596,-0.5692,-0.5462,-0.4876,-0.4183,-0.3455,-0.2678,-0.1936,-0.1289,-0.0918,-0.0568,-0.0275,-0.0274,-0.0182,0.0,0.0,0.0,0.0,0.0,0.0,0.0,0.0,0.0,0.0,0.0,0.0,0.0,0.0,0.0,0.0,0.0,0.007,0.0225,0.0383,0.0618,0.0,0.1395,0.0,0.0,0.0,0.0,0.0,0.0,0.0,0.0,0.4329,0.4649,0.4919,0.495,0.4967,0.4984,0.5313,0.573,0.6299,0.7153,0.8071,0.9004,0.977,1.0471,1.1113,1.1475,1.179,1.2006,1.2206,1.2305,1.2305,1.2305,1.2305,1.2305,1.2305,1.241,1.2716,1.2776,1.2958,1.3327,1.3487,1.3634,1.3874,1.3754,1.3574,1.3547,1.3553,1.3553,1.3573,1.3774,1.3976,1.4036,1.4021,1.4035,1.4068,1.4109,1.4109,1.4109,1.4109,1.4109,-0.6814,-0.6722,-0.6722,-0.6722,-0.6692,-0.659,-0.6556,-0.6525,-0.643,-0.6328,-0.6214,-0.6211,-0.6195,-0.6195,-0.6195,-0.6228,-0.6236,-0.6018,-0.5954,-0.596,-0.5592,-0.5223,-0.4837,-0.425,-0.354,-0.2688,-0.2066,-0.1401,-0.0755,-0.0512,-0.0282,-0.0075,-0.0055,-0.0036,0.0,0.0,0.0,0.0,0.0,0.0,0.0,0.0,0.0,0.0,0.0,0.0,0.0,0.0,0.0,0.0,0.0,0.0,0.0,0.0,0.0,0.0,0.0,0.0,0.0,0.0,0.0,0.0,0.4649,0.4665,0.4427,0.465,0.4889,0.5046,0.5219,0.5361,0.5454,0.5925,0.646,0.7035,0.7785,0.8611,0.9555,1.0408,1.107,1.1448,1.189,1.2176,1.2218,1.2286,1.2305,1.2305,1.2305,1.2305,1.2305,1.2305,1.2325,1.2392,1.2623,1.2823,1.2931,1.3153,1.3287,1.336,1.334,1.3273,1.3273,1.3273,1.3273,1.3273,1.332,1.3453,1.366,1.3686,1.3794,1.4035,1.4103,1.4109,1.4109,1.4109,1.4109,-0.6968,0.0,-0.6897,-0.6894,0.0,-0.6897,-0.6897,-0.6902,-0.6678,-0.6522,-0.6402,-0.633,-0.628,-0.628,-0.628,-0.6238,-0.6099,-0.5867,-0.565,-0.5431,-0.4946,-0.4479,-0.4034,-0.3351,-0.2686,-0.2042,-0.1394,-0.0864,-0.0471,-0.0233,-0.0096,0.0,0.0,0.0,0.0,0.0,0.0,0.0,0.0,0.0,0.0,0.0,0.0,0.0,0.0,0.0,0.0,0.0,0.0,0.0,0.0,0.0,0.0,0.0,0.0,0.2213,0.2996,0.3629,0.407,0.4542,0.4867,0.5082,0.5312,0.5332,0.5072,0.5158,0.5308,0.543,0.5535,0.5665,0.5832,0.6367,0.6933,0.7554,0.8435,0.9337,1.0196,1.0955,1.1539,1.1867,1.2168,1.2305,1.2305,1.2305,1.2305,1.2305,1.2305,1.2305,1.2305,1.2305,1.2305,1.2311,1.243,1.2597,1.2783,1.2898,1.3046,1.3153,1.3106,1.3012,1.3006,1.3006,1.2999,1.3012,1.31,1.3247,1.338,1.35,1.3646,1.382,1.3981,1.4103,1.4109,1.4109,1.4109,-0.7117,-0.7117,-0.7117,-0.7117,-0.7117,-0.7117,-0.7117,-0.7078,0.0,0.0,0.0,-0.6409,-0.6341,-0.6321,-0.6337,-0.6181,-0.5902,-0.5612,-0.5262,-0.4866,-0.4185,-0.3622,-0.3155,-0.241,-0.1825,-0.1415,-0.0825,-0.0452,-0.0255,-0.0079,0.0,0.0,0.0,0.0,0.0,0.0,0.0,0.0,0.0,0.0,0.0,0.0,0.0,0.0,0.0,0.0,0.0,0.0,0.0015,0.0046,0.0216,0.0512,0.0925,0.1666,0.2413,0.3111,0.3904,0.4543,0.4973,0.5315,0.5551,0.5623,0.5797,0.581,0.5644,0.563,0.5677,0.5789,0.5863,0.597,0.6176,0.6773,0.741,0.8046,0.9074,1.0005,1.0812,1.1409,1.1879,1.2231,1.228,1.2305,1.2305,1.2305,1.2305,1.2305,1.2305,1.2305,1.2305,1.2305,1.2305,1.2311,1.2338,1.2417,1.263,1.2716,1.2811,1.2946,1.2838,1.2717,1.2722,1.2703,1.2703,1.2684,1.2905,1.3026,1.3126,1.3327,1.3527,1.3593,1.3881,1.4109,1.4109,1.4109,1.4109,-0.7117,-0.7117,-0.7117,-0.7117,-0.7117,-0.7117,-0.7117,-0.7082,-0.6945,-0.6789,-0.6668,-0.6671,-0.6583,-0.646,-0.646,-0.6271,-0.5883,-0.5334,-0.4868,0.0,-0.3448,-0.2764,-0.2332,-0.1727,-0.1197,-0.0746,-0.0452,-0.0236,0.0,0.0,0.0,0.0,0.0,0.0,0.0,0.0,0.0,0.0,0.0,0.0,0.0,0.0,0.0,0.0,0.0,0.0,0.0,0.0,0.0077,0.0262,0.0401,0.0758,0.1374,0.2135,0.2882,0.3652,0.4454,0.5045,0.5407,0.573,0.5996,0.616,0.6216,0.6096,0.5803,0.5772,0.5779,0.5806,0.6065,0.6308,0.6548,0.724,0.7998,0.876,0.9588,1.0419,1.1229,1.1669,1.2015,1.2268,1.2305,1.2305,1.2305,1.2305,1.2305,1.2305,1.2305,1.2305,1.2305,1.2305,1.2305,1.2305,1.2305,1.2318,1.2385,1.2371,1.2425,1.2412,1.2432,1.2405,1.2405,1.2405,1.2423,1.2378,1.2458,1.2559,1.2785,1.3066,1.3307,1.3513,1.3827,1.4069,1.4075,1.4109,1.4109,-0.7117,-0.7117,-0.7117,-0.7117,-0.7117,-0.7117,-0.7117,-0.7114,-0.7028,-0.6938,-0.6799,-0.6739,-0.6634,-0.6501,-0.6495,-0.6172,-0.555,-0.5065,-0.4365,-0.3507,-0.2684,-0.2,-0.1491,-0.0982,-0.0629,-0.0413,-0.0236,-0.0098,0.0,0.0,0.0,0.0,0.0,0.0,0.0,0.0,0.0,0.0,0.0,0.0,0.0,0.0,0.0,0.0,0.0,0.0,0.0,0.0113,0.0243,0.0405,0.0821,0.1307,0.1921,0.284,0.3671,0.437,0.5091,0.562,0.5904,0.6081,0.6205,0.6293,0.628,0.6245,0.6083,0.6069,0.6122,0.6215,0.6467,0.6787,0.7226,0.7888,0.8604,0.9401,1.0118,1.0794,1.1428,1.1818,1.2077,1.2268,1.2305,1.2305,1.2305,1.2305,1.2305,1.2305,1.2305,1.2305,1.2305,1.2305,1.2305,1.2305,1.2305,1.2305,1.2305,1.2305,1.2305,1.2305,1.2305,1.2305,1.2305,1.2305,1.2305,1.2305,1.2305,1.2358,1.2524,1.279,1.3046,1.3327,1.362,1.384,1.4021,1.4109,1.4109,-0.7117,-0.7117,-0.7117,-0.7117,-0.7117,-0.7117,-0.7117,-0.7117,-0.7117,-0.706,-0.6948,-0.683,-0.6715,-0.66,-0.6519,-0.6062,-0.533,-0.475,-0.386,-0.2746,-0.2,-0.1354,-0.0766,-0.0393,-0.0236,-0.0216,-0.0079,0.0,0.0,0.0,0.0,0.0,0.0,0.0,0.0,0.0,0.0,0.0,0.0,0.0,0.0,0.0,0.0,0.0,0.0,0.0034,0.0086,0.0257,0.048,0.0737,0.1346,0.1984,0.2602,0.3581,0.4423,0.5019,0.5589,0.6018,0.6277,0.628,0.628,0.628,0.628,0.6277,0.63,0.6358,0.6432,0.666,0.693,0.7357,0.7965,0.8585,0.9273,1.0005,1.0644,1.1211,1.1688,1.1954,1.2139,1.2286,1.2305,1.2305,1.2305,1.2305,1.2305,1.2305,1.2305,1.2305,1.2305,1.2305,1.2305,1.2305,1.2305,1.2305,1.2305,1.2305,1.2305,1.2305,1.2305,1.2305,1.2305,1.2305,1.2305,1.2305,1.2305,1.2318,1.2331,1.2577,1.2871,1.3106,1.338,1.3727,1.4028,1.4103,1.4109,-0.7117,-0.7117,-0.7117,-0.7117,-0.7117,-0.7117,-0.7117,-0.7117,-0.7117,-0.711,-0.7087,-0.708,-0.6989,-0.6836,-0.6541,-0.6056,-0.5385,-0.4373,-0.339,-0.2452,-0.1472,-0.0766,-0.0373,-0.0138,0.0,0.0,0.0,0.0,0.0,0.0,0.0,0.0,0.0,0.0,0.0,0.0,0.0,0.0,0.0,0.0,0.0,0.0,0.0,0.0,0.0,0.009,0.0271,0.047,0.0832,0.1375,0.1991,0.2692,0.3513,0.418,0.4841,0.5468,0.576,0.6018,0.6257,0.628,0.628,0.628,0.628,0.628,0.6296,0.647,0.6656,0.6922,0.7399,0.7955,0.8585,0.9306,1.0011,1.0625,1.1223,1.1713,1.1947,1.2157,1.2268,1.2286,1.2305,1.2305,1.2305,1.2305,1.2305,1.2305,1.2305,1.2305,1.2305,1.2305,1.2305,1.2305,1.2305,1.2305,1.2305,1.2305,1.2305,1.2305,1.2305,1.2305,1.2305,1.2305,1.2305,1.2305,1.2305,1.2305,1.2365,1.2569,1.2783,1.2918,1.324,1.3694,1.3988,1.4076,1.409,-0.7117,-0.7117,-0.7117,-0.7117,-0.7117,-0.7117,-0.7117,-0.7117,-0.7117,-0.7117,-0.7117,-0.7117,-0.6974,-0.6701,-0.6365,-0.5773,-0.4922,-0.3979,-0.2978,-0.196,-0.1236,-0.0629,-0.0138,-0.0039,0.0,0.0,0.0,0.0,0.0,0.0,0.0,0.0,0.0,0.0,0.0,0.0,0.0,0.0,0.0,0.0,0.0,0.0,0.0,0.0,0.0127,0.0273,0.0492,0.0892,0.1403,0.2005,0.2637,0.3362,0.4187,0.4724,0.5244,0.5744,0.6006,0.6199,0.6277,0.628,0.628,0.628,0.628,0.628,0.6319,0.6583,0.6942,0.7399,0.7882,0.8494,0.9311,1.003,1.0663,1.1242,1.1669,1.1947,1.2157,1.2243,1.2305,1.2305,1.2305,1.2311,1.2305,1.2305,1.2305,1.2305,1.2305,1.2305,1.2305,1.2305,1.2305,1.2305,1.2305,1.2305,1.2305,1.2305,1.2305,1.2305,1.2305,1.2305,1.2305,1.2305,1.2305,1.2305,1.2305,1.2305,1.2305,1.2385,1.2544,1.2745,1.3052,1.3453,1.374,1.3918,1.4055,-0.7132,-0.7121,-0.7117,-0.7117,-0.7117,-0.7117,-0.7117,-0.7117,-0.7117,-0.7117,-0.7092,-0.7011,-0.676,-0.6395,-0.6074,-0.542,-0.4534,-0.3533,-0.2508,-0.1529,-0.0982,-0.0471,0.0,0.0,0.0,0.0,0.0,0.0,0.0,0.0,0.0,0.0,0.0,0.0,0.0,0.0,0.0,0.0,0.0,0.0,0.0,0.0,0.0,0.0,0.0186,0.0428,0.0688,0.1284,0.1933,0.2584,0.3232,0.3948,0.4749,0.5175,0.5591,0.6012,0.6256,0.6338,0.6358,0.6358,0.634,0.6303,0.628,0.628,0.6354,0.6676,0.7207,0.7817,0.836,0.9065,0.9935,1.0607,1.118,1.1725,1.1954,1.215,1.2268,1.2305,1.2338,1.2423,1.247,1.2444,1.243,1.2365,1.2305,1.2305,1.2305,1.2305,1.2305,1.2305,1.2305,1.2305,1.2305,1.2305,1.2305,1.2305,1.2305,1.2305,1.2305,1.2305,1.2305,1.2305,1.2305,1.2305,1.2305,1.2305,1.2305,1.2331,1.2435,1.2729,1.301,1.3259,1.3554,1.3865,1.4233,-0.7275,-0.7127,-0.7117,-0.7117,-0.7117,-0.7117,-0.7117,-0.7117,-0.7117,-0.7117,-0.7046,-0.678,-0.6368,-0.5915,-0.5619,-0.5134,-0.4327,-0.2939,-0.1942,-0.1277,-0.0648,-0.0216,0.0,0.0,0.0,0.0,0.0,0.0,0.0,0.0,0.0,0.0,0.0,0.0,0.0,0.0,0.0,0.0,0.0,0.0,0.0,0.0,0.0,0.0,0.0195,0.0488,0.0898,0.1523,0.2243,0.3041,0.369,0.4416,0.5193,0.5476,0.5875,0.6381,0.6481,0.6484,0.6484,0.6484,0.645,0.6334,0.6297,0.63,0.6354,0.6695,0.7296,0.8036,0.8818,0.9592,1.0413,1.101,1.1521,1.1917,1.2164,1.2288,1.2318,1.2385,1.2464,1.2697,1.2764,1.2763,1.2744,1.2472,1.2345,1.2311,1.2305,1.2305,1.2305,1.2305,1.2305,1.2305,1.2305,1.2305,1.2305,1.2305,1.2305,1.2305,1.2305,1.2305,1.2305,1.2305,1.2305,1.2305,1.2305,1.2305,1.2305,1.237,1.2513,1.2736,1.2938,1.3194,1.3638,1.417,1.4636,-0.7282,-0.7117,-0.7117,-0.7117,-0.7117,-0.7117,-0.7117,-0.7117,-0.7117,-0.7045,-0.6939,-0.6706,-0.6208,-0.5555,-0.485,-0.4165,-0.3459,-0.2328,-0.1473,-0.0864,-0.0471,-0.0196,0.0,0.0,0.0,0.0,0.0,0.0,0.0,0.0,0.0,0.0,0.0,0.0,0.0,0.0,0.0,0.0,0.0,0.0,0.0,0.0,0.0,0.0,0.0314,0.0707,0.114,0.1883,0.2666,0.3526,0.4036,0.464,0.5429,0.5913,0.6301,0.6576,0.6637,0.6641,0.662,0.6617,0.6556,0.6437,0.6416,0.6454,0.6549,0.6872,0.7509,0.8437,0.9286,1.0172,1.1115,1.1519,1.1744,1.2133,1.2453,1.2623,1.267,1.2759,1.2926,1.3019,1.3033,1.3012,1.285,1.269,1.2531,1.2345,1.2305,1.2305,1.2305,1.2305,1.2305,1.2305,1.2305,1.2305,1.2305,1.2305,1.2305,1.2305,1.2305,1.2305,1.2305,1.2305,1.2305,1.2342,1.2342,1.2378,1.2397,1.2595,1.2727,1.2975,1.3152,1.351,1.3846,1.4623,1.5198,-0.7238,-0.7105,-0.7117,-0.7117,-0.7117,-0.7117,-0.7117,-0.7095,-0.7051,-0.693,-0.6743,-0.6318,-0.5714,-0.4933,-0.3907,-0.3062,-0.2426,-0.1686,-0.1061,-0.0511,-0.0295,-0.0138,0.0,0.0,0.0,0.0,0.0,0.0,0.0,0.0,0.0,0.0,0.0,0.0,0.0,0.0,0.0,0.0,0.0,0.0,0.0,0.0,0.006,0.0181,0.0523,0.0897,0.1299,0.208,0.2915,0.3742,0.4299,0.4945,0.5805,0.6291,0.6614,0.6753,0.6773,0.6752,0.6773,0.6755,0.6709,0.6583,0.6664,0.6736,0.6858,0.7301,0.8056,0.8977,0.9845,1.0823,1.172,1.206,1.2239,1.2555,1.2791,1.2938,1.2925,1.3073,1.32,1.33,1.3327,1.3206,1.2998,1.2877,1.2643,1.2338,1.2305,1.2305,1.2305,1.2305,1.2305,1.2305,1.2305,1.2305,1.2305,1.2305,1.2323,1.2323,1.2305,1.2305,1.2323,1.2323,1.236,1.2378,1.2434,1.2464,1.2592,1.282,1.3076,1.3368,1.3678,1.4027,1.457,1.5221,1.583,-0.7121,-0.7117,-0.7117,-0.7117,-0.7117,-0.7117,-0.7117,-0.7073,-0.6877,-0.6755,-0.6487,-0.5594,-0.4911,-0.4126,-0.2956,-0.1951,-0.1437,-0.1058,-0.0692,-0.0296,-0.0098,0.0,0.0,0.0,0.0,0.0,0.0,0.0,0.0,0.0,0.0,0.0,0.0,0.0,0.0,0.0,0.0,0.0,0.0,0.0,0.0,0.0,0.0167,0.044,0.0817,0.1172,0.1384,0.2148,0.3008,0.3889,0.4569,0.5371,0.6201,0.6591,0.677,0.6877,0.6908,0.6908,0.6904,0.6908,0.684,0.6812,0.695,0.7197,0.7481,0.8016,0.8767,0.9679,1.0521,1.141,1.2195,1.2663,1.2916,1.3134,1.3173,1.3206,1.3213,1.3227,1.3313,1.3554,1.362,1.35,1.3233,1.2992,1.2711,1.2405,1.2305,1.2305,1.2305,1.2305,1.2305,1.2305,1.2305,1.2323,1.2298,1.2298,1.2335,1.236,1.2316,1.2298,1.236,1.2397,1.2526,1.2599,1.2856,1.2922,1.3335,1.3553,1.3807,1.4104,1.4348,1.4679,1.5265,1.59,1.6571,-0.7117,-0.7117,-0.7117,-0.7117,-0.7117,-0.7117,-0.7117,-0.7098,-0.6881,-0.6605,-0.6187,-0.531,-0.4509,-0.3664,-0.2537,-0.1649,-0.1081,-0.0682,-0.0327,-0.0121,0.0,0.0,0.0,0.0,0.0,0.0,0.0,0.0,0.0,0.0,0.0,0.0,0.0,0.0,0.0,0.0,0.0,0.0,0.0,0.0,0.0253,0.0274,0.0464,0.0884,0.1262,0.1731,0.2327,0.2839,0.3549,0.4426,0.4963,0.5639,0.6398,0.673,0.6883,0.7029,0.7031,0.7031,0.7031,0.7024,0.705,0.7144,0.7334,0.7649,0.809,0.8723,0.9547,1.0548,1.1329,1.2108,1.2879,1.3304,1.3368,1.322,1.3367,1.3487,1.3487,1.3654,1.3834,1.39,1.3948,1.3734,1.3347,1.3086,1.2852,1.2412,1.2318,1.2305,1.2305,1.2305,1.2305,1.2305,1.2323,1.2409,1.2526,1.2629,1.2709,1.2691,1.2618,1.2562,1.2581,1.2666,1.2783,1.3076,1.3313,1.3633,1.4024,1.4358,1.4653,1.4956,1.5312,1.5656,1.5999,1.6563,1.7261,-0.7117,-0.7117,-0.7117,-0.7117,-0.7117,-0.7117,-0.7051,-0.6947,-0.6659,-0.6208,-0.5564,-0.4591,-0.372,-0.2872,-0.1884,-0.1189,-0.0723,-0.0338,-0.0126,0.0,0.0,0.0,0.0,0.0,0.0,0.0,0.0,0.0,0.0,0.0,0.0,0.0,0.0,0.0,0.0,0.0,0.0,0.0,0.0,0.028,0.0496,0.069,0.1035,0.1594,0.2025,0.2668,0.3439,0.3914,0.4391,0.4944,0.5559,0.6205,0.6734,0.6902,0.7026,0.7068,0.7117,0.7092,0.7117,0.711,0.7197,0.7375,0.7714,0.8208,0.8847,0.9575,1.0554,1.1458,1.2197,1.2851,1.3396,1.3716,1.3728,1.3574,1.368,1.378,1.3814,1.3968,1.4068,1.4068,1.4096,1.3834,1.35,1.3213,1.3007,1.2579,1.2371,1.2305,1.2305,1.2305,1.2342,1.2378,1.2434,1.2599,1.2801,1.2948,1.3076,1.3058,1.3021,1.2991,1.2973,1.3131,1.3295,1.3861,1.4222,1.4635,1.5028,1.5321,1.5613,1.5947,1.6202,1.6455,1.6763,1.7318,1.792,-0.7117,-0.7117,-0.7117,-0.7117,-0.7095,-0.7095,-0.6944,-0.6704,-0.626,-0.5599,-0.4725,-0.366,-0.2706,-0.1885,-0.1099,-0.0576,-0.0303,0.0,0.0,0.0,0.0,0.0,0.0,0.0,0.0,0.0,0.0,0.0,0.0,0.0,0.0,0.0,0.0,0.0,0.0,0.0,0.0,0.0,0.029,0.0514,0.0804,0.1251,0.1832,0.2543,0.3031,0.3718,0.4555,0.5132,0.5412,0.5521,0.628,0.6794,0.7044,0.7117,0.7088,0.7117,0.7117,0.7117,0.7117,0.7165,0.7294,0.7614,0.8213,0.8868,0.9668,1.0652,1.1561,1.2331,1.2966,1.3457,1.3709,1.3913,1.4034,1.4075,1.4021,1.4041,1.4075,1.4103,1.4103,1.4109,1.4089,1.3968,1.362,1.336,1.308,1.2823,1.2553,1.2412,1.247,1.2526,1.2507,1.2618,1.2783,1.305,1.3342,1.3579,1.376,1.414,1.3995,1.3833,1.3731,1.3851,1.4114,1.4681,1.5144,1.5578,1.5939,1.6193,1.642,1.6655,1.6898,1.7166,1.7461,1.7889,1.8083,-0.7117,-0.7117,-0.7117,-0.7117,-0.7098,-0.6947,-0.6722,-0.6432,-0.5838,-0.5127,-0.4271,-0.3187,-0.2315,-0.1738,-0.0803,-0.0371,-0.0287,0.0,0.0,0.0,0.0,0.0,0.0,0.0,0.0,0.0,0.0,0.0,0.0,0.0,0.0,0.0,0.0,0.0,0.0,0.0,0.0,0.0292,0.0516,0.0942,0.1502,0.1994,0.2642,0.3491,0.4026,0.4672,0.5408,0.608,0.6425,0.6439,0.6763,0.7051,0.7095,0.7117,0.7117,0.7117,0.7117,0.7117,0.7139,0.7279,0.7566,0.8028,0.8811,0.9685,1.0571,1.1542,1.2378,1.3009,1.3462,1.3737,1.3934,1.4039,1.4109,1.4109,1.4109,1.4109,1.4109,1.4109,1.4109,1.4109,1.4109,1.3941,1.3707,1.3394,1.3165,1.2991,1.2781,1.2654,1.2838,1.2966,1.3039,1.3247,1.3448,1.3669,1.3934,1.4168,1.4563,1.5178,1.517,1.4948,1.4885,1.4885,1.5215,1.5666,1.5991,1.6394,1.6673,1.6933,1.7149,1.7287,1.7407,1.7545,1.7708,1.8024,1.8019,-0.7117,-0.7117,-0.7117,-0.7051,-0.6966,-0.6726,-0.639,-0.5899,-0.5233,-0.4409,-0.3481,-0.25,-0.1728,-0.1164,-0.0488,-0.02,-0.0224,-0.0067,0.0,0.0,0.0,0.0,0.0,0.0,0.0,0.0,0.0,0.0,0.0,0.0,0.0,0.0,0.0,0.0,0.0,0.018,0.0359,0.0695,0.1009,0.1524,0.2219,0.2911,0.3693,0.4454,0.503,0.5586,0.6143,0.6656,0.6922,0.6944,0.7029,0.7117,0.7117,0.7117,0.7117,0.7117,0.7117,0.7139,0.7297,0.7499,0.79,0.8512,0.9362,1.0294,1.1219,1.2149,1.2966,1.3434,1.3716,1.3934,1.4046,1.4109,1.4109,1.4109,1.4109,1.4109,1.4109,1.4109,1.4109,1.4109,1.4096,1.4077,1.3904,1.3581,1.3442,1.3376,1.3222,1.3238,1.3368,1.3503,1.3713,1.3967,1.4183,1.4402,1.4778,1.5063,1.5339,1.593,1.6237,1.6035,1.5912,1.5877,1.6123,1.6464,1.6829,1.7088,1.727,1.7442,1.7579,1.7699,1.7811,1.7845,1.7957,1.8008,1.8008,-0.7117,-0.7117,-0.7117,-0.6988,-0.677,-0.6457,-0.5944,-0.528,-0.4476,-0.3515,-0.2484,-0.1681,-0.1074,-0.0404,0.0,0.0,0.0,0.0,0.0,0.0,0.0,0.0,0.0,0.0,0.0,0.0,0.0,0.0,0.0,0.0,0.0,0.0,0.0,0.0,0.0425,0.0493,0.0785,0.13,0.1772,0.2397,0.3157,0.3941,0.4679,0.5366,0.5902,0.6324,0.6704,0.6991,0.7095,0.7095,0.7117,0.7117,0.7117,0.7117,0.7117,0.7117,0.7165,0.7279,0.7547,0.7812,0.827,0.9012,0.9924,1.0831,1.1757,1.2641,1.3307,1.3716,1.3955,1.406,1.4088,1.4109,1.4109,1.4109,1.4109,1.4109,1.4109,1.4109,1.4109,1.4109,1.4109,1.4222,1.422,1.4048,1.3764,1.4173,1.3988,1.3952,1.4158,1.441,1.4617,1.4841,1.502,1.5162,1.5578,1.6009,1.628,1.6664,1.7002,1.7002,1.6829,1.6829,1.6976,1.721,1.7356,1.7493,1.763,1.7801,1.7913,1.793,1.7913,1.7957,1.8008,1.8008,1.8008,-0.7117,-0.7117,-0.7117,-0.6988,-0.6726,-0.6121,-0.545,-0.4763,-0.3647,-0.273,-0.1927,-0.1166,-0.0695,-0.0381,0.0,0.0,0.0,0.0,0.0,0.0,0.0,0.0,0.0,0.0,0.0,0.0,0.0,0.0,0.0,0.0,0.0,0.0,0.0287,0.0424,0.0694,0.1076,0.1547,0.215,0.2667,0.3381,0.4182,0.4832,0.548,0.6121,0.6587,0.6877,0.7007,0.7073,0.7117,0.7117,0.7117,0.7117,0.7117,0.7117,0.7117,0.7165,0.7323,0.7503,0.7786,0.8336,0.8973,0.9685,1.0727,1.1714,1.2406,1.3094,1.3652,1.3955,1.406,1.4109,1.4109,1.4109,1.4109,1.4109,1.4109,1.4109,1.4109,1.4109,1.4109,1.4145,1.4243,1.4405,1.4608,1.4436,1.4462,1.4822,1.4869,1.4748,1.4974,1.5285,1.5525,1.5728,1.5869,1.6018,1.6333,1.6707,1.695,1.7157,1.7459,1.7674,1.7493,1.7442,1.7486,1.7606,1.7759,1.7862,1.7879,1.7913,1.7974,1.7991,1.8008,1.8008,1.8008,1.8008,1.8008,-0.7117,-0.7095,-0.701,-0.677,-0.6371,-0.5586,-0.4761,-0.3907,-0.2856,-0.1977,-0.1295,-0.0734,-0.0445,-0.0224,0.0,0.0,0.0,0.0,0.0,0.0,0.0,0.0,0.0179,0.0178,0.0,0.0,0.0,0.0,0.015,0.0195,0.0,0.0508,0.0669,0.103,0.1368,0.1771,0.2351,0.3089,0.3647,0.4316,0.5097,0.5633,0.6121,0.6605,0.6962,0.7117,0.7095,0.7095,0.7117,0.7117,0.7117,0.7117,0.7117,0.7117,0.7165,0.7301,0.7499,0.7878,0.8314,0.8968,0.9733,1.0489,1.1505,1.2256,1.2896,1.3476,1.3786,1.4018,1.4088,1.4109,1.4109,1.4109,1.4109,1.4109,1.4109,1.4109,1.4109,1.4109,1.4145,1.425,1.4433,1.4755,1.4903,1.4956,1.5253,1.5683,1.5591,1.5506,1.5824,1.6132,1.6359,1.6568,1.6707,1.6898,1.714,1.739,1.7537,1.7657,1.7769,1.7872,1.7811,1.7811,1.7828,1.7906,1.794,1.7957,1.7964,1.8008,1.8008,1.8008,1.8008,1.8008,1.8008,1.8008,1.8008,-0.7073,-0.7051,-0.6836,-0.6457,-0.5883,-0.4983,-0.4039,-0.3043,-0.2102,-0.1336,-0.0708,-0.0437,-0.022,0.0,0.0,0.0,0.0,0.0,0.0,0.0,0.0,0.0,0.0314,0.038,0.04,0.0175,0.0,0.0216,0.037,0.0459,0.064,0.1051,0.1322,0.1704,0.2242,0.2732,0.3312,0.4095,0.463,0.5186,0.5788,0.6254,0.6631,0.6962,0.7073,0.7117,0.7117,0.7117,0.7117,0.7117,0.7117,0.7117,0.7117,0.7165,0.7253,0.7525,0.783,0.8358,0.9034,0.9733,1.0528,1.1413,1.2149,1.2775,1.3328,1.3652,1.387,1.4018,1.4109,1.4109,1.4109,1.4109,1.4109,1.4109,1.4109,1.413,1.4152,1.4166,1.4307,1.4461,1.4796,1.5214,1.5602,1.5836,1.6173,1.6441,1.6334,1.6369,1.6675,1.69,1.7109,1.7228,1.7331,1.7365,1.7579,1.7647,1.7845,1.7906,1.7974,1.7991,1.8008,1.7974,1.794,1.7974,1.7991,1.8008,1.8008,1.8008,1.8008,1.8008,1.8008,1.8008,1.8008,1.8008,1.8008,-0.6988,-0.684,-0.6564,-0.6102,-0.5416,-0.4451,-0.3476,-0.2555,-0.1607,-0.0926,-0.0449,0.0,0.0,0.0,0.0,0.0,0.0,0.0,0.0,0.0,0.0,0.0,0.0538,0.0695,0.0783,0.0782,0.0642,0.0598,0.0689,0.067,0.1115,0.1456,0.2016,0.2576,0.3202,0.3825,0.4494,0.5033,0.5544,0.6058,0.6457,0.6656,0.6811,0.7095,0.7117,0.7117,0.7117,0.7117,0.7117,0.7117,0.7117,0.7117,0.7209,0.7345,0.7588,0.7826,0.8358,0.8968,0.9755,1.0571,1.137,1.2143,1.2811,1.3264,1.3631,1.3864,1.3997,1.4039,1.4109,1.4109,1.4109,1.4109,1.4109,1.4109,1.4109,1.4166,1.4328,1.451,1.4678,1.488,1.5297,1.5801,1.6309,1.6772,1.714,1.7385,1.7405,1.74,1.7569,1.7677,1.7732,1.7812,1.7854,1.7872,1.794,1.7923,1.7974,1.7957,1.7991,1.7991,1.8008,1.8008,1.8008,1.8008,1.8008,1.8008,1.8008,1.8008,1.8008,1.8008,1.8008,1.8008,1.8008,1.8008,1.8008,-0.6878,-0.6667,-0.6225,-0.5653,-0.4887,-0.3692,-0.2716,-0.1883,-0.1083,-0.0526,-0.0232,0.0,0.0,0.0,0.0,0.0,0.0,0.0,0.0,0.018,0.0224,0.0583,0.1031,0.1233,0.1659,0.1904,0.1747,0.1457,0.1503,0.1613,0.1971,0.2686,0.32,0.3717,0.4297,0.4897,0.5453,0.5899,0.6279,0.6615,0.6922,0.6944,0.7032,0.7076,0.7117,0.7117,0.7117,0.7117,0.7117,0.7139,0.7231,0.7279,0.7477,0.7856,0.8204,0.8332,0.8881,0.9689,1.0549,1.1413,1.2165,1.2833,1.3328,1.3652,1.3849,1.4025,1.4088,1.4109,1.4109,1.4109,1.4109,1.4109,1.4109,1.4109,1.4109,1.4201,1.444,1.481,1.5165,1.5498,1.6023,1.6617,1.726,1.7706,1.8092,1.831,1.8423,1.844,1.8427,1.8395,1.8354,1.837,1.8371,1.8147,1.8115,1.8037,1.8018,1.8008,1.8008,1.8008,1.8008,1.8008,1.8008,1.8008,1.8008,1.8008,1.8008,1.8008,1.8008,1.8008,1.8008,1.8008,1.8008,1.8008,1.8008,-0.6601,-0.6242,-0.5676,-0.501,-0.416,-0.293,-0.1934,-0.1235,-0.0662,-0.0287,0.0,0.0,0.0,0.0,0.0,0.0,0.0,0.0,0.0,0.0449,0.0628,0.1099,0.1726,0.2152,0.251,0.3159,0.3156,0.2777,0.2532,0.2509,0.3156,0.3781,0.4318,0.4835,0.5413,0.5747,0.6169,0.6435,0.6722,0.6969,0.7076,0.7117,0.7117,0.7117,0.7117,0.7117,0.7117,0.7117,0.7165,0.7257,0.7415,0.7613,0.7834,0.8556,0.8968,0.9047,0.9571,1.0463,1.137,1.2165,1.2833,1.3328,1.3625,1.3864,1.3997,1.4088,1.4109,1.4109,1.4109,1.4109,1.4109,1.4109,1.4109,1.4109,1.4145,1.4286,1.4699,1.5214,1.5974,1.6386,1.6845,1.742,1.8092,1.8543,1.8928,1.8956,1.9049,1.8977,1.8971,1.8989,1.8968,1.8957,1.8838,1.8459,1.8254,1.8059,1.802,1.8008,1.8008,1.8008,1.8008,1.8008,1.8018,1.8047,1.8008,1.8008,1.8008,1.8008,1.8008,1.8008,1.8008,1.8008,1.8008,1.8008,1.8008,-0.599,-0.5238,-0.4751,-0.3972,-0.3006,-0.2154,-0.1419,-0.0801,-0.0489,-0.0241,0.0,0.0,0.0,0.0,0.0,0.0,0.0,0.0269,0.0494,0.0762,0.1143,0.1725,0.244,0.2867,0.3472,0.4141,0.4338,0.4024,0.3691,0.3403,0.3714,0.4561,0.5122,0.5527,0.6035,0.6393,0.6685,0.677,0.6944,0.7076,0.7095,0.7117,0.7117,0.7117,0.7117,0.7117,0.7117,0.7139,0.7231,0.7455,0.7654,0.7984,0.8416,0.9095,0.9794,1.0289,1.0869,1.1451,1.2207,1.2833,1.3307,1.3652,1.3864,1.4039,1.4082,1.4109,1.4109,1.4109,1.4109,1.4109,1.4109,1.4109,1.4109,1.4187,1.4286,1.4601,1.502,1.5726,1.6489,1.7326,1.7821,1.8333,1.8915,1.9327,1.9684,1.9669,1.9637,1.9574,1.9541,1.9561,1.9424,1.9365,1.9228,1.8859,1.8537,1.8322,1.8225,1.8144,1.8193,1.8184,1.8242,1.8291,1.8079,1.8079,1.8057,1.8018,1.8008,1.8008,1.8008,1.8008,1.8008,1.8008,1.8008,1.8008,1.8008,-0.4915,-0.4592,-0.4049,-0.3296,-0.2349,-0.1618,-0.1006,-0.0569,-0.0281,-0.0099,0.0,0.0,0.0,0.0,0.0,0.0,0.0247,0.0493,0.0874,0.1368,0.186,0.2576,0.3425,0.3916,0.4474,0.5077,0.5297,0.5339,0.4983,0.485,0.5028,0.5539,0.5991,0.6349,0.659,0.6833,0.6944,0.6988,0.7054,0.7095,0.7117,0.7117,0.7117,0.7117,0.7117,0.7117,0.7143,0.7279,0.7433,0.772,0.8094,0.864,0.9227,1.0007,1.0831,1.1365,1.21,1.2555,1.2833,1.3285,1.3631,1.3864,1.4018,1.4088,1.4109,1.4109,1.4109,1.4109,1.4109,1.4109,1.4109,1.4109,1.418,1.4279,1.4489,1.4971,1.5492,1.6263,1.7041,1.7913,1.8754,1.9172,1.9537,1.9815,2.008,2.014,2.0139,2.0118,2.0136,2.0185,1.9961,1.9697,1.9493,1.9249,1.8937,1.8674,1.8625,1.8603,1.8779,1.8769,1.8721,1.8644,1.843,1.8225,1.8147,1.8115,1.8037,1.8008,1.8008,1.8008,1.8008,1.8008,1.8008,1.8008,1.8008,-0.3673,-0.3594,-0.3204,-0.2528,-0.1699,-0.1088,-0.0631,-0.0284,-0.0099,0.0,0.0,0.0,0.0,0.0,0.0,0.0247,0.0493,0.0807,0.1412,0.204,0.2734,0.3559,0.4342,0.4897,0.5453,0.626,0.6058,0.6143,0.6273,0.6229,0.6141,0.6498,0.6545,0.6836,0.7032,0.7073,0.7073,0.7095,0.7095,0.7117,0.7117,0.7117,0.7117,0.7117,0.7117,0.7117,0.7231,0.7433,0.7657,0.8182,0.8775,0.9406,1.0077,1.0955,1.1714,1.2272,1.2924,1.3243,1.3349,1.3589,1.3864,1.4018,1.4109,1.4109,1.4109,1.4109,1.4109,1.4109,1.4109,1.4109,1.4109,1.4145,1.4286,1.4524,1.4796,1.5318,1.594,1.6837,1.7663,1.8496,1.9251,1.9784,2.0088,2.0245,2.0411,2.0547,2.0586,2.0596,2.0576,2.0547,2.039,2.0039,1.9795,1.9581,1.9376,1.9132,1.9054,1.9033,1.9209,1.9238,1.9131,1.8957,1.8752,1.8547,1.8352,1.8157,1.8069,1.8047,1.8008,1.8008,1.8008,1.8008,1.8008,1.8008,1.8008,-0.2286,-0.1807,-0.1934,-0.1507,-0.0755,-0.0452,-0.0244,0.0,0.0,0.0,0.0,0.0,0.0,0.0,0.0292,0.0493,0.0762,0.1413,0.2152,0.2935,0.374,0.452,0.5213,0.5747,0.6191,0.6637,0.6615,0.6767,0.6962,0.6852,0.6811,0.6792,0.6836,0.6944,0.7029,0.7117,0.7117,0.7117,0.7117,0.7117,0.7117,0.7117,0.7117,0.7117,0.7117,0.7209,0.7459,0.7702,0.8138,0.8732,0.9493,1.0267,1.1047,1.1843,1.2491,1.2966,1.3377,1.3652,1.3716,1.3849,1.4018,1.4088,1.4109,1.4109,1.4109,1.4109,1.4109,1.4109,1.4109,1.4124,1.4159,1.4258,1.4468,1.488,1.5332,1.5995,1.6694,1.757,1.8376,1.9123,1.9686,2.0137,2.0362,2.0459,2.0479,2.0596,2.0596,2.0596,2.0596,2.0576,2.0576,2.0381,2.0098,1.9903,1.9805,1.9649,1.9521,1.9443,1.954,1.952,1.9432,1.9248,1.9132,1.8879,1.8674,1.8391,1.8118,1.8059,1.8037,1.8018,1.8008,1.8008,1.8008,1.8008,1.8008,-0.1567,-0.0996,-0.0934,-0.0724,-0.0433,-0.0327,-0.0182,0.0,0.0,0.0,0.0,0.0,0.0086,0.0267,0.0494,0.0897,0.1413,0.2129,0.2935,0.3762,0.4589,0.5347,0.5927,0.6327,0.6678,0.6922,0.6991,0.701,0.7073,0.7117,0.7076,0.6988,0.6966,0.701,0.7073,0.7117,0.7117,0.7117,0.7117,0.7117,0.7117,0.7117,0.7117,0.7117,0.7117,0.7253,0.7525,0.7981,0.8596,0.9358,1.0267,1.1111,1.1886,1.2598,1.3094,1.344,1.3765,1.3891,1.3934,1.4046,1.4088,1.4109,1.4109,1.4116,1.4143,1.4123,1.4109,1.4109,1.4109,1.4145,1.4293,1.4482,1.4776,1.5297,1.5933,1.6653,1.7478,1.8363,1.9057,1.978,2.0046,2.0313,2.0459,2.0576,2.0596,2.0596,2.0596,2.0596,2.0596,2.0596,2.0596,2.0596,2.0341,2.0117,2.0001,1.9971,1.995,1.9911,1.9881,1.9872,1.9853,1.9717,1.958,1.9288,1.8986,1.8703,1.842,1.8157,1.8057,1.8037,1.8018,1.8008,1.8008,1.8008,1.8008,-0.099,-0.0504,-0.0293,-0.0208,-0.0207,-0.0206,-0.0142,0.0,0.0,0.0,0.0,0.0085,0.026,0.0512,0.0919,0.1435,0.2196,0.2978,0.3805,0.461,0.5344,0.5991,0.6435,0.6745,0.6922,0.7095,0.7117,0.7117,0.7117,0.7117,0.7095,0.7098,0.7117,0.7095,0.7095,0.7117,0.7117,0.7117,0.7117,0.7117,0.7117,0.7117,0.7117,0.7139,0.7187,0.7455,0.7874,0.8464,0.9248,1.012,1.1025,1.1935,1.2598,1.3158,1.3561,1.3807,1.3962,1.4088,1.4109,1.4109,1.4128,1.4229,1.4242,1.4235,1.4215,1.423,1.4235,1.4109,1.4145,1.4279,1.4496,1.481,1.5339,1.594,1.6706,1.7465,1.8354,1.9221,1.9806,2.0414,2.0628,2.0887,2.0654,2.0742,2.0605,2.0605,2.0596,2.0596,2.0596,2.0596,2.0596,2.0596,2.0537,2.0351,2.0176,2.0224,2.0244,2.0273,2.0263,2.038,2.0341,2.0195,1.9961,1.9659,1.9347,1.9025,1.882,1.8682,1.8369,1.804,1.8049,1.8105,1.8008,1.8008,1.8008,-0.0505,-0.0293,-0.0103,0.0,0.0,0.0,0.0,0.0,0.0,0.0,0.0,0.0279,0.0548,0.0871,0.148,0.2196,0.2978,0.3851,0.4656,0.5391,0.5969,0.6479,0.6748,0.6969,0.7054,0.7095,0.7117,0.7117,0.7117,0.7117,0.7117,0.7117,0.7117,0.7117,0.7117,0.7117,0.7117,0.7117,0.7139,0.7165,0.7209,0.7231,0.7253,0.7317,0.7498,0.7793,0.8391,0.9121,0.9969,1.0876,1.178,1.2583,1.32,1.3525,1.38,1.4018,1.4067,1.4116,1.4129,1.4123,1.4275,1.4469,1.4516,1.4516,1.4516,1.4476,1.4432,1.4328,1.4362,1.451,1.4831,1.529,1.5961,1.6802,1.7609,1.8432,1.9335,1.9999,2.058,2.0961,2.1408,2.167,2.121,2.0898,2.0703,2.0615,2.0596,2.0596,2.0596,2.0596,2.0596,2.0596,2.0596,2.0527,2.04,2.0498,2.0556,2.0576,2.0576,2.0595,2.0596,2.0459,2.0253,2.001,1.9737,1.9425,1.9336,1.9256,1.8848,1.8459,1.8254,1.8205,1.8096,1.8047,1.8096,-0.028,-0.0082,-0.002,0.0,0.0,0.0,0.0,0.0,0.0,0.0102,0.0295,0.0495,0.0946,0.1494,0.2218,0.3001,0.3851,0.4634,0.5416,0.6033,0.6479,0.6745,0.6969,0.7054,0.7117,0.7117,0.7117,0.7117,0.7117,0.7117,0.7117,0.7117,0.7139,0.7117,0.7117,0.7117,0.7165,0.7323,0.737,0.7437,0.7588,0.7639,0.7686,0.7777,0.8031,0.8482,0.909,0.9916,1.0804,1.1641,1.2492,1.3098,1.3559,1.3813,1.4003,1.4102,1.4129,1.421,1.4362,1.4529,1.4747,1.4819,1.4839,1.4839,1.4832,1.4791,1.4706,1.4741,1.4909,1.5112,1.5401,1.601,1.6753,1.7892,1.8765,1.9592,2.0372,2.0834,2.131,2.1504,2.1846,2.1728,2.1386,2.1093,2.0879,2.0684,2.0644,2.0605,2.0596,2.0596,2.0596,2.0596,2.0596,2.0596,2.0596,2.0596,2.0596,2.0595,2.0595,2.0605,2.0596,2.0596,2.0527,2.0312,2.0078,1.9844,1.9756,1.9618,1.9268,1.8955,1.8887,1.8635,1.8469,1.8371,1.8303,-0.0119,0.0,0.0,0.0,0.0,0.0,0.0,0.0,0.0101,0.027,0.055,0.091,0.1481,0.2236,0.3024,0.3827,0.4701,0.5413,0.5949,0.652,0.6789,0.6966,0.7051,0.7117,0.7117,0.7117,0.7117,0.7117,0.7117,0.7117,0.7117,0.7117,0.7187,0.7319,0.7319,0.7345,0.743,0.7654,0.7786,0.7896,0.8092,0.8226,0.8352,0.8578,0.8945,0.9417,1.009,1.0866,1.1691,1.2424,1.3023,1.3557,1.3851,1.4075,1.4222,1.4242,1.439,1.4529,1.4823,1.4957,1.5146,1.5271,1.52,1.5185,1.5278,1.5358,1.5414,1.5494,1.5683,1.6121,1.6553,1.7144,1.8025,1.9169,1.982,2.0618,2.1225,2.1675,2.1958,2.2146,2.2196,2.1962,2.164,2.1318,2.1064,2.0869,2.0693,2.0635,2.0596,2.0596,2.0596,2.0596,2.0596,2.0596,2.0596,2.0596,2.0596,2.0596,2.0596,2.0596,2.0596,2.0596,2.0596,2.0586,2.0381,2.0185,2.0117,1.9941,1.9766,1.9735,1.9783,1.9452,1.8966,1.8713,1.8529,0.0,0.0,0.0,0.0,0.0,0.0,0.0,0.0059,0.0309,0.0526,0.0781,0.1539,0.2259,0.3022,0.3898,0.4701,0.5369,0.6077,0.6457,0.6748,0.6966,0.7051,0.7095,0.7117,0.7117,0.7117,0.7117,0.7117,0.7117,0.7117,0.7117,0.7209,0.7389,0.7632,0.7742,0.7918,0.805,0.831,0.8442,0.8656,0.8966,0.9054,0.9317,0.9653,1.0113,1.0645,1.1338,1.215,1.2779,1.3327,1.3777,1.4045,1.423,1.4396,1.4461,1.4603,1.4819,1.505,1.526,1.534,1.5561,1.5698,1.5657,1.5666,1.5752,1.5922,1.6124,1.6522,1.6891,1.7544,1.8134,1.8846,1.9558,2.0265,2.0803,2.1438,2.2018,2.2405,2.2629,2.2781,2.2879,2.2684,2.2206,2.1835,2.1337,2.1005,2.0801,2.0625,2.0596,2.0596,2.0596,2.0596,2.0596,2.0596,2.0596,2.0596,2.0596,2.0596,2.0596,2.0596,2.0596,2.0596,2.0596,2.0596,2.0596,2.0508,2.0381,2.04,2.0449,2.0439,2.0282,1.9979,1.9414,1.8957,1.8732,0.0,0.0,0.0,0.0,0.0,0.0159,0.0197,0.0257,0.0516,0.0884,0.1476,0.2244,0.309,0.3918,0.4723,0.5436,0.601,0.6479,0.6767,0.6966,0.7054,0.7095,0.7117,0.7117,0.7117,0.7117,0.7117,0.7117,0.7117,0.7117,0.7253,0.7393,0.7676,0.8028,0.849,0.8863,0.9078,0.9248,0.9375,0.971,1.0089,1.0319,1.0604,1.102,1.1517,1.2034,1.2591,1.3211,1.3759,1.4172,1.435,1.4528,1.4763,1.4819,1.4859,1.4892,1.5106,1.5317,1.5434,1.5755,1.6021,1.6207,1.6319,1.6279,1.632,1.652,1.6903,1.752,1.8199,1.8846,1.9393,2.0061,2.0689,2.1239,2.1689,2.2085,2.2579,2.2751,2.2976,2.3006,2.3091,2.2976,2.2547,2.2158,2.167,2.1249,2.0937,2.0752,2.0596,2.0596,2.0596,2.0596,2.0596,2.0596,2.0596,2.0596,2.0596,2.0596,2.0596,2.0596,2.0596,2.0596,2.0596,2.0596,2.0596,2.0596,2.0566,2.0615,2.0673,2.0625,2.0488,2.0204,1.9882,1.9424,1.8984,0.0,0.0,0.0,0.0039,0.0138,0.0334,0.055,0.0812,0.1011,0.1471,0.2196,0.3077,0.3941,0.4746,0.5458,0.6058,0.6523,0.6767,0.6988,0.7054,0.7117,0.7117,0.7117,0.7117,0.7117,0.7117,0.7117,0.7117,0.7139,0.7279,0.7415,0.7786,0.805,0.8644,0.9253,0.9903,1.0463,1.0576,1.0693,1.0975,1.133,1.1684,1.2024,1.2445,1.2954,1.3356,1.3717,1.4211,1.459,1.4803,1.4822,1.4921,1.5073,1.5066,1.526,1.5297,1.5428,1.5635,1.5788,1.6118,1.6372,1.6683,1.7035,1.7248,1.7407,1.7658,1.8162,1.8718,1.9434,2.0105,2.0618,2.1124,2.1658,2.2164,2.2436,2.2698,2.2889,2.3062,2.3091,2.3081,2.3064,2.2986,2.2703,2.2353,2.1982,2.1602,2.1201,2.0859,2.0693,2.0596,2.0596,2.0596,2.0596,2.0596,2.0596,2.0596,2.0596,2.0596,2.0596,2.0596,2.0596,2.0605,2.0605,2.0605,2.0596,2.0615,2.0634,2.0712,2.0751,2.0731,2.077,2.066,2.0346,1.9881,1.9432,0.0,0.0,0.0,0.0157,0.0334,0.0589,0.1061,0.1659,0.1869,0.2264,0.3024,0.3931,0.4766,0.548,0.608,0.6479,0.6789,0.6988,0.7051,0.7117,0.7117,0.7117,0.7117,0.7117,0.7117,0.7117,0.7117,0.7143,0.7231,0.7411,0.7764,0.8285,0.8754,0.9362,1.0159,1.089,1.1521,1.1993,1.1904,1.1978,1.2498,1.2869,1.3187,1.3684,1.4111,1.4484,1.4777,1.5091,1.5375,1.5268,1.5229,1.5291,1.5271,1.5297,1.5551,1.5712,1.5809,1.5994,1.6253,1.6615,1.6983,1.7318,1.7707,1.8265,1.8641,1.8571,1.8967,1.9777,2.0505,2.1128,2.1655,2.1995,2.2435,2.2645,2.2771,2.2918,2.3011,2.3101,2.3101,2.3101,2.3081,2.3025,2.2937,2.2576,2.2285,2.1924,2.1455,2.1025,2.0859,2.0713,2.0674,2.0664,2.0596,2.0596,2.0596,2.0596,2.0596,2.0596,2.0596,2.0596,2.0596,2.0605,2.0625,2.0693,2.077,2.0693,2.0693,2.078,2.0877,2.0954,2.1012,2.1089,2.0833,2.0469,1.9885,0.0,0.0,0.0157,0.0334,0.0609,0.114,0.1708,0.2341,0.3088,0.351,0.3922,0.4727,0.5477,0.6121,0.6501,0.6814,0.6988,0.7054,0.7095,0.7117,0.7117,0.7117,0.7117,0.7117,0.7117,0.7117,0.7139,0.7253,0.7496,0.7738,0.8175,0.8956,0.9502,1.0219,1.1213,1.1926,1.2525,1.3136,1.3176,1.3199,1.3666,1.3892,1.4153,1.4626,1.5046,1.5159,1.5374,1.551,1.565,1.5631,1.5654,1.5661,1.5621,1.5691,1.5846,1.6038,1.614,1.643,1.6847,1.7263,1.7715,1.8311,1.8834,1.9521,1.9795,1.953,1.9803,2.0696,2.1454,2.2043,2.2517,2.2816,2.3013,2.3035,2.3047,2.3069,2.3101,2.3101,2.3101,2.3101,2.3101,2.3062,2.3003,2.284,2.2537,2.2079,2.1532,2.1142,2.1055,2.0928,2.0869,2.082,2.0625,2.0596,2.0596,2.0596,2.0596,2.0596,2.0596,2.0596,2.0634,2.077,2.0906,2.0954,2.0984,2.0974,2.0935,2.0887,2.0984,2.1224,2.1483,2.1674,2.1674,2.1393,2.0597,0.0,0.0,0.0314,0.0668,0.1119,0.1727,0.2393,0.3149,0.3974,0.4596,0.5001,0.5556,0.6069,0.6552,0.6833,0.6969,0.7095,0.7095,0.7117,0.7117,0.7117,0.7117,0.7117,0.7117,0.7117,0.7117,0.7279,0.7481,0.7896,0.827,0.8771,0.9764,1.044,1.1243,1.2284,1.2899,1.3408,1.391,1.4111,1.4365,1.4634,1.4673,1.4858,1.5299,1.5547,1.5635,1.5659,1.5754,1.5778,1.5801,1.5788,1.5788,1.5802,1.5893,1.6126,1.6353,1.6612,1.6988,1.7543,1.8094,1.8665,1.9316,1.9863,2.0506,2.1087,2.0907,2.0988,2.1767,2.2065,2.2605,2.2772,2.3035,2.3079,2.3079,2.3069,2.3101,2.3101,2.3101,2.3101,2.3101,2.3101,2.3091,2.3042,2.3023,2.2742,2.244,2.1854,2.1601,2.1465,2.124,2.1143,2.1006,2.084,2.0654,2.0596,2.0596,2.0596,2.0596,2.0634,2.077,2.0886,2.107,2.1205,2.1397,2.1474,2.1378,2.134,2.1378,2.154,2.1845,2.2101,2.2346,2.2308,2.2306,2.1774,0.0,0.0,0.055,0.11,0.1767,0.2393,0.3136,0.3953,0.4664,0.5406,0.5993,0.6181,0.6489,0.6794,0.701,0.7073,0.7117,0.7117,0.7117,0.7117,0.7117,0.7117,0.7117,0.7117,0.7143,0.7253,0.7433,0.7981,0.853,0.8963,0.9667,1.0732,1.1602,1.2415,1.324,1.3868,1.435,1.4525,1.4736,1.5048,1.5164,1.52,1.5355,1.5611,1.5801,1.5801,1.5801,1.5801,1.5801,1.5801,1.5825,1.5849,1.5974,1.6123,1.6487,1.677,1.7255,1.7808,1.8473,1.908,1.9812,2.0492,2.0921,2.1401,2.1976,2.2176,2.2264,2.2397,2.2693,2.2847,2.3013,2.3101,2.3101,2.3101,2.3101,2.3101,2.3101,2.3101,2.3101,2.3101,2.3101,2.3101,2.3091,2.3081,2.2925,2.2654,2.243,2.2256,2.2031,2.1748,2.1563,2.1338,2.1123,2.0928,2.0742,2.0615,2.0634,2.0693,2.0751,2.0974,2.1224,2.1578,2.1864,2.2054,2.2073,2.2044,2.2063,2.2138,2.2346,2.2534,2.2879,2.3146,2.322,2.3195,2.3077,0.0196,0.053,0.1159,0.1767,0.2413,0.3196,0.3938,0.4567,0.5176,0.5802,0.6263,0.6548,0.6772,0.7054,0.7073,0.7117,0.7117,0.7117,0.7117,0.7117,0.7117,0.7117,0.7139,0.7165,0.7231,0.7459,0.7753,0.8212,0.9133,0.9802,1.0637,1.1783,1.2535,1.3355,1.4161,1.463,1.4757,1.4957,1.5045,1.522,1.5344,1.5404,1.5531,1.5675,1.5801,1.5801,1.5801,1.5801,1.5801,1.5801,1.5849,1.595,1.6163,1.6447,1.6911,1.7505,1.7971,1.875,1.9461,2.0062,2.0794,2.1369,2.178,2.2122,2.253,2.2728,2.2772,2.2794,2.2947,2.2925,2.3057,2.3101,2.3101,2.3101,2.3101,2.3101,2.3101,2.3101,2.3101,2.3101,2.3101,2.3101,2.3091,2.3091,2.3081,2.2849,2.2654,2.2479,2.241,2.2197,2.2004,2.1779,2.1555,2.1249,2.1084,2.0732,2.0673,2.0761,2.1071,2.1586,2.1998,2.2262,2.2534,2.2841,2.2879,2.286,2.2897,2.3035,2.3083,2.3305,2.3699,2.3991,2.4063,2.4131,2.4035]},{"header":{"parameterUnit":"m.s-1","parameterCategory":1,"la1":31.0,"la2":29.5877,"lo1":-88.7671,"lo2":-86.6584,"dy":0.0162,"dx":0.0185,"nx":115,"ny":88,"refTime":"2024-02-23T18:00:00:Z","depth":0,"parameterNumber":3,"parameterNumberName":"V-component_of_WINDS"},"data":[0.0,0.0,0.0,0.0,0.0,0.0,0.0,0.0,0.0,0.0,0.0,0.0,0.0,0.0,0.0,0.0,0.0,0.0,0.0,0.0,0.0,0.0,0.0,0.0,0.0,0.0,0.0,0.0,0.0,0.0,0.0,0.0,0.0,0.0,0.0,0.0,0.0,0.0,0.0,0.0,0.0,0.0,0.0,0.0,0.0,0.0,0.0,0.0,0.0,0.0,0.0,0.0,0.0,0.0,0.0,0.0,0.0,0.0,0.0,0.0,0.0,0.0,0.0,0.0,0.0,0.0,0.0,0.0,0.0,0.0,0.0,0.0,0.0,0.0,0.0,0.0,0.0,0.0,0.0,0.0,0.0,0.0,0.0,0.0,0.0,0.0,0.0,0.0,0.0,0.0,0.0,0.0,0.0,0.0,0.0,0.0,0.0,0.0,0.0,0.0,0.0,0.0,0.0,0.0,0.0,0.0,0.0,0.0,0.0,0.0,0.0,0.0,0.0,0.0,0.0,0.0,0.0,0.0,0.0,0.0,0.0,0.0,0.0,0.0,0.0,0.0,0.0,0.0,0.0,0.0,0.0,0.0,0.0,0.0,0.0,0.0,0.0,0.0,0.0,0.0,0.0,0.0,0.0,0.0,0.0,0.0,0.0,0.0,0.0,0.0,0.0,0.0,0.0,0.0,0.0,0.0,0.0,0.0,0.0,0.0,0.0,0.0,0.0,0.0,0.0,0.0,0.0,0.0,0.0,0.0,0.0,0.0,0.0,0.0,0.0,0.0,0.0,0.0,0.0,0.0,0.0,0.0,0.0,0.0,0.0,0.0,0.0,0.0,0.0,0.0,0.0,0.0,0.0,0.0,0.0,0.0,0.0,0.0,0.0,0.0,0.0,0.0,0.0,0.0,0.0,0.0,0.0,0.0,0.0,0.0,0.0,0.0,0.0,0.0,0.0,0.0,0.0,0.0,0.0,0.0,0.0,0.0,0.0,0.0,0.0,0.0,0.0,0.0,0.0,0.0,0.0,0.0,0.0,0.0,0.0,0.0,0.0,0.0,0.0,0.0,0.0,0.0,0.0,0.0,0.0,0.0,0.0,0.0,0.0,0.0,0.0,0.0,0.0,0.0,0.0,0.0,0.0,0.0,0.0,0.0,0.0,0.0,0.0,0.0,0.0,0.0,0.0,0.0,0.0,0.0,0.0,0.0,0.0,0.0,0.0,0.0,0.0,0.0,0.0,0.0,0.0,0.0,0.0,0.0,0.0,0.0,0.0,0.0,0.0,0.0,0.0,0.0,0.0,0.0,0.0,0.0,0.0,0.0,0.0,0.0,0.0,0.0,0.0,0.0,0.0,0.0,0.0,0.0,0.0,0.0,0.0,0.0,0.0,0.0,0.0,0.0,0.0,0.0,0.0,0.0,0.0,0.0,0.0,0.0,0.0,0.0,0.0,0.0,0.0,0.0,0.0,0.0,0.0,0.0,0.0,0.0,0.0,0.0,0.0,0.0,0.0,0.0,0.0,0.0,0.0,0.0,0.0,0.0,0.0,0.0,0.0,0.0,0.0,0.0,0.0,0.0,0.0,0.0,0.0,0.0,0.0,0.0,0.0,0.0,0.0,0.0,0.0,0.0,0.0,0.0,0.0,0.0,0.0,0.0,0.0,0.0,0.0,0.0,0.0,0.0,0.0,0.0,0.0,0.0,0.0,0.0,0.0,0.0,0.0,0.0,0.0,0.0,0.0,0.0,0.0,0.0,0.0,0.0,0.0,0.0,0.0,0.0,0.0,0.0,0.0,0.0,0.0,0.0,0.0,0.0,0.0,0.0,0.0,0.0,0.0,0.0,0.0,0.0,0.0,0.0,0.0,0.0,0.0,0.0,0.0,0.0,0.0,0.0,0.0,0.0,0.0,0.0,0.0,0.0,0.0,0.0,0.0,0.0,0.0,0.0,0.0,0.0,0.0,0.0,0.0,0.0,0.0,0.0,0.0,0.0,0.0,0.0,0.0,0.0,0.0,0.0,0.0,0.0,0.0,0.0,0.0,0.0,0.0,0.0,0.0,0.0,0.0,0.0,0.0,0.0,0.0,0.0,0.0,0.0,0.0,0.0,0.0,0.0,0.0,0.0,0.0,0.0,0.0,0.0,0.0,0.0,0.0,0.0,0.0,0.0,0.0,0.0,0.0,0.0,0.0,0.0,0.0,0.0,0.0,0.0,0.0,0.0,0.0,0.0,0.0,0.0,0.0,0.0,0.0,0.0,0.0,0.0,0.0,0.0,0.0,0.0,0.0,0.0,0.0,0.0,0.0,0.0,0.0,0.0,0.0,0.0,0.0,0.0,0.0,0.0,0.0,0.0,0.0,0.0,0.0,0.0,0.0,0.0,0.0,0.0,0.0,0.0,0.0,0.0,0.0,0.0,0.0,0.0,0.0,0.0,0.0,0.0,0.0,0.0,0.0,0.0,0.0,0.0,0.0,0.0,0.0,0.0,0.0,0.0,0.0,0.0,0.0,0.0,0.0,0.0,0.0,0.0,0.0,0.0,0.0,0.0,0.0,0.0,0.0,0.0,0.0,0.0,0.0,0.0,0.0,0.0,0.0,0.0,0.0,0.0,0.0,0.0,0.0,0.0,0.0,0.0,0.0,0.0,0.0,0.0,0.0,0.0,0.0,0.0,0.0,0.0,0.0,0.0,0.0,0.0,0.0,0.0,0.0,0.0,0.0,0.0,0.0,0.0,0.0,0.0,0.0,0.0,0.0,0.0,0.0,0.0,0.0,0.0,0.0,0.0,0.0,0.0,0.0,0.0,0.0,0.0,0.0,0.0,0.0,0.0,0.0,0.0,0.0,0.0,0.0,0.0,0.0,0.0,0.0,0.0,0.0,0.0,0.0,0.0,0.0,0.0,0.0,0.0,0.0,0.0,0.0,0.0,0.0,0.0,0.0,0.0,0.0,0.0,0.0,0.0,0.0,0.0,0.0,0.0,0.0,0.0,0.0,0.0,0.0,0.0,0.0,0.0,0.0,0.0,0.0,0.0,0.0,0.0,0.0,0.0,0.0,0.0,0.0,0.0,0.0,0.0,0.0,0.0,0.0,0.0,0.0,0.0,0.0,0.0,0.0,0.0,0.0,0.0,0.0,0.0,0.0,0.0,0.0,0.0,0.0,0.0,0.0,0.0,0.0,0.0,0.0,0.0,0.0,0.0,0.0,0.0,0.0,0.0,0.0,0.0,0.0,0.0,0.0,0.0,0.0,0.0,0.0,0.0,0.0,0.0,0.0,0.0,0.0,0.0,0.0,0.0,0.0,0.0,0.0,0.0,0.0,0.0,0.0,0.0,0.0,0.0,0.0,0.0,0.0,0.0,0.0,0.0,0.0,0.0,0.0,0.0,0.0,0.0,0.0,0.0,0.0,0.0,0.0,0.0,0.0,0.0,0.0,0.0,0.0,0.0,0.0,0.0,0.0,0.0,0.0,0.0,0.0,0.0,0.0,0.0,0.0,0.0,0.0,0.0,0.0,0.0,0.0,0.0,0.0,0.0,0.0,0.0,0.0,0.0,0.0,0.0,0.0,0.0,0.0,0.0,0.0,0.0,0.0,0.0,0.0,0.0,0.0,0.0,0.0,0.0,0.0,0.0,0.0,0.0,0.0,0.0,0.0,0.0,0.0,0.0,0.0,0.0,0.0,0.0,0.0,0.0,0.0,0.0,0.0,0.0,0.0,0.0,0.0,0.0,0.0,0.0,0.0,0.0,0.0,0.0,0.0,0.0,0.0,0.0,0.0,0.0,0.0,0.0,0.0,0.0,0.0,0.0,0.0,0.0,0.0,0.0,0.0,0.0,0.0,0.0,0.0,0.0,0.0,0.0,0.0,0.0,0.0,0.0,0.0,0.0,0.0,0.0,0.0,0.0,0.0,0.0,0.0,0.0,0.0,0.0,0.0,0.0,0.0,0.0,0.0,0.0,0.0,0.0,0.0,0.0,0.0,0.0,0.0,0.0,0.0,0.0,0.0,0.0,0.0,0.0,0.0,0.0,0.0,0.0,0.0,0.0,0.0,0.0,0.0,0.0,0.0,0.0,0.0,0.0,0.0,0.0,0.0,0.0,0.0,0.0,0.0,0.0,0.0,0.0,0.0,0.0,0.0,0.0,0.0,0.0,0.0,0.0,0.0,0.0,0.0,0.0,0.0,0.0,0.0,0.0,0.0,0.0,0.0,0.0,0.0,0.0,0.0,0.0,0.0,0.0,0.0,0.0,0.0,0.0,0.0,0.0,1.4801,0.0,0.0,0.0,0.0,0.0,0.0,0.0,0.0,0.0,0.0,0.0,0.0,0.0,0.0,0.0,0.0,0.0,0.0,0.0,0.0,0.0,0.0,0.0,0.0,0.0,0.0,0.0,0.0,0.0,0.0,0.0,0.0,0.0,0.0,0.0,0.0,0.0,0.0,0.0,0.0,0.0,0.0,0.0,0.0,0.0,0.0,0.0,0.0,0.0,0.0,0.0,0.0,0.0,0.0,0.0,0.0,0.0,0.0,0.0,0.0,0.0,0.0,0.0,0.0,0.0,0.0,0.0,0.0,0.0,0.0,0.0,0.0,0.0,0.0,0.0,0.0,0.0,0.0,0.0,0.0,0.0,0.0,0.0,0.0,0.0,0.0,0.0,0.0,0.0,0.0,0.0,0.0,0.0,0.0,0.0,0.0,0.0,0.0,0.0,0.0,0.0,0.0,0.0,0.0,0.0,0.0,0.0,0.0,0.0,0.0,1.7081,1.6804,1.615,1.5515,1.4894,0.0,0.0,0.0,0.0,0.0,0.0,0.0,0.0,0.0,0.0,0.0,0.0,0.0,0.0,0.0,0.0,0.0,0.0,0.0,0.0,0.0,0.0,0.0,0.0,0.0,0.0,0.0,0.0,0.0,0.0,0.0,0.0,0.0,0.0,0.0,0.0,0.0,0.0,0.0,0.0,0.0,0.0,0.0,0.0,0.0,0.0,0.0,0.0,0.0,0.0,0.0,0.0,0.0,0.0,0.0,0.0,0.0,0.0,0.0,0.0,0.0,0.0,0.0,0.0,0.0,0.0,0.0,0.0,0.0,0.0,0.0,0.0,0.0,0.0,0.0,0.0,0.0,0.0,0.0,0.0,0.0,0.0,0.0,0.0,0.0,0.0,0.0,0.0,0.0,0.0,0.0,0.0,0.0,0.0,0.0,0.0,0.0,0.0,0.0,0.0,0.0,0.0,0.0,0.0,0.0,0.0,0.0,0.0,0.0,0.0,0.0,0.0,1.6262,1.5645,1.505,0.0,0.0,0.0,0.0,0.0,0.0,0.0,0.0,0.0,0.0,0.0,0.0,0.0,0.0,0.0,0.0,0.0,0.0,0.0,0.0,0.0,0.0,0.0,0.0,0.0,0.0,0.0,0.0,0.0,0.0,0.0,0.0,0.0,0.0,0.0,0.0,0.0,0.0,0.0,0.0,0.0,0.0,0.0,0.0,0.0,0.0,0.0,0.0,0.0,0.0,0.0,0.0,0.0,0.0,0.0,0.0,0.0,0.0,0.0,0.0,0.0,0.0,0.0,0.0,0.0,0.0,0.0,0.0,0.0,0.0,0.0,0.0,0.0,0.0,0.0,0.0,0.0,0.0,0.0,0.0,0.0,0.0,0.0,0.0,0.0,0.0,0.0,0.0,0.0,0.0,0.0,0.0,0.0,0.0,0.0,0.0,0.0,0.0,0.0,0.0,0.0,0.0,0.0,0.0,0.0,0.0,0.0,0.0,0.0,0.0,1.6948,1.707,1.6423,0.0,1.5393,0.0,0.0,0.0,0.0,0.0,0.0,0.0,0.0,0.0,0.0,0.0,0.0,0.0,0.0,0.0,0.0,0.0,0.0,0.0,0.0,0.0,0.0,0.0,0.0,0.0,0.0,0.0,0.0,0.0,0.0,0.0,0.0,0.0,0.0,0.0,0.0,0.0,0.0,0.0,0.0,0.0,0.0,0.0,0.0,0.0,0.0,0.0,0.0,0.0,0.0,0.0,0.0,0.0,0.0,0.0,0.0,0.0,0.0,0.0,0.0,0.0,0.0,0.0,0.0,0.0,0.0,0.0,0.0,0.0,0.0,0.0,0.0,0.0,0.0,0.0,0.0,0.0,0.0,0.0,0.0,0.0,0.0,0.0,0.0,0.0,0.0,0.0,0.0,0.0,0.0,0.0,0.0,0.0,0.0,0.0,0.0,0.0,0.0,0.0,0.0,0.0,0.0,0.0,0.0,0.0,0.0,0.0,0.0,0.0,0.0,1.5716,1.5841,1.5282,1.491,0.0,0.0,0.0,0.0,0.0,0.0,0.0,0.0,0.0,0.0,0.0,0.0,0.0,0.0,0.0,0.0,0.0,0.0,0.0,0.0,0.0,0.0,0.0,0.0,0.0,0.0,0.0,0.0,0.0,0.0,0.0,0.0,0.0,0.0,0.0,0.0,0.0,0.0,0.0,0.0,0.0,0.0,0.0,0.0,0.0,0.0,0.0,0.0,0.0,0.0,0.0,0.0,0.0,0.0,0.0,0.0,0.0,0.0,0.0,0.0,0.0,0.0,0.0,0.0,0.0,0.0,0.0,0.0,0.0,0.0,0.0,0.0,0.0,0.0,0.0,0.0,0.0,0.0,0.0,0.0,0.0,0.0,0.0,0.0,0.0,0.0,0.0,0.0,0.0,0.0,0.0,0.0,0.0,0.0,0.0,0.0,0.0,0.0,0.0,0.0,0.0,0.0,0.0,0.0,0.0,0.0,0.0,0.0,0.0,0.0,1.4766,1.4915,1.5057,1.4555,1.4312,1.4432,0.0,0.0,0.0,0.0,0.0,0.0,0.0,0.0,0.0,0.0,0.0,0.0,0.0,0.0,0.0,0.0,0.0,0.0,0.0,0.0,0.0,0.0,0.0,0.0,0.0,0.0,0.0,0.0,0.0,0.0,0.0,0.0,0.0,0.0,0.0,0.0,0.0,0.0,0.0,0.0,0.0,0.0,0.0,0.0,0.0,0.0,0.0,0.0,0.0,0.0,0.0,0.0,0.0,0.0,0.0,0.0,0.0,0.0,0.0,0.0,0.0,0.0,0.0,0.0,0.0,0.0,0.0,0.0,0.0,0.0,0.0,0.0,0.0,0.0,0.0,0.0,0.0,0.0,0.0,0.0,0.0,0.0,0.0,0.0,0.0,0.0,0.0,0.0,0.0,0.0,0.0,0.0,0.0,0.0,0.0,0.0,0.0,0.0,0.0,0.0,0.0,0.0,0.0,0.0,0.0,0.0,0.0,0.0,1.4654,1.4814,1.5039,1.5336,1.4757,1.4429,0.0,0.0,0.0,0.0,0.0,0.0,0.0,0.0,0.0,0.0,0.0,0.0,0.0,0.0,0.0,0.0,0.0,0.0,0.0,0.0,0.0,0.0,0.0,0.0,0.0,0.0,0.0,0.0,0.0,0.0,0.0,0.0,0.0,0.0,0.0,0.0,0.0,0.0,0.0,0.0,0.0,0.0,0.0,0.0,0.0,0.0,0.0,0.0,0.0,0.0,0.0,0.0,0.0,0.0,0.0,0.0,0.0,0.0,0.0,0.0,0.0,0.0,0.0,0.0,0.0,0.0,0.0,0.0,0.0,0.0,0.0,0.0,0.0,0.0,0.0,0.0,0.0,0.0,0.0,0.0,0.0,0.0,0.0,0.0,0.0,0.0,0.0,0.0,0.0,0.0,0.0,0.0,0.0,0.0,0.0,0.0,0.0,0.0,0.0,0.0,0.0,0.0,0.0,0.0,0.0,0.0,0.0,0.0,0.0,1.4046,1.4308,1.4558,1.4746,1.4559,1.4474,0.0,0.0,0.0,0.0,0.0,0.0,0.0,0.0,0.0,0.0,0.0,0.0,0.0,0.0,0.0,0.0,0.0,0.0,0.0,0.0,0.0,0.0,0.0,0.0,0.0,0.0,0.0,0.0,0.0,0.0,0.0,0.0,0.0,0.0,0.0,0.0,0.0,0.0,0.0,0.0,0.0,0.0,0.0,0.0,0.0,0.0,0.0,0.0,0.0,0.0,0.0,0.0,0.0,0.0,0.0,0.0,0.0,0.0,0.0,0.0,0.0,0.0,0.0,0.0,0.0,0.0,0.0,0.0,0.0,0.0,0.0,0.0,0.0,0.0,0.0,0.0,0.0,0.0,0.0,0.0,0.0,0.0,0.0,0.0,0.0,0.0,0.0,0.0,0.0,0.0,0.0,0.0,0.0,0.0,0.0,0.0,0.0,0.0,0.0,0.0,0.0,0.0,0.0,0.0,0.0,0.0,0.0,0.0,0.0,1.4208,0.0,1.4685,1.4806,1.4605,1.4497,0.0,0.0,0.0,0.0,0.0,0.0,0.0,0.0,0.0,0.0,0.0,0.0,0.0,0.0,0.0,0.0,0.0,0.0,0.0,0.0,0.0,0.0,0.0,0.0,0.0,0.0,0.0,0.0,0.0,0.0,0.0,0.0,0.0,0.0,0.0,0.0,0.0,0.0,0.0,0.0,0.0,0.0,0.0,0.0,0.0,0.0,0.0,0.0,0.0,0.0,0.0,0.0,0.0,0.0,0.0,0.0,0.0,0.0,0.0,0.0,0.0,0.0,0.0,0.0,0.0,0.0,0.0,0.0,0.0,0.0,0.0,0.0,0.0,0.0,0.0,0.0,0.0,0.0,0.0,0.0,0.0,0.0,0.0,0.0,0.0,0.0,0.0,0.0,0.0,0.0,0.0,0.0,0.0,0.0,0.0,0.0,0.0,0.0,0.0,0.0,0.0,0.0,0.0,0.0,0.0,0.0,0.0,0.0,1.4189,1.5246,1.5425,1.557,1.5673,1.4943,1.4527,0.0,0.0,0.0,0.0,0.0,0.0,0.0,0.0,0.0,0.0,0.0,0.0,0.0,0.0,0.0,0.0,0.0,0.0,0.0,0.0,0.0,0.0,0.0,0.0,0.0,0.0,0.0,0.0,0.0,0.0,0.0,0.0,0.0,0.0,0.0,0.0,0.0,0.0,0.0,0.0,0.0,0.0,0.0,0.0,0.0,0.0,0.0,0.0,0.0,0.0,0.0,0.0,0.0,0.0,0.0,0.0,0.0,0.0,0.0,0.0,0.0,0.0,0.0,0.0,0.0,0.0,0.0,0.0,0.0,0.0,0.0,0.0,0.0,0.0,0.0,0.0,0.0,0.0,0.0,0.0,0.0,0.0,0.0,0.0,0.0,0.0,0.0,0.0,0.0,0.0,0.0,0.0,0.0,0.0,0.0,0.0,0.0,0.0,0.0,0.0,0.0,0.0,0.0,0.0,0.0,0.0,0.0,0.0,0.0,1.6105,1.6316,1.6456,1.649,1.5747,1.5325,0.0,0.0,0.0,0.0,0.0,0.0,0.0,0.0,0.0,0.0,0.0,0.0,0.0,0.0,0.0,0.0,0.0,0.0,0.0,0.0,0.0,0.0,0.0,0.0,0.0,0.0,0.0,0.0,0.0,0.0,0.0,0.0,0.0,0.0,0.0,0.0,0.0,0.0,0.0,0.0,0.0,0.0,0.0,0.0,0.0,0.0,0.0,0.0,0.0,0.0,0.0,0.0,0.0,0.0,0.0,0.0,0.0,0.0,0.0,0.0,0.0,0.0,0.0,0.0,0.0,0.0,0.0,0.0,0.0,0.0,0.0,0.0,0.0,0.0,0.0,0.0,0.0,0.0,0.0,0.0,0.0,0.0,0.0,0.0,0.0,0.0,0.0,0.0,0.0,0.0,0.0,0.0,0.0,0.0,0.0,0.0,0.0,0.0,0.0,0.0,0.0,0.0,0.0,0.0,0.0,0.0,0.0,0.0,0.0,1.7891,1.7755,1.7698,1.7793,1.7022,1.6448,1.6145,0.0,0.0,0.0,0.0,0.0,0.0,0.0,0.0,0.0,0.0,0.0,0.0,0.0,0.0,0.0,0.0,0.0,0.0,0.0,0.0,0.0,0.0,0.0,0.0,0.0,0.0,0.0,0.0,0.0,0.0,0.0,0.0,0.0,0.0,0.0,0.0,0.0,0.0,0.0,0.0,0.0,0.0,0.0,0.0,0.0,0.0,0.0,0.0,0.0,0.0,0.0,0.0,0.0,0.0,0.0,0.0,0.0,0.0,0.0,0.0,0.0,0.0,0.0,0.0,0.0,0.0,0.0,0.0,0.0,0.0,0.0,0.0,0.0,0.0,0.0,0.0,0.0,0.0,0.0,0.0,0.0,0.0,0.0,0.0,0.0,0.0,0.0,0.0,0.0,0.0,0.0,0.0,0.0,0.0,0.0,0.0,0.0,0.0,0.0,0.0,0.0,0.0,0.0,0.0,0.0,0.0,0.0,0.0,2.0413,1.9699,1.9358,1.9436,1.861,1.781,0.0,0.0,0.0,0.0,0.0,0.0,0.0,0.0,0.0,0.0,0.0,0.0,0.0,0.0,0.0,0.0,0.0,0.0,0.0,0.0,0.0,0.0,0.0,0.0,0.0,0.0,0.0,0.0,0.0,0.0,0.0,0.0,0.0,0.0,0.0,0.0,0.0,0.0,0.0,0.0,0.0,0.0,0.0,0.0,0.0,0.0,0.0,0.0,0.0,0.0,0.0,0.0,0.0,0.0,0.0,0.0,0.0,0.0,0.0,0.0,0.0,0.0,0.0,0.0,0.0,0.0,0.0,0.0,0.0,0.0,0.0,0.0,0.0,0.0,0.0,0.0,0.0,0.0,0.0,0.0,0.0,0.0,0.0,0.0,0.0,0.0,0.0,0.0,0.0,0.0,0.0,0.0,0.0,0.0,0.0,0.0,0.0,0.0,0.0,0.0,0.0,0.0,0.0,0.0,0.0,0.0,0.0,0.0,0.0,2.2045,2.1986,2.1655,2.1129,1.9752,1.8901,0.0,0.0,0.0,0.0,0.0,0.0,0.0,0.0,0.0,0.0,0.0,0.0,0.0,0.0,0.0,0.0,0.0,0.0,0.0,0.0,0.0,0.0,0.0,0.0,0.0,0.0,0.0,0.0,0.0,0.0,0.0,0.0,0.0,0.0,0.0,0.0,0.0,0.0,0.0,0.0,0.0,0.0,0.0,0.0,0.0,0.0,0.0,0.0,0.0,0.0,0.0,0.0,0.0,0.0,0.0,0.0,0.0,0.0,0.0,0.0,0.0,0.0,0.0,0.0,0.0,0.0,0.0,0.0,0.0,0.0,0.0,0.0,0.0,0.0,0.0,0.0,0.0,0.0,0.0,0.0,0.0,0.0,0.0,0.0,0.0,0.0,0.0,0.0,0.0,0.0,0.0,0.0,0.0,0.0,0.0,0.0,0.0,0.0,0.0,0.0,0.0,0.0,0.0,0.0,0.0,0.0,0.0,0.0,2.1662,2.3447,2.4188,2.422,2.3458,2.177,2.0561,0.0,0.0,0.0,0.0,0.0,0.0,0.0,0.0,0.0,0.0,0.0,0.0,0.0,0.0,0.0,0.0,0.0,0.0,0.0,0.0,0.0,0.0,0.0,0.0,0.0,0.0,0.0,0.0,0.0,0.0,0.0,0.0,0.0,0.0,0.0,0.0,0.0,0.0,0.0,0.0,0.0,0.0,0.0,0.0,0.0,0.0,0.0,0.0,0.0,0.0,0.0,0.0,0.0,0.0,0.0,0.0,0.0,0.0,0.0,0.0,0.0,0.0,0.0,0.0,0.0,0.0,0.0,0.0,0.0,0.0,0.0,0.0,0.0,0.0,0.0,0.0,0.0,0.0,0.0,0.0,0.0,0.0,0.0,0.0,0.0,0.0,0.0,0.0,0.0,0.0,0.0,0.0,0.0,0.0,0.0,0.0,0.0,0.0,0.0,0.0,0.0,0.0,0.0,0.0,0.0,0.0,0.0,0.0,2.3683,2.4538,2.6103,2.6586,2.5842,2.4102,2.2446,0.0,0.0,0.0,0.0,0.0,0.0,0.0,0.0,0.0,0.0,0.0,0.0,0.0,0.0,0.0,0.0,0.0,0.0,0.0,0.0,0.0,0.0,0.0,0.0,0.0,0.0,0.0,0.0,0.0,0.0,0.0,0.0,0.0,0.0,0.0,0.0,0.0,0.0,0.0,0.0,0.0,0.0,0.0,0.0,0.0,0.0,0.0,0.0,0.0,0.0,0.0,0.0,0.0,0.0,0.0,0.0,0.0,0.0,0.0,0.0,0.0,0.0,0.0,0.0,0.0,0.0,0.0,0.0,0.0,0.0,0.0,0.0,0.0,0.0,0.0,0.0,0.0,0.0,0.0,0.0,0.0,0.0,0.0,0.0,0.0,0.0,0.0,0.0,0.0,0.0,0.0,0.0,0.0,0.0,0.0,0.0,0.0,0.0,0.0,0.0,0.0,0.0,0.0,0.0,0.0,0.0,0.0,0.0,2.4688,2.5501,2.6516,2.7004,2.687,2.5119,2.3444,0.0,0.0,0.0,0.0,0.0,0.0,0.0,0.0,0.0,0.0,0.0,0.0,0.0,0.0,0.0,0.0,0.0,0.0,0.0,0.0,0.0,0.0,0.0,0.0,0.0,0.0,0.0,0.0,0.0,0.0,0.0,0.0,0.0,0.0,0.0,0.0,0.0,0.0,0.0,0.0,0.0,0.0,0.0,0.0,0.0,0.0,0.0,0.0,2.0301,0.0,0.0,0.0,0.0,0.0,0.0,0.0,0.0,0.0,0.0,0.0,0.0,0.0,0.0,0.0,0.0,0.0,0.0,0.0,0.0,0.0,0.0,0.0,0.0,0.0,0.0,0.0,0.0,0.0,0.0,0.0,0.0,0.0,0.0,0.0,0.0,0.0,0.0,0.0,0.0,0.0,0.0,0.0,0.0,0.0,0.0,0.0,0.0,0.0,0.0,0.0,0.0,0.0,0.0,0.0,0.0,0.0,0.0,0.0,2.5725,2.6592,2.7809,2.8299,2.7918,2.6635,2.496,0.0,0.0,0.0,0.0,0.0,0.0,0.0,0.0,0.0,0.0,0.0,0.0,0.0,0.0,0.0,0.0,0.0,0.0,0.0,0.0,0.0,0.0,0.0,0.0,0.0,0.0,0.0,0.0,0.0,0.0,0.0,0.0,0.0,0.0,0.0,0.0,0.0,0.0,0.0,0.0,0.0,0.0,0.0,0.0,0.0,0.0,0.0,0.0,0.0,0.0,0.0,0.0,0.0,0.0,0.0,0.0,0.0,0.0,0.0,0.0,0.0,0.0,0.0,0.0,0.0,0.0,0.0,0.0,0.0,0.0,0.0,0.0,0.0,0.0,0.0,0.0,0.0,0.0,0.0,0.0,0.0,0.0,0.0,0.0,0.0,0.0,0.0,0.0,0.0,0.0,0.0,0.0,0.0,0.0,0.0,0.0,0.0,0.0,0.0,0.0,0.0,0.0,0.0,0.0,0.0,0.0,0.0,2.4952,2.6715,2.7544,2.9166,2.9641,2.8848,2.8034,2.6361,2.3777,0.0,0.0,0.0,0.0,0.0,0.0,0.0,0.0,0.0,0.0,0.0,0.0,0.0,0.0,0.0,0.0,0.0,0.0,0.0,0.0,0.0,0.0,0.0,0.0,0.0,0.0,0.0,0.0,0.0,0.0,0.0,0.0,0.0,0.0,0.0,0.0,0.0,0.0,1.8182,2.0266,0.0,0.0,0.0,0.0,0.0,0.0,0.0,0.0,2.0923,0.0,0.0,0.0,0.0,0.0,0.0,0.0,0.0,0.0,0.0,0.0,0.0,0.0,0.0,0.0,0.0,0.0,0.0,0.0,0.0,0.0,0.0,0.0,0.0,0.0,0.0,0.0,0.0,0.0,0.0,0.0,0.0,0.0,0.0,0.0,0.0,0.0,0.0,0.0,0.0,0.0,0.0,0.0,0.0,0.0,0.0,0.0,0.0,0.0,0.0,0.0,0.0,0.0,0.0,0.0,0.0,2.2407,2.5662,2.7448,2.7691,2.931,2.9785,2.8989,2.8128,2.6487,2.4083,0.0,0.0,0.0,0.0,0.0,0.0,0.0,0.0,0.0,0.0,0.0,0.0,0.0,0.0,0.0,0.0,0.0,0.0,0.0,0.0,0.0,0.0,0.0,0.0,0.0,0.0,0.0,0.0,0.0,0.0,0.0,0.0,0.0,0.0,0.0,0.0,0.0,0.0,0.0,2.0929,2.1819,0.0,0.0,0.0,0.0,0.0,0.0,0.0,0.0,2.1323,0.0,0.0,0.0,0.0,0.0,0.0,0.0,0.0,0.0,0.0,0.0,0.0,0.0,0.0,0.0,0.0,0.0,0.0,0.0,0.0,0.0,0.0,0.0,0.0,0.0,0.0,0.0,0.0,0.0,0.0,0.0,0.0,0.0,0.0,0.0,0.0,0.0,0.0,0.0,0.0,0.0,0.0,0.0,0.0,0.0,0.0,0.0,0.0,0.0,0.0,0.0,0.0,0.0,0.0,0.0,2.2657,2.5907,2.7676,2.7782,2.8979,2.9454,2.9038,2.736,2.5691,0.0,0.0,0.0,0.0,0.0,0.0,0.0,0.0,0.0,0.0,0.0,0.0,0.0,0.0,0.0,0.0,0.0,0.0,0.0,0.0,0.0,0.0,0.0,0.0,0.0,0.0,0.0,0.0,0.0,0.0,0.0,0.0,0.0,0.0,0.0,0.0,0.0,0.0,0.0,0.0,2.1711,2.2364,2.274,0.0,0.0,0.0,0.0,0.0,0.0,2.2476,2.2307,0.0,0.0,0.0,0.0,0.0,0.0,0.0,0.0,0.0,0.0,0.0,0.0,0.0,0.0,0.0,0.0,0.0,0.0,0.0,0.0,0.0,0.0,0.0,0.0,0.0,0.0,0.0,0.0,0.0,0.0,0.0,0.0,0.0,0.0,0.0,0.0,0.0,0.0,0.0,0.0,0.0,0.0,0.0,0.0,0.0,0.0,0.0,0.0,0.0,0.0,0.0,0.0,0.0,0.0,0.0,2.271,2.5826,2.7499,2.7591,2.8404,2.878,2.8569,2.6445,2.4849,0.0,0.0,0.0,0.0,0.0,0.0,0.0,0.0,0.0,0.0,0.0,0.0,0.0,0.0,0.0,0.0,0.0,0.0,0.0,0.0,0.0,0.0,0.0,0.0,0.0,0.0,0.0,0.0,0.0,0.0,0.0,0.0,0.0,0.0,0.0,0.0,0.0,0.0,0.0,0.0,0.0,2.3375,2.3528,2.4028,0.0,0.0,0.0,0.0,2.424,2.3758,0.0,0.0,0.0,0.0,0.0,0.0,0.0,0.0,0.0,0.0,0.0,0.0,0.0,0.0,0.0,0.0,0.0,0.0,0.0,0.0,0.0,0.0,0.0,0.0,0.0,0.0,0.0,0.0,0.0,0.0,0.0,0.0,0.0,0.0,0.0,0.0,0.0,0.0,0.0,0.0,0.0,0.0,0.0,0.0,0.0,0.0,0.0,0.0,0.0,0.0,0.0,0.0,0.0,0.0,0.0,0.0,2.269,2.5313,2.6721,2.6786,2.7599,2.7681,2.6909,2.5846,2.4558,0.0,0.0,0.0,0.0,0.0,0.0,0.0,0.0,0.0,0.0,0.0,0.0,0.0,0.0,0.0,0.0,0.0,0.0,0.0,0.0,0.0,0.0,0.0,0.0,0.0,0.0,0.0,0.0,0.0,0.0,0.0,0.0,0.0,0.0,0.0,0.0,0.0,0.0,0.0,0.0,0.0,2.5293,2.606,2.5577,2.5135,0.0,0.0,0.0,2.5154,2.5076,0.0,0.0,0.0,0.0,0.0,0.0,0.0,0.0,0.0,0.0,0.0,0.0,0.0,0.0,0.0,0.0,0.0,0.0,0.0,0.0,0.0,0.0,0.0,0.0,0.0,0.0,0.0,0.0,0.0,0.0,0.0,0.0,0.0,0.0,0.0,0.0,0.0,0.0,0.0,0.0,0.0,0.0,0.0,0.0,0.0,0.0,0.0,0.0,0.0,0.0,0.0,0.0,0.0,0.0,0.0,2.2584,2.2752,2.5276,2.6616,2.6618,2.6967,2.6986,2.6601,2.4832,2.3543,0.0,0.0,0.0,0.0,0.0,0.0,0.0,0.0,0.0,0.0,0.0,0.0,0.0,0.0,0.0,0.0,0.0,0.0,0.0,0.0,0.0,0.0,0.0,0.0,0.0,0.0,0.0,0.0,0.0,0.0,0.0,0.0,0.0,0.0,0.0,0.0,0.0,0.0,0.0,0.0,0.0,0.0,2.7159,2.7005,0.0,0.0,0.0,2.6767,2.6707,0.0,0.0,0.0,0.0,0.0,0.0,0.0,0.0,0.0,0.0,0.0,0.0,0.0,0.0,0.0,0.0,0.0,0.0,0.0,0.0,0.0,0.0,0.0,0.0,0.0,0.0,0.0,0.0,0.0,0.0,0.0,0.0,0.0,0.0,0.0,0.0,0.0,0.0,0.0,0.0,0.0,0.0,0.0,0.0,0.0,0.0,0.0,0.0,0.0,0.0,0.0,0.0,0.0,0.0,0.0,0.0,0.0,2.2767,2.5061,2.6297,2.6304,2.6301,2.6309,2.6263,2.4034,0.0,0.0,0.0,0.0,0.0,0.0,0.0,0.0,0.0,0.0,0.0,0.0,0.0,0.0,0.0,0.0,0.0,0.0,0.0,0.0,0.0,0.0,0.0,0.0,0.0,0.0,0.0,0.0,0.0,0.0,0.0,0.0,0.0,0.0,0.0,0.0,0.0,0.0,0.0,0.0,0.0,0.0,2.6795,2.828,2.848,2.8546,0.0,0.0,2.8219,2.8378,2.7474,2.6752,0.0,0.0,0.0,0.0,0.0,0.0,0.0,0.0,0.0,0.0,0.0,0.0,0.0,0.0,0.0,0.0,0.0,0.0,0.0,0.0,0.0,0.0,0.0,0.0,0.0,0.0,0.0,0.0,0.0,0.0,0.0,0.0,0.0,0.0,0.0,0.0,0.0,0.0,0.0,0.0,0.0,0.0,0.0,0.0,0.0,0.0,0.0,0.0,0.0,0.0,0.0,0.0,0.0,0.0,0.0,2.2855,2.451,2.5416,2.5471,2.5468,2.5491,2.5451,2.3794,2.2896,0.0,0.0,0.0,0.0,0.0,0.0,0.0,0.0,0.0,0.0,0.0,0.0,0.0,0.0,0.0,0.0,0.0,0.0,0.0,0.0,0.0,0.0,0.0,0.0,0.0,0.0,0.0,0.0,0.0,0.0,0.0,0.0,0.0,0.0,0.0,0.0,0.0,0.0,0.0,0.0,0.0,2.9149,3.0026,3.0088,3.0335,0.0,0.0,2.9115,2.9911,2.8609,2.7487,2.736,0.0,0.0,0.0,0.0,0.0,0.0,0.0,0.0,0.0,0.0,0.0,0.0,0.0,0.0,0.0,0.0,0.0,0.0,0.0,0.0,0.0,0.0,0.0,0.0,0.0,0.0,0.0,0.0,0.0,0.0,0.0,0.0,0.0,0.0,0.0,0.0,0.0,0.0,0.0,0.0,0.0,0.0,0.0,0.0,0.0,0.0,0.0,0.0,0.0,0.0,0.0,0.0,0.0,2.2801,2.2822,2.4459,2.5322,2.5398,2.539,2.54,2.5398,2.4296,2.3445,0.0,0.0,0.0,0.0,0.0,0.0,0.0,0.0,0.0,0.0,0.0,0.0,0.0,0.0,0.0,0.0,0.0,0.0,0.0,0.0,0.0,0.0,0.0,0.0,0.0,0.0,0.0,0.0,1.9977,2.0432,2.0779,0.0,0.0,0.0,0.0,0.0,0.0,0.0,0.0,0.0,0.0,3.0132,3.0932,3.1446,0.0,0.0,3.115,3.0479,3.0714,2.8894,2.7403,2.7233,2.5047,0.0,0.0,0.0,0.0,0.0,0.0,0.0,0.0,0.0,0.0,0.0,0.0,0.0,0.0,0.0,0.0,0.0,0.0,0.0,0.0,0.0,0.0,0.0,0.0,0.0,0.0,0.0,0.0,0.0,0.0,0.0,0.0,0.0,0.0,0.0,0.0,0.0,0.0,0.0,0.0,0.0,0.0,0.0,0.0,0.0,0.0,0.0,0.0,0.0,0.0,0.0,0.0,2.2936,2.3193,2.4615,2.5368,2.5415,2.5438,2.5437,2.5431,2.4662,2.3943,0.0,0.0,0.0,0.0,0.0,0.0,0.0,0.0,0.0,0.0,0.0,0.0,0.0,0.0,0.0,0.0,0.0,0.0,0.0,0.0,0.0,0.0,0.0,0.0,0.0,0.0,0.0,0.0,2.0294,2.0654,2.0658,0.0,0.0,0.0,0.0,0.0,0.0,0.0,0.0,0.0,0.0,3.0918,3.1706,3.2264,3.2648,3.2807,3.1665,3.0801,3.0943,2.9093,2.757,2.7422,0.0,0.0,0.0,0.0,0.0,0.0,0.0,0.0,0.0,0.0,0.0,0.0,0.0,0.0,0.0,0.0,0.0,0.0,0.0,0.0,0.0,0.0,0.0,0.0,0.0,0.0,0.0,0.0,0.0,0.0,1.9586,0.0,0.0,0.0,0.0,0.0,0.0,0.0,0.0,0.0,0.0,0.0,0.0,0.0,0.0,0.0,0.0,0.0,0.0,0.0,0.0,0.0,0.0,0.0,2.4064,2.4974,2.5458,2.5511,2.5499,2.5534,2.5579,2.4755,2.4324,2.4342,0.0,0.0,0.0,0.0,0.0,0.0,0.0,0.0,0.0,0.0,0.0,0.0,0.0,0.0,0.0,0.0,0.0,0.0,0.0,0.0,0.0,0.0,0.0,0.0,0.0,0.0,2.1314,2.1446,2.1427,0.0,0.0,0.0,0.0,0.0,0.0,0.0,0.0,0.0,0.0,2.9311,3.1657,3.2427,3.2424,3.2576,3.3235,3.1198,2.9834,3.0611,2.9286,2.816,0.0,0.0,0.0,0.0,0.0,0.0,0.0,0.0,0.0,0.0,0.0,0.0,0.0,0.0,0.0,0.0,0.0,0.0,0.0,0.0,0.0,0.0,0.0,0.0,0.0,0.0,0.0,2.1066,2.0544,0.0,0.0,0.0,0.0,0.0,0.0,0.0,0.0,0.0,0.0,0.0,2.2765,2.2764,0.0,0.0,0.0,0.0,0.0,0.0,0.0,0.0,0.0,0.0,0.0,0.0,2.409,2.4947,2.5801,2.6287,2.6356,2.5838,2.5572,2.5604,2.5344,2.4967,2.4415,0.0,0.0,0.0,0.0,0.0,0.0,0.0,0.0,0.0,0.0,0.0,0.0,0.0,0.0,0.0,0.0,0.0,0.0,0.0,0.0,0.0,0.0,0.0,0.0,0.0,2.1202,0.0,0.0,0.0,0.0,0.0,0.0,0.0,0.0,0.0,0.0,0.0,2.6541,2.7911,3.0448,3.2005,3.1701,3.2472,3.2896,0.0,0.0,0.0,0.0,0.0,0.0,0.0,0.0,0.0,0.0,0.0,0.0,0.0,0.0,2.5915,2.3791,2.3387,2.3387,2.3405,0.0,0.0,0.0,0.0,0.0,0.0,0.0,0.0,0.0,0.0,0.0,0.0,0.0,0.0,0.0,0.0,2.1572,0.0,0.0,0.0,0.0,0.0,0.0,0.0,0.0,2.3582,2.3962,2.4546,2.4579,2.4413,0.0,2.4122,2.3531,0.0,0.0,0.0,0.0,0.0,0.0,0.0,0.0,2.502,2.5894,2.6748,2.7061,2.6823,2.6326,2.5912,2.5655,2.5685,2.5438,2.4876,2.4017,2.3294,0.0,0.0,0.0,0.0,0.0,0.0,0.0,0.0,0.0,0.0,0.0,0.0,0.0,0.0,0.0,0.0,0.0,0.0,0.0,0.0,0.0,0.0,0.0,2.162,0.0,0.0,0.0,0.0,0.0,0.0,0.0,0.0,0.0,2.5149,2.633,2.7563,2.8647,3.088,3.2171,3.1566,0.0,0.0,0.0,0.0,0.0,0.0,0.0,2.9176,2.9122,2.8682,2.8573,2.9334,2.991,3.0344,3.062,0.0,0.0,2.646,2.5873,2.5873,2.5878,2.6306,2.6806,2.7376,2.8306,2.9224,0.0,0.0,0.0,0.0,0.0,0.0,0.0,0.0,2.2721,2.2735,0.0,2.2644,0.0,0.0,0.0,0.0,0.0,0.0,0.0,0.0,2.5412,2.6317,2.7832,2.7854,2.7469,2.6717,2.6621,2.5791,2.4261,2.3392,0.0,0.0,0.0,0.0,0.0,0.0,2.598,2.6886,2.7738,2.7761,2.7042,2.6927,2.6521,2.5739,2.5703,2.5683,2.5663,2.4882,2.4432,2.4372,2.285,0.0,0.0,0.0,0.0,0.0,0.0,0.0,0.0,0.0,0.0,0.0,0.0,0.0,0.0,0.0,0.0,0.0,0.0,0.0,0.0,2.1632,0.0,0.0,0.0,0.0,0.0,0.0,0.0,0.0,0.0,0.0,2.5333,2.7224,2.8626,2.8679,0.0,0.0,0.0,0.0,3.2943,3.2798,3.2029,3.1452,3.1452,3.147,3.1452,3.1409,0.0,0.0,3.2516,3.2674,3.2956,3.3715,3.3807,3.2889,2.9831,2.9207,2.9152,2.9152,2.9225,2.9745,3.1097,3.1482,3.2021,2.546,0.0,0.0,0.0,0.0,2.3964,2.4638,2.534,2.5938,2.5579,2.4523,2.4446,0.0,0.0,0.0,0.0,0.0,0.0,2.6044,2.71,2.7723,2.8275,2.8761,2.8761,2.8654,2.8439,2.7828,2.7318,2.688,2.6646,2.528,2.2907,0.0,0.0,0.0,0.0,2.7236,2.8642,2.8977,2.8982,2.8751,2.7595,2.6553,2.5721,2.5703,2.5703,2.5703,2.5469,2.5039,2.4414,2.3945,0.0,0.0,0.0,0.0,0.0,0.0,0.0,0.0,0.0,0.0,0.0,0.0,0.0,0.0,0.0,0.0,0.0,0.0,0.0,2.3274,2.3362,2.3451,0.0,0.0,0.0,0.0,0.0,0.0,0.0,0.0,0.0,2.8181,2.886,2.9504,0.0,0.0,3.2584,3.1905,3.2399,3.2822,3.2736,0.0,0.0,0.0,3.2742,3.2926,3.235,3.3213,3.405,3.427,3.4828,3.533,3.555,3.5569,3.5238,3.4431,3.322,3.2479,3.2467,3.2876,3.3365,3.3867,3.4449,3.5,2.8686,2.7123,2.5164,2.4707,2.5352,2.6225,2.6742,2.7024,2.7871,2.7524,2.6343,2.6269,2.5663,2.4726,2.4689,0.0,0.0,0.0,2.8236,2.9387,2.9885,3.0297,3.0589,3.0639,3.0312,2.9704,2.9194,2.8622,2.8057,2.8032,2.7016,2.5067,0.0,0.0,2.6626,2.7501,2.8432,2.9458,2.9843,2.9856,2.9514,2.7884,2.658,2.5742,2.5703,2.5703,2.5703,2.5703,2.5449,2.4941,2.459,2.3945,0.0,0.0,0.0,0.0,0.0,0.0,0.0,0.0,0.0,0.0,0.0,2.0992,0.0,0.0,0.0,0.0,2.24,2.3142,2.4473,2.4281,0.0,0.0,0.0,0.0,0.0,0.0,0.0,2.6679,2.7971,2.9193,3.023,3.0642,3.0878,3.1078,3.2191,3.277,3.2174,0.0,3.3325,3.3573,3.3582,3.3683,3.4002,3.4468,3.4614,3.4149,3.4828,3.5617,3.5965,3.645,3.6861,3.7165,3.7257,3.7257,3.7257,3.6413,3.5495,3.4952,3.5176,3.5573,3.591,3.6395,3.6842,3.1618,3.1311,2.8932,2.797,2.8077,2.8878,2.8825,2.828,2.9062,2.8961,2.8217,2.8159,2.8071,2.8011,2.8069,0.0,2.93,2.9355,3.0278,3.1792,3.1852,3.2298,3.299,3.3047,3.2292,3.0826,3.0748,2.9958,2.8607,2.8465,2.8448,2.851,2.839,2.8308,2.8347,2.909,2.9547,2.9627,3.0397,3.0402,2.9606,2.7949,2.668,2.584,2.5723,2.5703,2.5703,2.5703,2.5703,2.5664,2.4941,2.4473,2.4355,0.0,0.0,0.0,0.0,0.0,0.0,0.0,0.0,0.0,0.0,0.0,0.0,0.0,0.0,0.0,2.376,0.0,2.5423,2.4851,0.0,0.0,0.0,2.4754,2.6237,2.6384,2.7214,2.9419,0.0,0.0,0.0,0.0,3.2502,3.1941,3.244,3.2865,3.2784,3.3384,3.4156,3.4791,3.4968,3.5279,3.5899,3.6211,3.6347,3.6376,3.6468,3.6769,3.7401,3.7566,3.7907,3.8469,3.8681,3.8644,3.8681,3.8505,3.823,3.6725,3.6505,3.6732,3.7375,3.7566,3.7786,3.3653,3.2498,3.1884,3.1258,3.0708,3.0887,3.1255,3.1712,3.1901,3.1555,3.0811,3.0788,3.0398,2.9818,3.0475,3.0865,3.1099,3.1718,3.2218,3.2641,3.3298,3.3715,3.3897,3.3969,3.3832,3.3459,3.2856,3.24,3.2039,3.1462,3.116,3.1128,3.0491,2.9868,2.9281,2.9479,2.9912,3.0559,3.0777,3.0467,2.9609,2.8555,2.7578,2.6719,2.6055,2.5703,2.5703,2.5703,2.5703,2.5703,2.5508,2.5078,2.4414,2.3398,0.0,0.0,0.0,0.0,0.0,0.0,0.0,0.0,0.0,2.1727,2.1702,0.0,2.3087,0.0,2.5132,2.6351,2.7198,2.7078,0.0,0.0,2.6898,2.6834,2.711,2.8085,2.8952,2.9412,3.0399,3.1412,3.2361,3.2556,3.2805,3.3223,3.3437,3.356,3.354,3.3687,3.4102,3.4821,3.5004,3.5316,3.6174,3.6824,3.7393,3.8028,3.8112,3.8193,3.8377,3.8414,3.8487,3.867,3.8699,3.8699,3.8699,3.8699,3.8597,3.823,3.8138,3.8167,3.8377,3.8395,3.8469,3.5981,3.5172,3.5172,3.4883,3.4352,3.3256,3.2801,3.2929,3.3317,3.3006,3.2218,3.2218,3.1965,3.1542,3.2025,3.2449,3.2836,3.3256,3.368,3.408,3.4546,3.4806,3.4821,3.4897,3.4755,3.4447,3.4025,3.3658,3.3318,3.289,3.2673,3.2667,3.2203,3.1736,3.1267,3.0564,3.0428,3.0897,3.0917,3.0468,2.9609,2.875,2.7891,2.7031,2.6152,2.5703,2.5703,2.5703,2.5703,2.5703,2.5703,2.5469,2.5,2.4159,2.3474,0.0,0.0,0.0,0.0,0.0,0.0,0.0,0.0,0.0,0.0,0.0,2.485,0.0,2.6645,0.0,2.7857,2.8189,2.8514,2.8833,2.907,2.9292,2.9521,3.0166,3.0684,3.093,3.1614,3.2385,3.3121,3.3167,3.3286,3.3758,3.3807,3.3807,3.3807,3.3807,3.4075,3.4857,3.5004,3.5445,3.6641,3.7199,3.7786,3.8469,3.8395,3.8164,3.8157,3.8182,3.8164,3.8182,3.8469,3.8699,3.8699,3.8699,3.8699,3.8699,3.8699,3.8699,3.8699,3.8699,3.8699,3.8084,3.8004,3.8004,3.8004,3.7819,3.5626,3.426,3.3603,3.4241,3.4029,3.3237,3.3234,3.3234,3.3234,3.3234,3.366,3.4359,3.4382,3.4763,3.5472,3.5499,3.5563,3.5619,3.5684,3.5339,3.4692,3.476,3.4418,3.3745,3.364,3.3569,3.3553,3.3456,3.3378,3.334,3.1953,3.1152,3.1074,3.0957,3.0527,2.9766,2.8906,2.8047,2.7187,2.6328,2.582,2.5703,2.5703,2.5703,2.5703,2.5703,2.5762,2.5839,2.5056,2.4621,0.0,2.3885,0.0,0.0,0.0,0.0,0.0,0.0,0.0,0.0,2.5871,2.7144,2.7989,2.8162,2.8258,2.8354,2.9109,2.9826,3.0449,3.0982,3.1562,3.206,3.2019,3.2167,3.2797,3.2859,3.312,3.3728,3.3822,3.3807,3.3807,3.3807,3.3807,3.3807,3.3807,3.4039,3.4759,3.4924,3.5481,3.6677,3.718,3.7522,3.812,3.779,3.7356,3.7345,3.7364,3.7364,3.7419,3.7845,3.8332,3.8498,3.8524,3.856,3.8652,3.8699,3.8699,3.8699,3.8699,3.8699,3.8642,3.8004,3.8004,3.8004,3.795,3.7492,3.718,3.7007,3.6469,3.5773,3.5019,3.5,3.5023,3.5023,3.5023,3.5096,3.5253,3.5252,3.5342,3.5499,3.5559,3.5615,3.5689,3.5744,3.5743,3.5641,3.5702,3.5656,3.55,3.4781,3.4452,3.4433,3.375,3.3379,3.3379,0.0,0.0,0.0,3.125,3.082,3.0644,2.9805,2.8945,2.8086,2.7207,0.0,2.5742,2.5703,2.5703,2.5703,2.5703,0.0,0.0,0.0,0.0,0.0,0.0,0.0,0.0,0.0,0.0,0.0,2.8945,2.8349,2.6369,2.7064,2.7994,2.88,2.9503,3.0212,3.0929,3.1677,3.211,3.2149,3.2117,3.2067,3.2002,3.2392,3.2729,3.2723,3.323,3.3625,3.3797,3.3814,3.3807,3.3807,3.3807,3.3807,3.3807,3.3807,3.3862,3.4045,3.4564,3.5052,3.5408,3.6075,3.6567,3.6707,3.6652,3.653,3.653,3.653,3.653,3.653,3.6659,3.7026,3.7595,3.7731,3.7962,3.856,3.8681,3.8699,3.8699,3.8699,3.8699,3.9646,0.0,3.9242,3.9223,0.0,3.9242,3.9242,3.9142,3.7873,3.6869,3.6077,3.5673,3.5503,3.5503,3.5503,3.5491,3.5495,3.5534,3.555,3.5544,3.5615,3.5677,3.575,3.582,3.5876,3.5958,3.5989,3.6005,3.5993,3.5566,3.5351,3.5351,3.4883,3.4687,3.4668,3.4258,3.3437,3.2207,3.1758,3.1348,3.0898,3.0059,2.9394,2.8945,0.0,0.0,0.0,0.0,0.0,0.0,0.0,0.0,0.0,0.0,0.0,2.8116,2.8063,2.8402,2.919,2.9615,3.0196,3.0992,3.1429,3.093,2.9231,2.9533,3.0102,3.0894,3.1391,3.1824,3.225,3.2945,3.333,3.3214,3.3364,3.3387,3.3155,3.3282,3.3394,3.328,3.3545,3.3807,3.3807,3.3807,3.3807,3.3807,3.3807,3.3807,3.3807,3.3807,3.3807,3.3825,3.4094,3.4552,3.4942,3.5316,3.5844,3.6138,3.5947,3.569,3.5672,3.5672,3.5653,3.569,3.5991,3.6457,3.6824,3.7217,3.7621,3.8036,3.8414,3.8681,3.8699,3.8699,3.8699,4.0492,4.0492,4.0492,4.0492,4.0492,4.0492,4.0492,4.04,0.0,0.0,0.0,3.6234,3.585,3.5734,3.5712,3.562,3.5509,3.5556,3.5609,3.5607,3.5693,3.5774,3.5838,3.5876,3.595,3.6007,3.6006,3.6013,3.6015,3.6015,3.6016,3.6016,3.6016,3.6016,3.5957,3.5293,3.418,3.2715,3.2344,3.1855,3.1133,3.0273,2.9746,2.9609,2.8906,2.8457,2.8301,2.8281,2.8281,2.8301,2.83,2.8433,2.8735,2.9347,2.9824,3.0074,3.069,3.1332,3.1959,3.2082,3.2518,3.3377,3.3407,3.2949,3.2006,3.1929,3.2199,3.2833,3.3038,3.3118,3.312,3.3761,3.4127,3.4002,3.4389,3.4537,3.4293,3.4099,3.3897,3.3834,3.3795,3.3807,3.3807,3.3807,3.3807,3.3807,3.3807,3.3807,3.3807,3.3807,3.3807,3.3825,3.3899,3.4057,3.4582,3.4759,3.5078,3.5569,3.5213,3.4821,3.4777,3.4784,3.4784,3.4791,3.5397,3.5789,3.6064,3.6677,3.729,3.7474,3.8138,3.8699,3.8699,3.8699,3.8699,4.0492,4.0492,4.0492,4.0492,4.0492,4.0492,4.0492,4.0419,3.9511,3.8627,3.7815,3.7715,3.7215,3.6523,3.6523,3.614,3.5512,3.5559,3.5626,0.0,3.5811,3.587,3.5881,3.5955,3.5976,3.6008,3.6013,3.6015,3.6016,3.6016,3.6016,3.6016,3.6016,3.6016,3.5996,3.5879,3.5332,3.4355,3.293,3.2148,3.2012,3.1172,3.0371,2.9629,2.9492,2.9062,2.832,2.832,2.8301,2.8299,2.8298,2.8935,3.034,3.0531,3.1176,3.253,3.2726,3.2778,3.2859,3.3458,3.4225,3.5049,3.5138,3.4465,3.291,3.2737,3.2776,3.2929,3.3538,3.393,3.3984,3.4522,3.4816,3.4652,3.4574,3.4414,3.4179,3.4011,3.387,3.382,3.3807,3.3807,3.3807,3.3807,3.3807,3.3807,3.3807,3.3807,3.3807,3.3807,3.3807,3.3807,3.3807,3.3844,3.4027,3.399,3.4137,3.41,3.4156,3.4082,3.4082,3.4082,3.4075,3.4009,3.4229,3.4504,3.5066,3.5899,3.6622,3.7254,3.8054,3.8589,3.867,3.8699,3.8699,4.0492,4.0492,4.0492,4.0492,4.0492,4.0492,4.0492,4.0473,4.0112,3.9473,3.8684,3.8219,3.7504,3.6754,3.6715,3.6275,3.5546,3.5618,3.5711,3.5805,3.5857,3.5921,3.5946,3.5983,3.601,3.6013,3.6015,3.6015,3.6016,3.6016,3.6016,3.6016,3.6016,3.6016,3.6016,3.6016,3.5781,3.541,3.418,3.3125,3.2226,3.1816,3.1191,3.0332,3.0293,3.0137,2.9726,2.9707,2.9686,2.9665,3.0106,3.0695,3.1406,3.2258,3.3019,3.3761,3.4193,3.4388,3.436,3.4706,3.508,3.5462,3.5503,3.5192,3.4388,3.4311,3.4282,3.4265,3.4576,3.4714,3.4645,3.4861,3.4912,3.4706,3.4504,3.4299,3.4093,3.3959,3.3868,3.382,3.3807,3.3807,3.3807,3.3807,3.3807,3.3807,3.3807,3.3807,3.3807,3.3807,3.3807,3.3807,3.3807,3.3807,3.3807,3.3807,3.3807,3.3807,3.3807,3.3807,3.3807,3.3807,3.3807,3.3807,3.3807,3.3954,3.4351,3.5023,3.5844,3.6677,3.7485,3.8091,3.8524,3.8699,3.8699,4.0492,4.0492,4.0492,4.0492,4.0492,4.0492,4.0492,4.0492,4.0492,4.0165,3.9531,3.8857,3.8084,3.7311,3.7088,3.6591,3.5935,3.578,3.5788,3.5891,3.5921,3.5951,3.5988,3.6013,3.6015,3.6015,3.6015,3.6016,3.6016,3.6016,3.6016,3.6016,3.6016,3.6016,3.6016,3.6016,3.6016,3.5976,3.5332,3.4258,3.2832,3.2578,3.2129,3.1543,3.1465,3.1465,3.1465,3.1464,3.1442,3.1437,3.2022,3.2439,3.2611,3.3717,3.4463,3.4618,3.5164,3.5489,3.5484,3.5503,3.5503,3.5503,3.5503,3.5484,3.55,3.549,3.5456,3.5394,3.5243,3.5176,3.5024,3.4917,3.4761,3.4537,3.4345,3.4185,3.4004,3.3933,3.3867,3.3814,3.3807,3.3807,3.3807,3.3807,3.3807,3.3807,3.3807,3.3807,3.3807,3.3807,3.3807,3.3807,3.3807,3.3807,3.3807,3.3807,3.3807,3.3807,3.3807,3.3807,3.3807,3.3807,3.3807,3.3807,3.3807,3.3844,3.388,3.4497,3.5243,3.5947,3.6824,3.7779,3.8542,3.8681,3.8699,4.0492,4.0492,4.0492,4.0492,4.0492,4.0492,4.0492,4.0492,4.0492,4.0454,4.0319,4.0281,3.9761,3.9015,3.8194,3.7443,3.6716,3.6103,3.5816,3.5912,3.5966,3.5988,3.6014,3.6015,3.6016,3.6016,3.6016,3.6016,3.6016,3.6016,3.6016,3.6016,3.6016,3.6016,3.6016,3.6016,3.6016,3.6016,3.5918,3.543,3.4492,3.3691,3.3242,3.3164,3.3144,3.3164,3.3065,3.3161,3.3154,3.3155,3.3143,3.3505,3.4136,3.4356,3.4723,3.54,3.5493,3.5489,3.5488,3.5503,3.5503,3.5503,3.5503,3.5503,3.5481,3.5449,3.5375,3.5304,3.5187,3.5066,3.4917,3.4732,3.4556,3.4351,3.4161,3.4016,3.3914,3.386,3.382,3.3814,3.3807,3.3807,3.3807,3.3807,3.3807,3.3807,3.3807,3.3807,3.3807,3.3807,3.3807,3.3807,3.3807,3.3807,3.3807,3.3807,3.3807,3.3807,3.3807,3.3807,3.3807,3.3807,3.3807,3.3807,3.3807,3.3807,3.3972,3.4417,3.4942,3.5371,3.6376,3.7687,3.8432,3.8608,3.8582,4.0492,4.0492,4.0492,4.0492,4.0492,4.0492,4.0492,4.0492,4.0492,4.0492,4.0492,4.0492,4.0062,3.9256,3.8422,3.7646,3.6919,3.6149,3.5833,3.5903,3.5955,3.601,3.6015,3.6016,3.6016,3.6016,3.6016,3.6016,3.6016,3.6016,3.6016,3.6016,3.6016,3.6016,3.6016,3.6016,3.6016,3.6016,3.6016,3.582,3.543,3.4629,3.3906,3.3457,3.3379,3.3378,3.3395,3.3386,3.3388,3.3377,3.3745,3.4132,3.4414,3.4857,3.5217,3.5515,3.5531,3.5498,3.5484,3.5503,3.5503,3.5503,3.5503,3.5503,3.5497,3.5409,3.53,3.5187,3.5102,3.4959,3.4751,3.455,3.434,3.4154,3.4011,3.3914,3.386,3.3809,3.3807,3.3807,3.3807,3.3825,3.3807,3.3807,3.3807,3.3807,3.3807,3.3807,3.3807,3.3807,3.3807,3.3807,3.3807,3.3807,3.3807,3.3807,3.3807,3.3807,3.3807,3.3807,3.3807,3.3807,3.3807,3.3807,3.3807,3.3807,3.3807,3.4027,3.4406,3.4956,3.58,3.7026,3.7815,3.7917,3.8033,4.0708,4.0512,4.0492,4.0492,4.0492,4.0492,4.0492,4.0492,4.0492,4.0492,4.0477,4.0273,3.986,3.9268,3.8488,3.7817,3.7264,3.6274,3.5869,3.5924,3.5983,3.6012,3.6016,3.6016,3.6016,3.6016,3.6016,3.6016,3.6016,3.6016,3.6016,3.6016,3.6016,3.6016,3.6016,3.6016,3.6016,3.6016,3.6016,3.6016,3.5918,3.5391,3.4766,3.418,3.4121,3.4099,3.4095,3.4097,3.4047,3.4023,3.4556,3.4816,3.4755,3.5286,3.5678,3.5807,3.5825,3.583,3.5827,3.5827,3.5731,3.5519,3.5503,3.5503,3.547,3.5372,3.5227,3.5077,3.4992,3.4816,3.4577,3.4357,3.4154,3.3992,3.3933,3.3842,3.382,3.3807,3.3899,3.4075,3.4204,3.413,3.4094,3.3972,3.3807,3.3807,3.3807,3.3807,3.3807,3.3807,3.3807,3.3807,3.3807,3.3807,3.3807,3.3807,3.3807,3.3807,3.3807,3.3807,3.3807,3.3807,3.3807,3.3807,3.3807,3.3807,3.3807,3.388,3.405,3.4795,3.5504,3.6182,3.6927,3.7083,3.7445,4.1258,4.055,4.0492,4.0492,4.0492,4.0492,4.0492,4.0492,4.0492,4.0492,4.0346,3.9718,3.9371,3.9284,3.8459,3.8192,3.7977,3.6581,3.5924,3.5993,3.601,3.6015,3.6016,3.6016,3.6016,3.6016,3.6016,3.6016,3.6016,3.6016,3.6016,3.6016,3.6016,3.6016,3.6016,3.6016,3.6016,3.6016,3.6016,3.6016,3.6016,3.5937,3.5859,3.5762,3.5839,3.5758,3.5789,3.5788,3.5711,3.5652,3.5669,3.5645,3.5541,3.5577,3.5949,3.6537,3.6638,3.6657,3.6657,3.6657,3.6346,3.5692,3.56,3.55,3.547,3.5368,3.5269,3.5068,3.496,3.4735,3.46,3.4332,3.4061,3.3946,3.3879,3.3875,3.3844,3.4027,3.4185,3.4766,3.4949,3.4887,3.4894,3.4266,3.3917,3.3825,3.3807,3.3807,3.3807,3.3807,3.3807,3.3807,3.3807,3.3807,3.3807,3.3807,3.3807,3.3807,3.3807,3.3807,3.3807,3.3807,3.3807,3.3807,3.3807,3.3807,3.3807,3.3929,3.4147,3.4522,3.4718,3.529,3.5937,3.6674,3.7037,4.1296,4.0492,4.0492,4.0492,4.0492,4.0492,4.0492,4.0492,4.0492,4.0208,3.9731,3.9414,3.906,3.8606,3.7795,3.7464,3.7419,3.643,3.5985,3.6005,3.6012,3.6015,3.6016,3.6016,3.6016,3.6016,3.6016,3.6016,3.6016,3.6016,3.6016,3.6016,3.6016,3.6016,3.6016,3.6016,3.6016,3.6016,3.6016,3.6016,3.6055,3.6016,3.6016,3.6016,3.6014,3.6009,3.6017,3.5927,3.5878,3.5803,3.5769,3.5696,3.5663,3.6061,3.667,3.7415,3.7523,3.7542,3.7546,3.7526,3.718,3.6388,3.6273,3.6028,3.5554,3.5354,3.5424,3.5656,3.5586,3.5546,3.559,3.4803,3.3985,3.391,3.4272,3.4564,3.4692,3.5055,3.5514,3.5771,3.5807,3.5628,3.5126,3.4747,3.4369,3.3917,3.3807,3.3807,3.3807,3.3807,3.3807,3.3807,3.3807,3.3807,3.3807,3.3807,3.3807,3.3807,3.3807,3.3807,3.3807,3.3807,3.3807,3.3793,3.3793,3.378,3.3773,3.3742,3.3984,3.3911,3.4094,3.4353,3.4871,3.5632,3.6133,4.1046,4.0554,4.0492,4.0492,4.0492,4.0492,4.0492,4.0496,4.0504,4.0069,3.9368,3.9063,3.8524,3.7785,3.6982,3.6846,3.701,3.6348,3.6019,3.6012,3.6014,3.6015,3.6016,3.6016,3.6016,3.6016,3.6016,3.6016,3.6016,3.6016,3.6016,3.6016,3.625,3.6426,3.6465,3.668,3.6836,3.6816,3.6836,3.6875,3.6836,3.6836,3.6836,3.6835,3.6852,3.6551,3.607,3.5936,3.6035,3.6174,3.6151,3.6187,3.6395,3.685,3.7507,3.8296,3.8411,3.8415,3.8411,3.8434,3.8046,3.7215,3.7082,3.6791,3.6232,3.6085,3.6244,3.643,3.6346,3.6393,3.634,3.5528,3.4743,3.4672,3.5085,3.5426,3.5452,3.5917,3.6328,3.6604,3.6677,3.6285,3.5591,3.5199,3.4619,3.3899,3.3807,3.3807,3.3807,3.3807,3.3807,3.3807,3.3807,3.3807,3.3807,3.3807,3.38,3.38,3.3807,3.3807,3.38,3.38,3.3787,3.378,3.376,3.3728,3.368,3.3615,3.3516,3.3401,3.3381,3.3553,3.4066,3.4592,3.5091,4.0512,4.0492,4.0492,4.0492,4.0492,4.0492,4.0492,4.05,4.0554,4.0099,3.9292,3.8581,3.7945,3.7115,3.6541,3.6471,3.7081,3.6606,3.6243,3.6151,3.6054,3.6016,3.6016,3.6016,3.6016,3.6016,3.6016,3.6016,3.6016,3.6016,3.6035,3.6191,3.6836,3.7187,3.7324,3.7988,3.8457,3.8379,3.832,3.8418,3.8574,3.8398,3.8359,3.8415,3.8409,3.7697,3.6223,3.6088,3.6438,3.7003,3.7043,3.733,3.7815,3.7987,3.8392,3.9127,3.93,3.93,3.9281,3.93,3.8915,3.8146,3.7963,3.7797,3.7503,3.7412,3.7324,3.7259,3.7071,3.6889,3.6781,3.6581,3.6285,3.6269,3.6193,3.6285,3.6303,3.634,3.6641,3.7301,3.7485,3.7155,3.6358,3.5635,3.4864,3.4082,3.3807,3.3807,3.3807,3.3807,3.3807,3.3807,3.3807,3.38,3.3788,3.3788,3.3775,3.3787,3.3782,3.3788,3.3787,3.3773,3.3726,3.3698,3.3601,3.3555,3.3372,3.3284,3.3179,3.3076,3.2949,3.2824,3.3159,3.3617,3.4118,4.0492,4.0492,4.0492,4.0492,4.0492,4.0492,4.0492,4.0516,4.0573,4.0144,3.9341,3.8542,3.8093,3.7831,3.7159,3.7307,3.811,3.7884,3.7479,3.6894,3.6328,3.6074,3.6055,3.6035,3.6016,3.6016,3.6016,3.6016,3.6016,3.6016,3.6269,3.6855,3.7148,3.7617,3.8184,3.8476,3.8613,3.8613,3.8613,3.8613,3.8612,3.8612,3.863,3.8584,3.8553,3.8203,3.7702,3.7647,3.7724,3.7926,3.786,3.816,3.8753,3.8914,3.9284,3.9992,4.0131,4.0131,4.0131,4.0092,3.9731,3.9019,3.8745,3.8346,3.7756,3.7595,3.7676,3.7875,3.7791,3.7754,3.8076,3.8095,3.7555,3.6446,3.6787,3.7118,3.718,3.7577,3.801,3.8256,3.8322,3.7734,3.667,3.5954,3.5312,3.41,3.3844,3.3807,3.3807,3.3807,3.3807,3.3807,3.38,3.3748,3.3726,3.3666,3.3657,3.3664,3.3691,3.3712,3.3705,3.3652,3.3629,3.3516,3.3423,3.3272,3.3088,3.2923,3.2814,3.2677,3.2512,3.2413,3.231,3.2727,3.3379,4.0492,4.0492,4.0492,4.0492,4.0492,4.0492,4.0504,4.0562,4.061,4.0187,3.9434,3.8969,3.863,3.8369,3.7922,3.8243,3.8997,3.8768,3.8496,3.8144,3.7383,3.6992,3.6894,3.6601,3.625,3.6035,3.6016,3.6016,3.6016,3.6035,3.6445,3.7187,3.7598,3.8223,3.9062,3.9414,3.957,3.957,3.957,3.955,3.9548,3.9525,3.9518,3.9479,3.946,3.9382,3.9303,3.9298,3.911,3.8866,3.8941,3.9318,3.9706,3.9777,3.9973,4.0342,4.0492,4.0477,4.0492,4.0454,4.03,3.9791,3.9568,3.9248,3.8609,3.8314,3.838,3.8527,3.8464,3.8477,3.8766,3.8799,3.8235,3.7356,3.765,3.7925,3.8017,3.8377,3.8652,3.8652,3.8663,3.801,3.7155,3.6365,3.5796,3.4559,3.399,3.3807,3.3807,3.3807,3.3793,3.378,3.376,3.3698,3.3622,3.3566,3.3516,3.3523,3.3537,3.357,3.3577,3.3495,3.343,3.3157,3.3003,3.2822,3.2645,3.2486,3.2369,3.2205,3.21,3.1993,3.1987,3.24,3.2919,4.0492,4.0492,4.0492,4.0492,4.0496,4.0496,4.0542,4.0603,4.0673,4.0316,3.9739,3.9597,3.9321,3.8802,3.8754,3.9136,3.9706,3.9316,3.9336,3.9531,3.9082,3.8633,3.8262,3.75,3.6797,3.6269,3.6074,3.6016,3.6016,3.6152,3.6523,3.7461,3.8301,3.9121,3.9922,4.0781,4.0996,4.0918,4.0956,4.0934,4.093,4.0957,4.0935,4.0839,4.0786,4.0709,4.0565,4.0516,4.0263,3.9755,4.0077,4.033,4.0466,4.0492,4.0458,4.0492,4.0492,4.0492,4.0492,4.0504,4.0461,4.0342,4.0145,4.0105,3.9699,3.9325,3.9108,3.9036,3.8892,3.8807,3.8781,3.875,3.8623,3.867,3.8524,3.8579,3.867,3.8681,3.8681,3.8699,3.8644,3.8377,3.7485,3.6769,3.5936,3.5052,3.4257,3.3872,3.3746,3.3726,3.3732,3.3691,3.3629,3.3505,3.339,3.3294,3.322,3.306,3.3121,3.319,3.3253,3.3182,3.305,3.2781,3.2569,3.2386,3.2231,3.2083,3.1967,3.1867,3.1739,3.1617,3.1745,3.2066,3.2249,4.0492,4.0492,4.0492,4.0492,4.0516,4.0562,4.058,4.0607,4.0736,4.0654,4.0419,3.9932,3.9992,4.0314,3.9796,4.0018,4.0487,4.0527,4.0586,4.0781,4.0664,3.9707,3.8652,3.7734,3.7187,3.6875,3.6289,3.6016,3.6055,3.6621,3.7383,3.8262,3.9082,3.9941,4.0801,4.1074,4.1172,4.1132,4.1129,4.1102,4.1086,4.1045,4.0989,4.0926,4.0876,4.0808,4.0736,4.0681,4.0568,4.0369,4.0414,4.0504,4.0496,4.0492,4.0492,4.0492,4.0492,4.0492,4.0489,4.0503,4.0451,4.0362,4.0158,3.9956,3.9711,3.9439,3.9185,3.9021,3.8888,3.8792,3.8742,3.8704,3.8699,3.8699,3.8699,3.8699,3.8699,3.8699,3.8699,3.8699,3.8699,3.8303,3.7661,3.6798,3.5988,3.5095,3.4298,3.3678,3.3608,3.3559,3.353,3.347,3.339,3.3257,3.3126,3.3027,3.2854,3.2596,3.2579,3.2659,3.271,3.271,3.2536,3.2343,3.2162,3.2002,3.1858,3.172,3.1626,3.1551,3.1485,3.1408,3.1339,3.1496,3.1567,4.0492,4.0492,4.0492,4.0504,4.0539,4.0599,4.0633,4.0688,4.0779,4.0876,4.0809,4.0509,4.0588,4.1019,4.0642,4.0663,4.1113,4.1172,4.1191,4.1191,4.1152,4.0391,3.9199,3.8262,3.7656,3.7207,3.6445,3.6269,3.6562,3.707,3.7949,3.9004,3.9648,4.0312,4.1055,4.1171,4.1151,4.1107,4.1101,4.1085,4.1053,4.099,4.0927,4.0871,4.0785,4.0712,4.0652,4.0591,4.0546,4.0542,4.0508,4.0492,4.0492,4.0492,4.0492,4.0492,4.0492,4.0489,4.048,4.0463,4.0407,4.0262,4.0053,3.9804,3.9532,3.9277,3.9036,3.8877,3.8799,3.8742,3.8723,3.8699,3.8699,3.8699,3.8699,3.8699,3.8699,3.8699,3.8699,3.8699,3.8663,3.8545,3.7943,3.6938,3.6073,3.5305,3.4276,3.3767,3.3401,3.3368,3.326,3.3155,3.3063,3.2925,3.2758,3.2628,3.2478,3.2214,3.2082,3.2162,3.2223,3.224,3.2118,3.1966,3.1776,3.1637,3.156,3.1466,3.1389,3.1322,3.1281,3.1261,3.122,3.119,3.119,4.0492,4.0492,4.0492,4.0535,4.0592,4.0623,4.0681,4.0792,4.0869,4.0943,4.0979,4.1059,4.1021,4.1111,4.1055,4.1172,4.1191,4.1191,4.1191,4.1191,4.1152,4.0703,4.0039,3.9141,3.8457,3.7773,3.6738,3.6855,3.7363,3.7578,3.8418,3.9531,3.9961,4.041,4.0994,4.111,4.1106,4.1093,4.1095,4.1024,4.0972,4.0924,4.0866,4.0761,4.0707,4.0644,4.0603,4.0554,4.0496,4.0496,4.0492,4.0492,4.0492,4.0492,4.0492,4.0492,4.0504,4.0503,4.0474,4.0424,4.0313,4.0133,3.9897,3.9641,3.9376,3.9122,3.8921,3.8799,3.8735,3.8696,3.8707,3.8699,3.8699,3.8699,3.8699,3.8699,3.8699,3.8699,3.8699,3.8699,3.8699,3.8616,3.8159,3.7201,3.5972,3.5413,3.4351,3.3373,3.3052,3.2943,3.283,3.2708,3.2627,3.2561,3.2386,3.2197,3.2038,3.1841,3.1683,3.1683,3.1776,3.1776,3.1719,3.1615,3.1513,3.1437,3.1361,3.1264,3.1222,3.1213,3.1222,3.122,3.119,3.119,3.119,4.0492,4.0492,4.0492,4.0535,4.0599,4.0655,4.0711,4.0817,4.0912,4.0964,4.1048,4.1097,4.1088,4.1111,4.1172,4.1191,4.1191,4.1191,4.1191,4.1191,4.1191,4.1133,4.0723,4.0,3.9531,3.9043,3.8418,3.8164,3.8398,3.8887,3.9473,3.9902,4.0526,4.0916,4.1068,4.1099,4.1084,4.1018,4.1027,4.0954,4.0861,4.0828,4.0766,4.0655,4.0582,4.0554,4.0512,4.05,4.0492,4.0492,4.0492,4.0492,4.0492,4.0492,4.0492,4.0504,4.0495,4.0482,4.0409,4.0299,4.0162,3.9956,3.9689,3.9389,3.9197,3.8993,3.8822,3.8735,3.8696,3.8699,3.8699,3.8699,3.8699,3.8699,3.8699,3.8699,3.8699,3.8699,3.8699,3.8666,3.8609,3.8528,3.8368,3.6885,3.5908,3.5401,3.4298,3.3029,3.2669,3.2546,3.2411,3.2291,3.2222,3.217,3.2012,3.184,3.1711,3.16,3.1456,3.1358,3.1437,3.1466,3.1464,3.1397,3.131,3.1252,3.1242,3.1222,3.121,3.12,3.119,3.119,3.119,3.119,3.119,4.0492,4.0496,4.0531,4.0592,4.0656,4.0712,4.0797,4.0809,4.0524,4.0694,4.0936,4.0755,4.0759,4.1152,4.1191,4.1191,4.1191,4.1191,4.1191,4.1191,4.1191,4.1172,4.1113,4.0683,4.0312,3.9863,3.8984,3.8828,3.9257,3.9667,4.0039,4.0465,4.0912,4.1042,4.109,4.1075,4.1007,4.0958,4.0912,4.0847,4.0776,4.0725,4.0655,4.0559,4.0519,4.0492,4.0496,4.0496,4.0492,4.0492,4.0492,4.0492,4.0492,4.0492,4.0504,4.0499,4.0463,4.0411,4.0304,4.0143,3.9965,3.9753,3.9471,3.9244,3.9038,3.8862,3.8795,3.8712,3.8707,3.8699,3.8699,3.8699,3.8699,3.8699,3.8699,3.8699,3.8699,3.8699,3.8666,3.8627,3.8538,3.8374,3.7772,3.6614,3.5664,3.5071,3.3675,3.2463,3.2266,3.2135,3.202,3.1912,3.184,3.1739,3.1609,3.1494,3.1435,3.1368,3.1327,3.1269,3.1281,3.1281,3.1271,3.1249,3.123,3.122,3.1193,3.119,3.119,3.119,3.119,3.119,3.119,3.119,3.119,4.05,4.0504,4.058,4.0623,4.073,4.0771,4.0777,4.0648,4.0101,4.0134,4.0541,4.0056,4.0351,4.0859,4.1152,4.1191,4.1191,4.1191,4.1191,4.1191,4.1191,4.1172,4.1092,4.0975,4.0721,4.0039,3.9531,3.955,3.994,4.0114,4.0483,4.0983,4.1072,4.1078,4.1072,4.1003,4.094,4.0889,4.0832,4.0765,4.0704,4.0635,4.0575,4.0519,4.05,4.0492,4.0492,4.0492,4.0492,4.0492,4.0492,4.0492,4.0492,4.0504,4.0488,4.0478,4.04,4.0294,4.0128,3.9965,3.9722,3.9477,3.9277,3.9099,3.8914,3.8822,3.8765,3.8712,3.8699,3.8699,3.8699,3.8699,3.8699,3.8699,3.8699,3.8692,3.8684,3.8658,3.8585,3.8486,3.8358,3.8195,3.7552,3.6583,3.5643,3.4614,3.3213,3.2169,3.1989,3.1826,3.1759,3.1606,3.1549,3.153,3.1389,3.1351,3.1261,3.1249,3.121,3.12,3.119,3.121,3.123,3.121,3.12,3.119,3.119,3.119,3.119,3.119,3.119,3.119,3.119,3.119,3.119,4.0535,4.06,4.0586,4.0678,4.0794,4.0852,4.0496,3.9977,3.9792,3.9462,3.9157,3.9629,3.9922,4.0312,4.0957,4.1191,4.1191,4.1191,4.1191,4.1191,4.1191,4.1152,4.111,4.1107,4.0989,4.0949,4.0581,4.0601,4.0756,4.0932,4.0864,4.1048,4.1044,4.1013,4.0969,4.0896,4.0828,4.0804,4.0738,4.0684,4.0623,4.0591,4.0565,4.0496,4.0492,4.0492,4.0492,4.0492,4.0492,4.0492,4.0492,4.0492,4.0496,4.0491,4.0447,4.0381,4.0294,4.0143,3.9959,3.9711,3.9489,3.9259,3.9066,3.8935,3.8829,3.8747,3.8719,3.8704,3.8699,3.8699,3.8699,3.8699,3.8699,3.8699,3.8699,3.8658,3.8578,3.8488,3.8425,3.8326,3.8161,3.7913,3.7229,3.6486,3.5535,3.4631,3.3524,3.2511,3.2065,3.1849,3.1662,3.1482,3.1278,3.1269,3.123,3.1239,3.121,3.122,3.12,3.12,3.119,3.119,3.119,3.119,3.119,3.119,3.119,3.119,3.119,3.119,3.119,3.119,3.119,3.119,3.119,3.99,3.9975,4.0442,4.0703,4.0723,4.0418,4.0103,3.9643,3.8911,3.8551,3.871,3.9043,3.9492,4.0019,4.0801,4.1191,4.1191,4.1191,4.1191,4.1171,4.1152,4.1129,4.11,4.1095,4.108,4.105,4.1037,4.1068,4.1105,4.1042,4.1027,4.0986,4.0949,4.0945,4.0888,4.0801,4.073,4.0688,4.0651,4.0617,4.0546,4.0542,4.0527,4.0519,4.0492,4.0492,4.0492,4.0492,4.0492,4.0489,4.0492,4.0503,4.0467,4.0415,4.0326,4.028,4.0163,3.9975,3.9717,3.9477,3.9252,3.9059,3.8914,3.8822,3.8773,3.873,3.8707,3.8699,3.8699,3.8699,3.8699,3.8699,3.8699,3.8699,3.8699,3.8624,3.8494,3.8332,3.8193,3.8059,3.7862,3.7542,3.7121,3.6303,3.5412,3.4527,3.3712,3.3011,3.2323,3.2184,3.2073,3.2019,3.186,3.1471,3.1376,3.1241,3.1207,3.119,3.119,3.119,3.119,3.119,3.119,3.119,3.119,3.119,3.119,3.119,3.119,3.119,3.119,3.119,3.119,3.119,3.119,3.9055,3.9134,3.9911,4.0256,4.0215,3.9716,3.9366,3.9043,3.7924,3.7596,3.8066,3.8476,3.9023,3.9766,4.0625,4.1191,4.1191,4.1191,4.1152,4.113,4.1108,4.1099,4.1077,4.1057,4.1037,4.0992,4.0953,4.1,4.1035,4.1017,4.0953,4.09,4.0866,4.0848,4.0775,4.0729,4.0668,4.0626,4.058,4.0558,4.0519,4.0492,4.0492,4.0492,4.0492,4.0492,4.0492,4.0492,4.0504,4.0507,4.0499,4.0462,4.042,4.0253,4.0143,4.0085,3.9963,3.9739,3.9489,3.9252,3.9059,3.8914,3.8811,3.8747,3.8719,3.8707,3.8699,3.8699,3.8699,3.8699,3.8699,3.8699,3.8699,3.8699,3.8666,3.8593,3.8417,3.8195,3.7862,3.7685,3.7504,3.7197,3.6788,3.6344,3.5504,3.4868,3.4058,3.3628,3.3025,3.3014,3.2936,3.2875,3.2628,3.2012,3.1657,3.1319,3.1251,3.119,3.119,3.119,3.119,3.119,3.1207,3.1258,3.119,3.119,3.119,3.119,3.119,3.119,3.119,3.119,3.119,3.119,3.119,3.8225,3.8335,3.8517,3.8605,3.8731,3.867,3.8235,3.7667,3.738,3.6894,3.6641,3.793,3.8711,3.9336,4.0586,4.1152,4.1191,4.1151,4.113,4.1106,4.1097,4.1057,4.1002,4.0994,4.0966,4.0904,4.0844,4.0857,4.0908,4.0953,4.0906,4.082,4.0793,4.0779,4.0688,4.0653,4.0626,4.0592,4.0542,4.0519,4.0496,4.0492,4.0492,4.0492,4.0492,4.0492,4.0492,4.0489,4.0492,4.0471,4.0434,4.037,4.0243,4.0094,3.993,3.9785,3.961,3.9446,3.9239,3.9059,3.8921,3.8822,3.8747,3.8704,3.8689,3.8699,3.8699,3.8699,3.8699,3.8699,3.8699,3.8699,3.8699,3.865,3.8593,3.8475,3.8313,3.7966,3.7641,3.7262,3.705,3.6821,3.6482,3.611,3.5649,3.5032,3.4489,3.4075,3.3846,3.388,3.3643,3.3541,3.3305,3.2706,3.2148,3.1775,3.1606,3.1427,3.1512,3.1495,3.1596,3.1681,3.1352,3.1352,3.1275,3.1207,3.119,3.119,3.119,3.119,3.119,3.119,3.119,3.119,3.119,3.7019,3.7572,3.8125,3.8394,3.8405,3.8012,3.7643,3.7242,3.6757,3.6367,3.6387,3.7832,3.9101,4.0019,4.0957,4.1152,4.1152,4.111,4.1104,4.109,4.1052,4.1013,4.0951,4.0907,4.0849,4.0798,4.0751,4.0726,4.0771,4.0787,4.0765,4.0699,4.0694,4.066,4.0601,4.0561,4.0542,4.0535,4.0523,4.0496,4.0492,4.0492,4.0492,4.0492,4.0492,4.0492,4.0508,4.0503,4.0475,4.0422,4.0348,4.0215,4.0064,3.9857,3.9641,3.9471,3.9272,3.9149,3.9059,3.8928,3.8829,3.8747,3.8712,3.8707,3.8699,3.8699,3.8699,3.8699,3.8699,3.8699,3.8699,3.8699,3.8632,3.8575,3.8496,3.8312,3.8104,3.7739,3.7394,3.6984,3.6609,3.6391,3.6219,3.5978,3.5719,3.5416,3.5102,3.4934,3.4833,3.4917,3.4573,3.4117,3.3806,3.3383,3.2841,3.2385,3.23,3.2222,3.2527,3.251,3.2425,3.2334,3.1962,3.1606,3.1471,3.1376,3.1241,3.119,3.119,3.119,3.119,3.119,3.119,3.119,3.119,3.6279,3.7111,3.7814,3.8256,3.8439,3.764,3.7299,3.7186,3.6387,3.6016,3.6465,3.7832,3.9551,4.0859,4.1133,4.1152,4.111,4.1105,4.1089,4.1063,4.1022,4.0939,4.0883,4.0801,4.073,4.0673,4.0684,4.0652,4.0612,4.0619,4.0632,4.0596,4.0609,4.058,4.0527,4.05,4.05,4.0496,4.0496,4.0492,4.0492,4.0492,4.0492,4.0492,4.0492,4.0492,4.0492,4.0475,4.0453,4.0331,4.0206,4.0043,3.9859,3.9586,3.9389,3.9219,3.905,3.8943,3.8906,3.8844,3.8747,3.8712,3.8699,3.8699,3.8699,3.8699,3.8699,3.8699,3.8699,3.8699,3.8699,3.8666,3.8593,3.8462,3.8358,3.8153,3.7897,3.7486,3.7083,3.6696,3.635,3.6062,3.5916,3.5828,3.5711,3.5633,3.5611,3.5628,3.5594,3.5543,3.5273,3.4709,3.4286,3.3958,3.3603,3.318,3.3044,3.2966,3.3271,3.3322,3.3136,3.2875,3.252,3.2165,3.1826,3.1488,3.1336,3.1258,3.119,3.119,3.119,3.119,3.119,3.119,3.119,3.6393,3.7202,3.7294,3.7821,3.8469,3.7653,3.7284,3.7109,3.6348,3.6074,3.6484,3.7832,3.9551,4.082,4.1151,4.111,4.1106,4.1108,4.1057,4.1008,4.0943,4.0864,4.0801,4.0729,4.0664,4.0614,4.0617,4.0572,4.0519,4.0538,4.0565,4.0588,4.058,4.0542,4.0508,4.0492,4.0492,4.0492,4.0492,4.0492,4.0492,4.0492,4.0492,4.0492,4.0492,4.0496,4.0491,4.0445,4.0339,4.0215,4.0022,3.979,3.9581,3.935,3.917,3.9036,3.8918,3.8822,3.8799,3.8773,3.8712,3.8707,3.8699,3.8699,3.8699,3.8699,3.8699,3.8699,3.8699,3.8673,3.864,3.8583,3.8504,3.8326,3.8127,3.7853,3.755,3.7148,3.6756,3.6395,3.6116,3.5866,3.5762,3.5706,3.5695,3.5628,3.5628,3.5628,3.5628,3.5594,3.5594,3.5256,3.481,3.4516,3.4347,3.4077,3.3812,3.3677,3.3801,3.3768,3.3615,3.3339,3.318,3.274,3.2385,3.1894,3.142,3.1319,3.1241,3.1207,3.119,3.119,3.119,3.119,3.119,3.6803,3.8034,3.8055,3.7942,3.7771,3.744,3.6992,3.6504,3.6152,3.668,3.7598,3.8379,3.9551,4.0761,4.113,4.1103,4.1108,4.1058,4.1008,4.0941,4.0876,4.0784,4.0723,4.0663,4.0587,4.0546,4.0554,4.0531,4.05,4.0492,4.0519,4.0535,4.0539,4.0531,4.05,4.0492,4.0492,4.0492,4.0492,4.0492,4.0492,4.0492,4.0492,4.0492,4.0492,4.0488,4.0478,4.0351,4.0225,4.0034,3.979,3.9563,3.9337,3.9135,3.8993,3.8896,3.8803,3.8757,3.8742,3.8723,3.8707,3.8699,3.8699,3.8718,3.8791,3.8736,3.8699,3.8699,3.8699,3.8666,3.8549,3.8478,3.8366,3.8161,3.7879,3.7568,3.7321,3.6981,3.6804,3.662,3.6163,3.5767,3.5706,3.5639,3.5628,3.5628,3.5628,3.5628,3.5628,3.5628,3.5628,3.5628,3.5188,3.4844,3.4686,3.459,3.4512,3.4444,3.4349,3.4376,3.4343,3.415,3.3914,3.3451,3.2926,3.2435,3.1945,3.1488,3.1275,3.1241,3.1207,3.119,3.119,3.119,3.119,3.7018,3.8512,3.8319,3.8183,3.8027,3.7792,3.7187,3.6426,3.6094,3.6973,3.8594,3.8867,3.9726,4.0797,4.1103,4.1088,4.1054,4.0986,4.0917,4.0854,4.0764,4.0694,4.0626,4.0576,4.0546,4.0496,4.0492,4.0492,4.0492,4.0492,4.0496,4.0516,4.0492,4.0496,4.0496,4.0492,4.0492,4.0492,4.0492,4.0492,4.0492,4.0492,4.0492,4.0489,4.05,4.0471,4.0392,4.0252,4.0059,3.9848,3.9587,3.9343,3.9135,3.8971,3.8833,3.8788,3.8753,3.8707,3.8699,3.8699,3.8817,3.9093,3.9129,3.9111,3.9056,3.903,3.9111,3.8699,3.8666,3.8575,3.8452,3.8332,3.8145,3.7897,3.7523,3.7241,3.7269,3.7071,3.7006,3.6875,3.6554,3.6452,3.5955,3.5881,3.5645,3.5645,3.5628,3.5628,3.5628,3.5628,3.5628,3.5628,3.5526,3.5205,3.4945,3.4985,3.5019,3.5025,3.5008,3.5211,3.5188,3.4934,3.4573,3.4093,3.3552,3.2994,3.2638,3.2357,3.1816,3.1285,3.1302,3.136,3.119,3.119,3.119,3.7008,3.8417,3.7695,3.8262,3.9336,3.8867,3.7969,3.6973,3.6445,3.7051,3.8613,3.9374,4.0211,4.0948,4.1106,4.1054,4.0986,4.0932,4.0868,4.0778,4.0697,4.0619,4.0595,4.0558,4.0523,4.0496,4.0492,4.0492,4.0492,4.0492,4.0492,4.0492,4.0492,4.0492,4.0492,4.0492,4.0492,4.0492,4.0489,4.0504,4.0496,4.0492,4.0488,4.0715,4.0702,4.0686,4.0786,4.0409,4.0168,3.9892,3.9451,3.9161,3.8957,3.8866,3.8769,3.8712,3.8715,3.8718,3.8755,3.8736,3.9221,3.9753,3.9882,3.9882,3.9882,3.9772,3.9517,3.9035,3.8669,3.8488,3.8324,3.8143,3.7889,3.7737,3.7389,3.7274,3.7342,3.7367,3.7319,3.7285,3.7504,3.7533,3.6784,3.6197,3.5814,3.5661,3.5628,3.5628,3.5628,3.5628,3.5628,3.5628,3.5628,3.5509,3.5289,3.5459,3.5515,3.5549,3.5549,3.5583,3.5628,3.5391,3.5036,3.4658,3.4229,3.3687,3.3491,3.3311,3.2645,3.2012,3.1657,3.1572,3.1343,3.1258,3.1343,3.6679,3.7695,3.7422,3.7637,3.8105,3.7891,3.7246,3.6601,3.6777,3.7519,3.8593,3.9489,4.0321,4.0871,4.1034,4.0984,4.0932,4.0871,4.0794,4.0668,4.0619,4.0576,4.0558,4.0523,4.0492,4.0492,4.0492,4.0492,4.0492,4.0492,4.0492,4.0492,4.0489,4.0492,4.0492,4.0492,4.0504,4.0495,4.0507,4.0495,4.0447,4.0477,4.0726,4.1206,4.1197,4.1346,4.1536,4.1006,4.0498,4.0102,3.962,3.9074,3.8896,3.8806,3.8801,3.8744,3.8755,3.8975,3.946,3.9918,4.038,4.0645,4.07,4.07,4.0681,4.0093,3.9729,3.9361,3.8838,3.855,3.8119,3.7889,3.7738,3.7882,3.774,3.7737,3.7766,3.7781,3.7761,3.7719,3.7838,3.7635,3.7088,3.6581,3.6163,3.578,3.5712,3.5645,3.5628,3.5628,3.5628,3.5628,3.5628,3.5628,3.5628,3.5628,3.5628,3.5583,3.5583,3.56,3.5628,3.5628,3.5509,3.5137,3.4776,3.4415,3.4218,3.3937,3.3372,3.2831,3.2713,3.2317,3.2029,3.186,3.1742,3.6504,3.7246,3.6973,3.7031,3.7266,3.7285,3.6797,3.6309,3.7207,3.8104,3.8766,3.9736,4.052,4.0955,4.1002,4.0915,4.0863,4.0775,4.072,4.0593,4.0569,4.0539,4.0504,4.0492,4.0492,4.0492,4.0492,4.0492,4.0492,4.0492,4.0492,4.0492,4.05,4.0476,4.0476,4.0491,4.0456,4.0434,4.0409,4.0388,4.0448,4.066,4.1053,4.1466,4.1748,4.2044,4.2129,4.1734,4.1023,4.048,3.986,3.9165,3.8979,3.9003,3.9074,3.9129,3.947,3.9918,4.0726,4.1093,4.1544,4.1956,4.169,4.1509,4.1412,4.1008,4.0485,3.9973,3.9248,3.8859,3.8528,3.8226,3.8057,3.8238,3.8124,3.8121,3.839,3.8408,3.8516,3.8454,3.8493,3.8087,3.7528,3.697,3.653,3.6146,3.5797,3.5695,3.5628,3.5628,3.5628,3.5628,3.5628,3.5628,3.5628,3.5628,3.5628,3.5628,3.5628,3.5628,3.5628,3.5628,3.5628,3.5611,3.5256,3.4962,3.4844,3.4539,3.4235,3.414,3.418,3.3649,3.2892,3.2452,3.2175,3.6484,3.707,3.6348,3.6484,3.7148,3.7148,3.6719,3.6191,3.7811,3.8551,3.8703,4.0303,4.0973,4.0963,4.0948,4.0863,4.0781,4.0662,4.0623,4.0595,4.0539,4.0504,4.0496,4.0492,4.0492,4.0492,4.0492,4.0492,4.0492,4.0492,4.0492,4.0496,4.0483,4.0438,4.0417,4.0383,4.0357,4.0284,4.0257,4.0291,4.0444,4.0944,4.1386,4.181,4.2224,4.2496,4.2498,4.211,4.1393,4.0788,4.0226,3.9594,3.9362,3.9551,3.9798,4.012,4.0645,4.135,4.1856,4.2076,4.2536,4.2839,4.2584,4.2393,4.2132,4.1818,4.1195,4.0574,3.9913,3.9694,3.9449,3.9071,3.8698,3.8619,3.8465,3.8675,3.9066,3.9251,3.9393,3.9508,3.9677,3.9339,3.851,3.7867,3.7004,3.6428,3.6028,3.5678,3.5628,3.5628,3.5628,3.5628,3.5628,3.5628,3.5628,3.5628,3.5628,3.5628,3.5628,3.5628,3.5628,3.5628,3.5628,3.5628,3.5628,3.5475,3.5256,3.5289,3.5374,3.5312,3.5042,3.4518,3.3626,3.2875,3.2486,3.6152,3.6328,3.6113,3.6152,3.6348,3.6386,3.621,3.6249,3.7828,3.8584,3.8644,4.0289,4.0977,4.0926,4.0861,4.0772,4.0671,4.0619,4.0572,4.0539,4.0523,4.0496,4.0492,4.0492,4.0492,4.0492,4.0492,4.0492,4.0492,4.0492,4.0488,4.0503,4.043,4.0362,4.0267,4.0186,4.0118,4.0059,4.001,4.0252,4.0561,4.1007,4.166,4.242,4.2794,4.3118,4.3284,4.2792,4.2188,4.1824,4.1164,4.0604,4.0561,4.0645,4.0755,4.0846,4.1434,4.2084,4.2333,4.2777,4.3137,4.3276,4.3004,4.304,4.2794,4.2277,4.1641,4.1025,4.0343,3.9958,3.9652,3.9319,3.9168,3.9118,3.9027,3.9185,3.9556,3.9705,3.9846,3.9897,4.0096,3.9846,3.9102,3.8379,3.7533,3.6851,3.631,3.5898,3.5628,3.5628,3.5628,3.5628,3.5628,3.5628,3.5628,3.5628,3.5628,3.5628,3.5628,3.5628,3.5628,3.5628,3.5628,3.5628,3.5628,3.5628,3.5577,3.5616,3.5583,3.5588,3.5352,3.4906,3.4393,3.3643,3.2882,3.6016,3.6016,3.6016,3.6016,3.6015,3.6014,3.6011,3.6319,3.7818,3.8507,3.8668,4.0214,4.0924,4.0858,4.0769,4.0684,4.0612,4.0572,4.0535,4.0523,4.0492,4.0492,4.0492,4.0492,4.0492,4.0492,4.0492,4.0492,4.0489,4.0503,4.0499,4.0409,4.0357,4.0234,4.0078,3.9903,3.9739,3.973,3.982,4.0168,4.0597,4.1086,4.2106,4.296,4.3299,4.3769,4.4005,4.3335,4.2982,4.2537,4.1785,4.1417,4.1342,4.1323,4.1856,4.2029,4.246,4.2738,4.2868,4.3038,4.3213,4.3178,4.304,4.2892,4.2681,4.2239,4.1833,4.1373,4.063,3.9997,3.9713,3.9468,3.9579,3.9678,3.9705,3.9713,3.9896,4.0045,4.0096,4.0079,3.9999,3.9863,3.9372,3.8717,3.8075,3.7415,3.6721,3.6129,3.5797,3.5628,3.5628,3.5628,3.5628,3.5628,3.5628,3.5628,3.5628,3.5628,3.5628,3.5628,3.5628,3.56,3.56,3.56,3.5628,3.5616,3.5605,3.556,3.5537,3.5549,3.5526,3.5206,3.4801,3.4349,3.3615,3.6016,3.6016,3.6016,3.6015,3.6014,3.6011,3.6,3.6192,3.7629,3.839,3.8691,4.014,4.0836,4.0766,4.0681,4.0619,4.0569,4.0535,4.0504,4.0492,4.0492,4.0492,4.0492,4.0492,4.0492,4.0492,4.0492,4.0508,4.0492,4.0479,4.0413,4.027,4.021,4.0053,3.9818,3.9604,3.9446,3.9305,3.9475,3.9799,4.0641,4.1365,4.2145,4.2992,4.3511,4.3923,4.3846,4.3595,4.3267,4.2746,4.2345,4.2011,4.1956,4.2029,4.2727,4.3021,4.3215,4.3209,4.3112,4.3142,4.2977,4.2864,4.2684,4.2448,4.2177,4.2144,4.1861,4.1462,4.0736,4.0372,4.0092,3.9884,3.9907,3.9923,3.9942,3.9947,4.0007,4.0113,4.0113,4.0113,4.0079,3.9931,3.9779,3.9153,3.8599,3.7973,3.7161,3.6417,3.6084,3.5831,3.5718,3.5701,3.5628,3.5628,3.5628,3.5628,3.5628,3.5628,3.5628,3.5628,3.5628,3.56,3.5588,3.5571,3.5526,3.5571,3.5571,3.5543,3.5486,3.5441,3.5406,3.536,3.5104,3.4706,3.4098,3.6016,3.6016,3.6015,3.6014,3.601,3.6017,3.5975,3.6018,3.6922,3.7747,3.8531,3.9936,4.0747,4.0655,4.0616,4.0584,4.0535,4.0523,4.0496,4.0492,4.0492,4.0492,4.0492,4.0492,4.0492,4.0492,4.0489,4.0488,4.0444,4.0398,4.0292,4.0086,4.006,3.9964,3.9676,3.9468,3.9425,3.9329,3.9378,4.0028,4.1067,4.1444,4.1995,4.3011,4.3775,4.3716,4.3641,4.3572,4.3439,4.3238,4.3229,4.3102,4.2992,4.3112,4.3243,4.3401,4.3384,4.3296,4.3114,4.2929,4.2702,4.2428,4.2177,4.1864,4.1735,4.1881,4.1753,4.1339,4.0995,4.0704,4.0466,4.0275,4.0163,4.015,4.0121,4.0108,4.0113,4.0113,4.0113,4.0113,4.0113,4.0045,3.9943,3.9609,3.9085,3.829,3.7342,3.6665,3.6468,3.6248,3.6056,3.5971,3.5678,3.5628,3.5628,3.5628,3.5628,3.5628,3.5628,3.5628,3.5605,3.5526,3.5447,3.5441,3.5446,3.5429,3.5452,3.5503,3.5446,3.528,3.51,3.4982,3.4982,3.4697,3.4153,3.6016,3.6016,3.6014,3.6009,3.5998,3.5955,3.5916,3.5995,3.666,3.7434,3.8308,3.9533,4.0307,4.0509,4.0561,4.0558,4.0496,4.0496,4.0492,4.0492,4.0492,4.0492,4.0492,4.0492,4.0492,4.0492,4.0503,4.0486,4.0388,4.0313,4.0187,3.9997,4.0008,4.0114,3.9869,3.9921,4.0,3.9973,3.9778,4.0496,4.1541,4.1651,4.2104,4.3128,4.36,4.3548,4.3539,4.3505,4.3496,4.3488,4.3451,4.3451,4.3342,4.3371,4.3347,4.3304,4.3205,4.3059,4.2815,4.2563,4.2295,4.1959,4.1702,4.1412,4.1163,4.1255,4.1192,4.083,4.0692,4.0416,4.03,4.015,4.0125,4.0125,4.0108,4.0113,4.0113,4.0113,4.0113,4.0113,4.0113,4.0096,4.0011,3.9977,3.944,3.8916,3.79,3.7461,3.7178,3.6789,3.6575,3.6293,3.605,3.5729,3.5628,3.5628,3.5628,3.5628,3.5605,3.5526,3.5458,3.5372,3.5291,3.5175,3.5128,3.5187,3.521,3.5187,3.5065,3.4875,3.4691,3.4533,3.4558,3.4513,3.3973,3.6016,3.6016,3.6011,3.5999,3.5972,3.5916,3.584,3.5916,3.65,3.7286,3.8106,3.8887,3.9708,4.033,4.0531,4.05,4.0492,4.0492,4.0492,4.0492,4.0492,4.0492,4.0492,4.0492,4.0508,4.0488,4.0475,4.0351,4.0239,4.0324,4.0362,4.0052,4.0296,4.0687,4.0673,4.0855,4.1019,4.0875,4.0903,4.1413,4.1662,4.169,4.2403,4.3037,4.3488,4.3488,4.3488,4.3488,4.3488,4.3488,4.3479,4.347,4.3445,4.3411,4.3232,4.3123,4.291,4.2663,4.2358,4.211,4.177,4.144,4.1226,4.1001,4.074,4.0631,4.0583,4.051,4.0367,4.028,4.0163,4.0113,4.0113,4.0113,4.0113,4.0113,4.0113,4.0113,4.0113,4.0113,4.0113,4.0113,4.0096,4.0079,3.9808,3.9288,3.8899,3.8548,3.8159,3.7669,3.7302,3.6913,3.6541,3.6203,3.5881,3.5616,3.5605,3.5571,3.5537,3.5429,3.528,3.5041,3.4863,3.4744,3.4732,3.4727,3.4715,3.4667,3.4533,3.4411,3.4159,3.3955,3.3904,3.3827,3.3577,3.6015,3.6012,3.6016,3.5972,3.5915,3.5854,3.578,3.5744,3.5839,3.6633,3.7805,3.8232,3.9026,4.0523,4.05,4.0492,4.0492,4.0492,4.0492,4.0492,4.0492,4.0492,4.0489,4.0504,4.0492,4.0491,4.0475,4.0364,4.0466,4.0732,4.0764,4.0508,4.1161,4.1333,4.1126,4.1314,4.1456,4.1446,4.1477,4.1746,4.2158,4.2323,4.2671,4.3139,4.3488,4.3488,4.3488,4.3488,4.3488,4.3488,4.347,4.3454,4.3375,4.3269,4.3068,4.2788,4.2595,4.2236,4.1913,4.1651,4.1312,4.0995,4.0801,4.0638,4.0436,4.0325,4.03,4.0288,4.0201,4.0213,4.0138,4.0113,4.0113,4.0113,4.0113,4.0113,4.0113,4.0113,4.0113,4.0113,4.0113,4.0113,4.0096,4.0096,4.0079,3.9626,3.9288,3.8983,3.8865,3.8447,3.8017,3.7628,3.7194,3.6851,3.6564,3.5774,3.5583,3.5554,3.5462,3.5311,3.5033,3.4611,3.4411,3.4184,3.4159,3.4172,3.4147,3.4031,3.4022,3.387,3.3572,3.3364,3.3311,3.3214,3.3043]}]]